Wetterdaten: Dienstag, 04.07.2017
Datum Zeit Temp. A. Temp. A. max Feuchte A. Luftdruck Regen Wind Richtung Richtung Sonnenschein ET UV Solar Taupunkt Windchill Windböen
04.07.2017 00:00 11,9 °C 11,9 °C 87 % 1020,8 hPa 0,0 mm 0,0 km/h (0 Bft) SW 226 ° 0 min 0,000 mm 0,0 UV-I 0 W/m² 9,8 °C 11,9 °C 0,0 km/h (0 Bft)
04.07.2017 00:01 11,9 °C 11,9 °C 87 % 1020,8 hPa 0,0 mm 0,0 km/h (0 Bft) SW 226 ° 0 min 0,000 mm 0,0 UV-I 0 W/m² 9,8 °C 11,9 °C 0,0 km/h (0 Bft)
04.07.2017 00:02 11,8 °C 11,9 °C 87 % 1020,8 hPa 0,0 mm 0,0 km/h (0 Bft) SW 226 ° 0 min 0,000 mm 0,0 UV-I 0 W/m² 9,7 °C 11,8 °C 0,0 km/h (0 Bft)
04.07.2017 00:03 11,8 °C 11,9 °C 87 % 1020,8 hPa 0,0 mm 0,0 km/h (0 Bft) SW 226 ° 0 min 0,000 mm 0,0 UV-I 0 W/m² 9,7 °C 11,8 °C 0,0 km/h (0 Bft)
04.07.2017 00:04 11,8 °C 11,8 °C 87 % 1020,8 hPa 0,0 mm 0,0 km/h (0 Bft) SW 226 ° 0 min 0,000 mm 0,0 UV-I 0 W/m² 9,7 °C 11,8 °C 0,0 km/h (0 Bft)
04.07.2017 00:05 11,8 °C 11,8 °C 87 % 1020,8 hPa 0,0 mm 0,0 km/h (0 Bft) SW 226 ° 0 min 0,000 mm 0,0 UV-I 0 W/m² 9,7 °C 11,8 °C 0,0 km/h (0 Bft)
04.07.2017 00:06 11,8 °C 11,8 °C 87 % 1020,8 hPa 0,0 mm 0,0 km/h (0 Bft) SW 226 ° 0 min 0,000 mm 0,0 UV-I 0 W/m² 9,7 °C 11,8 °C 0,0 km/h (0 Bft)
04.07.2017 00:07 11,8 °C 11,8 °C 87 % 1020,8 hPa 0,0 mm 0,0 km/h (0 Bft) SW 226 ° 0 min 0,000 mm 0,0 UV-I 0 W/m² 9,7 °C 11,8 °C 0,0 km/h (0 Bft)
04.07.2017 00:08 11,8 °C 11,8 °C 87 % 1020,7 hPa 0,0 mm 0,3 km/h (0 Bft) SW 226 ° 0 min 0,000 mm 0,0 UV-I 0 W/m² 9,7 °C 11,8 °C 1,6 km/h (1 Bft)
04.07.2017 00:09 11,8 °C 11,8 °C 87 % 1020,7 hPa 0,0 mm 0,0 km/h (0 Bft) SW 226 ° 0 min 0,000 mm 0,0 UV-I 0 W/m² 9,7 °C 11,8 °C 0,0 km/h (0 Bft)
04.07.2017 00:10 11,8 °C 11,8 °C 87 % 1020,7 hPa 0,0 mm 0,0 km/h (0 Bft) SW 226 ° 0 min 0,000 mm 0,0 UV-I 0 W/m² 9,7 °C 11,8 °C 0,0 km/h (0 Bft)
04.07.2017 00:11 11,8 °C 11,8 °C 87 % 1020,7 hPa 0,0 mm 0,1 km/h (0 Bft) SW 226 ° 0 min 0,000 mm 0,0 UV-I 0 W/m² 9,7 °C 11,8 °C 1,6 km/h (1 Bft)
04.07.2017 00:12 11,8 °C 11,8 °C 87 % 1020,8 hPa 0,0 mm 0,2 km/h (0 Bft) SW 226 ° 0 min 0,000 mm 0,0 UV-I 0 W/m² 9,7 °C 11,8 °C 1,6 km/h (1 Bft)
04.07.2017 00:13 11,8 °C 11,8 °C 87 % 1020,7 hPa 0,0 mm 0,8 km/h (0 Bft) SW 226 ° 0 min 0,000 mm 0,0 UV-I 0 W/m² 9,7 °C 11,8 °C 1,6 km/h (1 Bft)
04.07.2017 00:14 11,8 °C 11,8 °C 87 % 1020,7 hPa 0,0 mm 0,1 km/h (0 Bft) SW 226 ° 0 min 0,000 mm 0,0 UV-I 0 W/m² 9,7 °C 11,8 °C 1,6 km/h (1 Bft)
04.07.2017 00:15 11,8 °C 11,8 °C 87 % 1020,7 hPa 0,0 mm 0,0 km/h (0 Bft) SW 226 ° 0 min 0,000 mm 0,0 UV-I 0 W/m² 9,7 °C 11,8 °C 0,0 km/h (0 Bft)
04.07.2017 00:16 11,8 °C 11,8 °C 86 % 1020,7 hPa 0,0 mm 0,0 km/h (0 Bft) SW 226 ° 0 min 0,000 mm 0,0 UV-I 0 W/m² 9,5 °C 11,8 °C 0,0 km/h (0 Bft)
04.07.2017 00:17 11,8 °C 11,8 °C 87 % 1020,7 hPa 0,0 mm 0,0 km/h (0 Bft) SW 226 ° 0 min 0,000 mm 0,0 UV-I 0 W/m² 9,7 °C 11,8 °C 0,0 km/h (0 Bft)
04.07.2017 00:18 11,8 °C 11,8 °C 86 % 1020,7 hPa 0,0 mm 1,1 km/h (1 Bft) SW 226 ° 0 min 0,000 mm 0,0 UV-I 0 W/m² 9,5 °C 11,8 °C 3,2 km/h (1 Bft)
04.07.2017 00:19 11,8 °C 11,8 °C 87 % 1020,7 hPa 0,0 mm 1,1 km/h (1 Bft) SW 226 ° 0 min 0,000 mm 0,0 UV-I 0 W/m² 9,7 °C 11,8 °C 3,2 km/h (1 Bft)
04.07.2017 00:20 11,7 °C 11,8 °C 87 % 1020,7 hPa 0,0 mm 1,5 km/h (1 Bft) S-SW 211 ° 0 min 0,000 mm 0,0 UV-I 0 W/m² 9,6 °C 11,7 °C 4,8 km/h (1 Bft)
04.07.2017 00:21 11,7 °C 11,7 °C 88 % 1020,7 hPa 0,0 mm 2,1 km/h (1 Bft) S-SW 203 ° 0 min 0,000 mm 0,0 UV-I 0 W/m² 9,8 °C 11,7 °C 3,2 km/h (1 Bft)
04.07.2017 00:22 11,7 °C 11,7 °C 87 % 1020,7 hPa 0,0 mm 0,2 km/h (0 Bft) S-SW 203 ° 0 min 0,000 mm 0,0 UV-I 0 W/m² 9,6 °C 11,7 °C 1,6 km/h (1 Bft)
04.07.2017 00:23 11,7 °C 11,7 °C 87 % 1020,7 hPa 0,0 mm 1,4 km/h (1 Bft) S-SW 203 ° 0 min 0,000 mm 0,0 UV-I 0 W/m² 9,6 °C 11,7 °C 3,2 km/h (1 Bft)
04.07.2017 00:24 11,7 °C 11,7 °C 87 % 1020,7 hPa 0,0 mm 1,7 km/h (1 Bft) S-SW 203 ° 0 min 0,000 mm 0,0 UV-I 0 W/m² 9,6 °C 11,7 °C 3,2 km/h (1 Bft)
04.07.2017 00:25 11,7 °C 11,7 °C 87 % 1020,7 hPa 0,0 mm 1,7 km/h (1 Bft) S-SW 203 ° 0 min 0,000 mm 0,0 UV-I 0 W/m² 9,6 °C 11,7 °C 3,2 km/h (1 Bft)
04.07.2017 00:26 11,6 °C 11,7 °C 87 % 1020,7 hPa 0,0 mm 3,2 km/h (1 Bft) S-SW 203 ° 0 min 0,000 mm 0,0 UV-I 0 W/m² 9,5 °C 11,6 °C 4,8 km/h (1 Bft)
04.07.2017 00:27 11,7 °C 11,7 °C 87 % 1020,7 hPa 0,0 mm 3,4 km/h (1 Bft) S-SW 194 ° 0 min 0,000 mm 0,0 UV-I 0 W/m² 9,6 °C 11,7 °C 4,8 km/h (1 Bft)
04.07.2017 00:28 11,7 °C 11,7 °C 88 % 1020,7 hPa 0,0 mm 3,0 km/h (1 Bft) S 190 ° 0 min 0,000 mm 0,0 UV-I 0 W/m² 9,8 °C 11,7 °C 4,8 km/h (1 Bft)
04.07.2017 00:29 11,7 °C 11,7 °C 87 % 1020,7 hPa 0,0 mm 0,7 km/h (0 Bft) S 190 ° 0 min 0,000 mm 0,0 UV-I 0 W/m² 9,6 °C 11,7 °C 1,6 km/h (1 Bft)
04.07.2017 00:30 11,7 °C 11,7 °C 86 % 1020,7 hPa 0,0 mm 1,9 km/h (1 Bft) S 187 ° 0 min 0,000 mm 0,0 UV-I 0 W/m² 9,4 °C 11,7 °C 3,2 km/h (1 Bft)
04.07.2017 00:31 11,7 °C 11,7 °C 87 % 1020,7 hPa 0,0 mm 2,3 km/h (1 Bft) S 187 ° 0 min 0,000 mm 0,0 UV-I 0 W/m² 9,6 °C 11,7 °C 3,2 km/h (1 Bft)
04.07.2017 00:32 11,7 °C 11,7 °C 87 % 1020,7 hPa 0,0 mm 2,5 km/h (1 Bft) S 187 ° 0 min 0,000 mm 0,0 UV-I 0 W/m² 9,6 °C 11,7 °C 3,2 km/h (1 Bft)
04.07.2017 00:33 11,7 °C 11,7 °C 87 % 1020,7 hPa 0,0 mm 2,4 km/h (1 Bft) S 187 ° 0 min 0,000 mm 0,0 UV-I 0 W/m² 9,6 °C 11,7 °C 3,2 km/h (1 Bft)
04.07.2017 00:34 11,8 °C 11,8 °C 87 % 1020,7 hPa 0,0 mm 3,0 km/h (1 Bft) S 187 ° 0 min 0,000 mm 0,0 UV-I 0 W/m² 9,7 °C 11,8 °C 4,8 km/h (1 Bft)
04.07.2017 00:35 11,8 °C 11,8 °C 88 % 1020,7 hPa 0,0 mm 2,7 km/h (1 Bft) S 187 ° 0 min 0,000 mm 0,0 UV-I 0 W/m² 9,9 °C 11,8 °C 3,2 km/h (1 Bft)
04.07.2017 00:36 11,8 °C 11,8 °C 86 % 1020,7 hPa 0,0 mm 1,0 km/h (0 Bft) S 187 ° 0 min 0,000 mm 0,0 UV-I 0 W/m² 9,5 °C 11,8 °C 3,2 km/h (1 Bft)
04.07.2017 00:37 11,8 °C 11,8 °C 86 % 1020,7 hPa 0,0 mm 1,5 km/h (1 Bft) S 187 ° 0 min 0,000 mm 0,0 UV-I 0 W/m² 9,5 °C 11,8 °C 3,2 km/h (1 Bft)
04.07.2017 00:38 11,8 °C 11,8 °C 86 % 1020,6 hPa 0,0 mm 1,4 km/h (1 Bft) S 187 ° 0 min 0,000 mm 0,0 UV-I 0 W/m² 9,5 °C 11,8 °C 3,2 km/h (1 Bft)
04.07.2017 00:39 11,8 °C 11,8 °C 86 % 1020,7 hPa 0,0 mm 0,3 km/h (0 Bft) S 187 ° 0 min 0,000 mm 0,0 UV-I 0 W/m² 9,5 °C 11,8 °C 1,6 km/h (1 Bft)
04.07.2017 00:40 11,7 °C 11,8 °C 86 % 1020,7 hPa 0,0 mm 1,1 km/h (1 Bft) S 187 ° 0 min 0,000 mm 0,0 UV-I 0 W/m² 9,4 °C 11,7 °C 3,2 km/h (1 Bft)
04.07.2017 00:41 11,7 °C 11,8 °C 86 % 1020,7 hPa 0,0 mm 2,3 km/h (1 Bft) S 187 ° 0 min 0,000 mm 0,0 UV-I 0 W/m² 9,4 °C 11,7 °C 3,2 km/h (1 Bft)
04.07.2017 00:42 11,7 °C 11,8 °C 86 % 1020,7 hPa 0,0 mm 1,9 km/h (1 Bft) S 187 ° 0 min 0,000 mm 0,0 UV-I 0 W/m² 9,4 °C 11,7 °C 3,2 km/h (1 Bft)
04.07.2017 00:43 11,7 °C 11,7 °C 86 % 1020,7 hPa 0,0 mm 2,0 km/h (1 Bft) S 187 ° 0 min 0,000 mm 0,0 UV-I 0 W/m² 9,4 °C 11,7 °C 3,2 km/h (1 Bft)
04.07.2017 00:44 11,7 °C 11,7 °C 86 % 1020,7 hPa 0,0 mm 2,4 km/h (1 Bft) S 187 ° 0 min 0,000 mm 0,0 UV-I 0 W/m² 9,4 °C 11,7 °C 4,8 km/h (1 Bft)
04.07.2017 00:45 11,7 °C 11,7 °C 87 % 1020,7 hPa 0,0 mm 2,5 km/h (1 Bft) S 187 ° 0 min 0,000 mm 0,0 UV-I 0 W/m² 9,6 °C 11,7 °C 4,8 km/h (1 Bft)
04.07.2017 00:46 11,7 °C 11,7 °C 86 % 1020,7 hPa 0,0 mm 2,3 km/h (1 Bft) S 187 ° 0 min 0,000 mm 0,0 UV-I 0 W/m² 9,4 °C 11,7 °C 3,2 km/h (1 Bft)
04.07.2017 00:47 11,7 °C 11,7 °C 86 % 1020,7 hPa 0,0 mm 2,7 km/h (1 Bft) S 186 ° 0 min 0,000 mm 0,0 UV-I 0 W/m² 9,4 °C 11,7 °C 4,8 km/h (1 Bft)
04.07.2017 00:48 11,7 °C 11,7 °C 87 % 1020,6 hPa 0,0 mm 4,4 km/h (1 Bft) S 171 ° 0 min 0,000 mm 0,0 UV-I 0 W/m² 9,6 °C 11,7 °C 6,4 km/h (2 Bft)
04.07.2017 00:49 11,8 °C 11,8 °C 87 % 1020,6 hPa 0,0 mm 4,8 km/h (1 Bft) S-SO 155 ° 0 min 0,000 mm 0,0 UV-I 0 W/m² 9,7 °C 11,8 °C 6,4 km/h (2 Bft)
04.07.2017 00:50 11,7 °C 11,8 °C 86 % 1020,7 hPa 0,0 mm 3,9 km/h (1 Bft) S-SO 155 ° 0 min 0,000 mm 0,0 UV-I 0 W/m² 9,4 °C 11,7 °C 4,8 km/h (1 Bft)
04.07.2017 00:51 11,8 °C 11,8 °C 86 % 1020,6 hPa 0,0 mm 3,3 km/h (1 Bft) S-SO 155 ° 0 min 0,000 mm 0,0 UV-I 0 W/m² 9,5 °C 11,8 °C 4,8 km/h (1 Bft)
04.07.2017 00:52 11,8 °C 11,8 °C 86 % 1020,6 hPa 0,0 mm 3,5 km/h (1 Bft) S-SO 151 ° 0 min 0,000 mm 0,0 UV-I 0 W/m² 9,5 °C 11,8 °C 6,4 km/h (2 Bft)
04.07.2017 00:53 11,8 °C 11,8 °C 87 % 1020,7 hPa 0,0 mm 3,7 km/h (1 Bft) S-SO 151 ° 0 min 0,000 mm 0,0 UV-I 0 W/m² 9,7 °C 11,8 °C 4,8 km/h (1 Bft)
04.07.2017 00:54 11,8 °C 11,8 °C 86 % 1020,6 hPa 0,0 mm 3,1 km/h (1 Bft) S-SO 151 ° 0 min 0,000 mm 0,0 UV-I 0 W/m² 9,5 °C 11,8 °C 4,8 km/h (1 Bft)
04.07.2017 00:55 11,9 °C 11,9 °C 86 % 1020,7 hPa 0,0 mm 2,8 km/h (1 Bft) S-SO 151 ° 0 min 0,000 mm 0,0 UV-I 0 W/m² 9,6 °C 11,9 °C 3,2 km/h (1 Bft)
04.07.2017 00:56 11,8 °C 11,9 °C 85 % 1020,7 hPa 0,0 mm 2,3 km/h (1 Bft) S-SO 151 ° 0 min 0,000 mm 0,0 UV-I 0 W/m² 9,4 °C 11,8 °C 3,2 km/h (1 Bft)
04.07.2017 00:57 11,8 °C 11,8 °C 86 % 1020,6 hPa 0,0 mm 3,1 km/h (1 Bft) S-SO 151 ° 0 min 0,000 mm 0,0 UV-I 0 W/m² 9,5 °C 11,8 °C 4,8 km/h (1 Bft)
04.07.2017 00:58 11,8 °C 11,8 °C 86 % 1020,7 hPa 0,0 mm 2,8 km/h (1 Bft) S-SO 152 ° 0 min 0,000 mm 0,0 UV-I 0 W/m² 9,5 °C 11,8 °C 3,2 km/h (1 Bft)
04.07.2017 00:59 11,8 °C 11,8 °C 85 % 1020,6 hPa 0,0 mm 2,1 km/h (1 Bft) S-SO 152 ° 0 min 0,000 mm 0,0 UV-I 0 W/m² 9,4 °C 11,8 °C 3,2 km/h (1 Bft)
04.07.2017 01:00 11,8 °C 11,8 °C 85 % 1020,7 hPa 0,0 mm 2,0 km/h (1 Bft) S-SO 152 ° 0 min 0,000 mm 0,0 UV-I 0 W/m² 9,4 °C 11,8 °C 3,2 km/h (1 Bft)
04.07.2017 01:01 11,8 °C 11,8 °C 86 % 1020,6 hPa 0,0 mm 1,7 km/h (1 Bft) S-SO 152 ° 0 min 0,000 mm 0,0 UV-I 0 W/m² 9,5 °C 11,8 °C 3,2 km/h (1 Bft)
04.07.2017 01:02 11,7 °C 11,8 °C 85 % 1020,6 hPa 0,0 mm 1,9 km/h (1 Bft) S-SO 152 ° 0 min 0,000 mm 0,0 UV-I 0 W/m² 9,3 °C 11,7 °C 3,2 km/h (1 Bft)
04.07.2017 01:03 11,7 °C 11,7 °C 85 % 1020,6 hPa 0,0 mm 2,3 km/h (1 Bft) S-SO 152 ° 0 min 0,000 mm 0,0 UV-I 0 W/m² 9,3 °C 11,7 °C 4,8 km/h (1 Bft)
04.07.2017 01:04 11,7 °C 11,7 °C 85 % 1020,6 hPa 0,0 mm 2,1 km/h (1 Bft) S-SO 152 ° 0 min 0,000 mm 0,0 UV-I 0 W/m² 9,3 °C 11,7 °C 3,2 km/h (1 Bft)
04.07.2017 01:05 11,7 °C 11,7 °C 86 % 1020,6 hPa 0,0 mm 2,4 km/h (1 Bft) S-SO 152 ° 0 min 0,000 mm 0,0 UV-I 0 W/m² 9,4 °C 11,7 °C 4,8 km/h (1 Bft)
04.07.2017 01:06 11,8 °C 11,8 °C 86 % 1020,6 hPa 0,0 mm 1,1 km/h (1 Bft) S-SO 152 ° 0 min 0,000 mm 0,0 UV-I 0 W/m² 9,5 °C 11,8 °C 1,6 km/h (1 Bft)
04.07.2017 01:07 11,8 °C 11,8 °C 85 % 1020,5 hPa 0,0 mm 1,5 km/h (1 Bft) S-SO 152 ° 0 min 0,000 mm 0,0 UV-I 0 W/m² 9,4 °C 11,8 °C 3,2 km/h (1 Bft)
04.07.2017 01:08 11,8 °C 11,8 °C 86 % 1020,6 hPa 0,0 mm 1,9 km/h (1 Bft) S-SO 152 ° 0 min 0,000 mm 0,0 UV-I 0 W/m² 9,5 °C 11,8 °C 3,2 km/h (1 Bft)
04.07.2017 01:09 11,8 °C 11,8 °C 85 % 1020,6 hPa 0,0 mm 0,6 km/h (0 Bft) S-SO 152 ° 0 min 0,000 mm 0,0 UV-I 0 W/m² 9,4 °C 11,8 °C 1,6 km/h (1 Bft)
04.07.2017 01:10 11,8 °C 11,8 °C 85 % 1020,6 hPa 0,0 mm 2,0 km/h (1 Bft) S-SO 152 ° 0 min 0,000 mm 0,0 UV-I 0 W/m² 9,4 °C 11,8 °C 3,2 km/h (1 Bft)
04.07.2017 01:11 11,8 °C 11,8 °C 87 % 1020,6 hPa 0,0 mm 2,6 km/h (1 Bft) S-SO 152 ° 0 min 0,000 mm 0,0 UV-I 0 W/m² 9,7 °C 11,8 °C 4,8 km/h (1 Bft)
04.07.2017 01:12 11,8 °C 11,8 °C 86 % 1020,6 hPa 0,0 mm 2,9 km/h (1 Bft) S-SO 152 ° 0 min 0,000 mm 0,0 UV-I 0 W/m² 9,5 °C 11,8 °C 4,8 km/h (1 Bft)
04.07.2017 01:13 11,8 °C 11,8 °C 86 % 1020,6 hPa 0,0 mm 3,0 km/h (1 Bft) S-SO 150 ° 0 min 0,000 mm 0,0 UV-I 0 W/m² 9,5 °C 11,8 °C 4,8 km/h (1 Bft)
04.07.2017 01:14 11,8 °C 11,8 °C 86 % 1020,6 hPa 0,0 mm 3,4 km/h (1 Bft) S-SO 150 ° 0 min 0,000 mm 0,0 UV-I 0 W/m² 9,5 °C 11,8 °C 4,8 km/h (1 Bft)
04.07.2017 01:15 11,8 °C 11,8 °C 86 % 1020,6 hPa 0,0 mm 2,5 km/h (1 Bft) S-SO 150 ° 0 min 0,000 mm 0,0 UV-I 0 W/m² 9,5 °C 11,8 °C 4,8 km/h (1 Bft)
04.07.2017 01:16 11,8 °C 11,8 °C 85 % 1020,6 hPa 0,0 mm 2,3 km/h (1 Bft) S-SO 150 ° 0 min 0,000 mm 0,0 UV-I 0 W/m² 9,4 °C 11,8 °C 4,8 km/h (1 Bft)
04.07.2017 01:17 11,8 °C 11,8 °C 86 % 1020,6 hPa 0,0 mm 3,5 km/h (1 Bft) SO 125 ° 0 min 0,000 mm 0,0 UV-I 0 W/m² 9,5 °C 11,8 °C 4,8 km/h (1 Bft)
04.07.2017 01:18 11,7 °C 11,8 °C 86 % 1020,6 hPa 0,0 mm 3,2 km/h (1 Bft) S-SO 157 ° 0 min 0,000 mm 0,0 UV-I 0 W/m² 9,4 °C 11,7 °C 4,8 km/h (1 Bft)
04.07.2017 01:19 11,7 °C 11,7 °C 86 % 1020,6 hPa 0,0 mm 2,0 km/h (1 Bft) S-SO 157 ° 0 min 0,000 mm 0,0 UV-I 0 W/m² 9,4 °C 11,7 °C 3,2 km/h (1 Bft)
04.07.2017 01:20 11,7 °C 11,7 °C 86 % 1020,6 hPa 0,0 mm 2,0 km/h (1 Bft) S-SO 157 ° 0 min 0,000 mm 0,0 UV-I 0 W/m² 9,4 °C 11,7 °C 3,2 km/h (1 Bft)
04.07.2017 01:21 11,7 °C 11,7 °C 86 % 1020,6 hPa 0,0 mm 2,1 km/h (1 Bft) S-SO 157 ° 0 min 0,000 mm 0,0 UV-I 0 W/m² 9,4 °C 11,7 °C 4,8 km/h (1 Bft)
04.07.2017 01:22 11,7 °C 11,7 °C 86 % 1020,6 hPa 0,0 mm 3,1 km/h (1 Bft) S-SO 157 ° 0 min 0,000 mm 0,0 UV-I 0 W/m² 9,4 °C 11,7 °C 4,8 km/h (1 Bft)
04.07.2017 01:23 11,7 °C 11,7 °C 86 % 1020,6 hPa 0,0 mm 4,0 km/h (1 Bft) S-SO 157 ° 0 min 0,000 mm 0,0 UV-I 0 W/m² 9,4 °C 11,7 °C 4,8 km/h (1 Bft)
04.07.2017 01:24 11,7 °C 11,7 °C 86 % 1020,5 hPa 0,0 mm 4,6 km/h (1 Bft) S-SO 156 ° 0 min 0,000 mm 0,0 UV-I 0 W/m² 9,4 °C 11,7 °C 8,0 km/h (2 Bft)
04.07.2017 01:25 11,8 °C 11,8 °C 87 % 1020,6 hPa 0,0 mm 3,3 km/h (1 Bft) S-SO 156 ° 0 min 0,000 mm 0,0 UV-I 0 W/m² 9,7 °C 11,8 °C 4,8 km/h (1 Bft)
04.07.2017 01:26 11,7 °C 11,8 °C 86 % 1020,6 hPa 0,0 mm 2,4 km/h (1 Bft) S-SO 156 ° 0 min 0,000 mm 0,0 UV-I 0 W/m² 9,4 °C 11,7 °C 3,2 km/h (1 Bft)
04.07.2017 01:27 11,8 °C 11,8 °C 86 % 1020,6 hPa 0,0 mm 2,3 km/h (1 Bft) S-SO 156 ° 0 min 0,000 mm 0,0 UV-I 0 W/m² 9,5 °C 11,8 °C 3,2 km/h (1 Bft)
04.07.2017 01:28 11,8 °C 11,8 °C 86 % 1020,6 hPa 0,0 mm 4,0 km/h (1 Bft) S-SO 156 ° 0 min 0,000 mm 0,0 UV-I 0 W/m² 9,5 °C 11,8 °C 4,8 km/h (1 Bft)
04.07.2017 01:29 11,8 °C 11,8 °C 86 % 1020,6 hPa 0,0 mm 3,4 km/h (1 Bft) S-SO 156 ° 0 min 0,000 mm 0,0 UV-I 0 W/m² 9,5 °C 11,8 °C 4,8 km/h (1 Bft)
04.07.2017 01:30 11,8 °C 11,8 °C 86 % 1020,6 hPa 0,0 mm 3,1 km/h (1 Bft) SO 134 ° 0 min 0,000 mm 0,0 UV-I 0 W/m² 9,5 °C 11,8 °C 4,8 km/h (1 Bft)
04.07.2017 01:31 11,8 °C 11,8 °C 85 % 1020,6 hPa 0,0 mm 2,8 km/h (1 Bft) SO 134 ° 0 min 0,000 mm 0,0 UV-I 0 W/m² 9,4 °C 11,8 °C 4,8 km/h (1 Bft)
04.07.2017 01:32 11,8 °C 11,8 °C 87 % 1020,6 hPa 0,0 mm 3,3 km/h (1 Bft) SO 134 ° 0 min 0,000 mm 0,0 UV-I 0 W/m² 9,7 °C 11,8 °C 6,4 km/h (2 Bft)
04.07.2017 01:33 11,8 °C 11,8 °C 86 % 1020,6 hPa 0,0 mm 1,3 km/h (1 Bft) SO 134 ° 0 min 0,000 mm 0,0 UV-I 0 W/m² 9,5 °C 11,8 °C 3,2 km/h (1 Bft)
04.07.2017 01:34 11,8 °C 11,8 °C 85 % 1020,6 hPa 0,0 mm 3,0 km/h (1 Bft) SO 134 ° 0 min 0,000 mm 0,0 UV-I 0 W/m² 9,4 °C 11,8 °C 4,8 km/h (1 Bft)
04.07.2017 01:35 11,8 °C 11,8 °C 86 % 1020,6 hPa 0,0 mm 3,2 km/h (1 Bft) SO 134 ° 0 min 0,000 mm 0,0 UV-I 0 W/m² 9,5 °C 11,8 °C 4,8 km/h (1 Bft)
04.07.2017 01:36 11,8 °C 11,8 °C 86 % 1020,5 hPa 0,0 mm 3,6 km/h (1 Bft) SO 135 ° 0 min 0,000 mm 0,0 UV-I 0 W/m² 9,5 °C 11,8 °C 4,8 km/h (1 Bft)
04.07.2017 01:37 11,8 °C 11,8 °C 86 % 1020,5 hPa 0,0 mm 3,3 km/h (1 Bft) SO 135 ° 0 min 0,000 mm 0,0 UV-I 0 W/m² 9,5 °C 11,8 °C 4,8 km/h (1 Bft)
04.07.2017 01:38 11,8 °C 11,8 °C 86 % 1020,5 hPa 0,0 mm 2,5 km/h (1 Bft) SO 135 ° 0 min 0,000 mm 0,0 UV-I 0 W/m² 9,5 °C 11,8 °C 3,2 km/h (1 Bft)
04.07.2017 01:39 11,8 °C 11,8 °C 86 % 1020,5 hPa 0,0 mm 2,7 km/h (1 Bft) SO 135 ° 0 min 0,000 mm 0,0 UV-I 0 W/m² 9,5 °C 11,8 °C 4,8 km/h (1 Bft)
04.07.2017 01:40 11,8 °C 11,8 °C 86 % 1020,5 hPa 0,0 mm 3,0 km/h (1 Bft) SO 135 ° 0 min 0,000 mm 0,0 UV-I 0 W/m² 9,5 °C 11,8 °C 4,8 km/h (1 Bft)
04.07.2017 01:41 11,8 °C 11,8 °C 86 % 1020,5 hPa 0,0 mm 2,4 km/h (1 Bft) SO 135 ° 0 min 0,000 mm 0,0 UV-I 0 W/m² 9,5 °C 11,8 °C 4,8 km/h (1 Bft)
04.07.2017 01:42 11,8 °C 11,8 °C 86 % 1020,6 hPa 0,0 mm 3,7 km/h (1 Bft) SO 135 ° 0 min 0,000 mm 0,0 UV-I 0 W/m² 9,5 °C 11,8 °C 4,8 km/h (1 Bft)
04.07.2017 01:43 11,8 °C 11,8 °C 87 % 1020,6 hPa 0,0 mm 2,7 km/h (1 Bft) SO 135 ° 0 min 0,000 mm 0,0 UV-I 0 W/m² 9,7 °C 11,8 °C 4,8 km/h (1 Bft)
04.07.2017 01:44 11,8 °C 11,8 °C 86 % 1020,6 hPa 0,0 mm 2,3 km/h (1 Bft) SO 135 ° 0 min 0,000 mm 0,0 UV-I 0 W/m² 9,5 °C 11,8 °C 3,2 km/h (1 Bft)
04.07.2017 01:45 11,8 °C 11,8 °C 86 % 1020,5 hPa 0,0 mm 1,3 km/h (1 Bft) SO 135 ° 0 min 0,000 mm 0,0 UV-I 0 W/m² 9,5 °C 11,8 °C 3,2 km/h (1 Bft)
04.07.2017 01:46 11,8 °C 11,8 °C 86 % 1020,5 hPa 0,0 mm 3,2 km/h (1 Bft) O-SO 113 ° 0 min 0,000 mm 0,0 UV-I 0 W/m² 9,5 °C 11,8 °C 4,8 km/h (1 Bft)
04.07.2017 01:47 11,8 °C 11,8 °C 86 % 1020,5 hPa 0,0 mm 2,8 km/h (1 Bft) O-SO 113 ° 0 min 0,000 mm 0,0 UV-I 0 W/m² 9,5 °C 11,8 °C 4,8 km/h (1 Bft)
04.07.2017 01:48 11,8 °C 11,8 °C 86 % 1020,6 hPa 0,0 mm 2,9 km/h (1 Bft) O-SO 113 ° 0 min 0,000 mm 0,0 UV-I 0 W/m² 9,5 °C 11,8 °C 4,8 km/h (1 Bft)
04.07.2017 01:49 11,8 °C 11,8 °C 85 % 1020,6 hPa 0,0 mm 2,7 km/h (1 Bft) O-SO 113 ° 0 min 0,000 mm 0,0 UV-I 0 W/m² 9,4 °C 11,8 °C 4,8 km/h (1 Bft)
04.07.2017 01:50 11,8 °C 11,8 °C 87 % 1020,6 hPa 0,0 mm 2,7 km/h (1 Bft) O-SO 113 ° 0 min 0,000 mm 0,0 UV-I 0 W/m² 9,7 °C 11,8 °C 4,8 km/h (1 Bft)
04.07.2017 01:51 11,8 °C 11,8 °C 87 % 1020,6 hPa 0,0 mm 3,6 km/h (1 Bft) O-SO 113 ° 0 min 0,000 mm 0,0 UV-I 0 W/m² 9,7 °C 11,8 °C 4,8 km/h (1 Bft)
04.07.2017 01:52 11,8 °C 11,8 °C 87 % 1020,6 hPa 0,0 mm 3,4 km/h (1 Bft) O-SO 113 ° 0 min 0,000 mm 0,0 UV-I 0 W/m² 9,7 °C 11,8 °C 4,8 km/h (1 Bft)
04.07.2017 01:53 11,7 °C 11,8 °C 86 % 1020,6 hPa 0,0 mm 3,4 km/h (1 Bft) O 93 ° 0 min 0,000 mm 0,0 UV-I 0 W/m² 9,4 °C 11,7 °C 4,8 km/h (1 Bft)
04.07.2017 01:54 11,7 °C 11,7 °C 86 % 1020,6 hPa 0,0 mm 2,3 km/h (1 Bft) O 93 ° 0 min 0,000 mm 0,0 UV-I 0 W/m² 9,4 °C 11,7 °C 3,2 km/h (1 Bft)
04.07.2017 01:55 11,7 °C 11,7 °C 86 % 1020,6 hPa 0,0 mm 1,9 km/h (1 Bft) O 93 ° 0 min 0,000 mm 0,0 UV-I 0 W/m² 9,4 °C 11,7 °C 3,2 km/h (1 Bft)
04.07.2017 01:56 11,7 °C 11,7 °C 86 % 1020,5 hPa 0,0 mm 1,9 km/h (1 Bft) O 93 ° 0 min 0,000 mm 0,0 UV-I 0 W/m² 9,4 °C 11,7 °C 3,2 km/h (1 Bft)
04.07.2017 01:57 11,7 °C 11,7 °C 86 % 1020,5 hPa 0,0 mm 2,9 km/h (1 Bft) O 93 ° 0 min 0,000 mm 0,0 UV-I 0 W/m² 9,4 °C 11,7 °C 4,8 km/h (1 Bft)
04.07.2017 01:58 11,7 °C 11,7 °C 87 % 1020,6 hPa 0,0 mm 3,0 km/h (1 Bft) O 93 ° 0 min 0,000 mm 0,0 UV-I 0 W/m² 9,6 °C 11,7 °C 4,8 km/h (1 Bft)
04.07.2017 01:59 11,7 °C 11,7 °C 86 % 1020,6 hPa 0,0 mm 3,1 km/h (1 Bft) O 93 ° 0 min 0,000 mm 0,0 UV-I 0 W/m² 9,4 °C 11,7 °C 4,8 km/h (1 Bft)
04.07.2017 02:00 11,8 °C 11,8 °C 87 % 1020,5 hPa 0,0 mm 2,9 km/h (1 Bft) O 93 ° 0 min 0,025 mm 0,0 UV-I 0 W/m² 9,7 °C 11,8 °C 4,8 km/h (1 Bft)
04.07.2017 02:01 11,8 °C 11,8 °C 87 % 1020,5 hPa 0,0 mm 2,5 km/h (1 Bft) O 93 ° 0 min 0,000 mm 0,0 UV-I 0 W/m² 9,7 °C 11,8 °C 3,2 km/h (1 Bft)
04.07.2017 02:02 11,8 °C 11,8 °C 86 % 1020,5 hPa 0,0 mm 1,7 km/h (1 Bft) O 93 ° 0 min 0,000 mm 0,0 UV-I 0 W/m² 9,5 °C 11,8 °C 3,2 km/h (1 Bft)
04.07.2017 02:03 11,8 °C 11,8 °C 86 % 1020,5 hPa 0,0 mm 1,5 km/h (1 Bft) O 93 ° 0 min 0,000 mm 0,0 UV-I 0 W/m² 9,5 °C 11,8 °C 3,2 km/h (1 Bft)
04.07.2017 02:04 11,8 °C 11,8 °C 86 % 1020,5 hPa 0,0 mm 0,0 km/h (0 Bft) O 93 ° 0 min 0,000 mm 0,0 UV-I 0 W/m² 9,5 °C 11,8 °C 0,0 km/h (0 Bft)
04.07.2017 02:05 11,9 °C 11,9 °C 86 % 1020,5 hPa 0,0 mm 0,0 km/h (0 Bft) O 93 ° 0 min 0,000 mm 0,0 UV-I 0 W/m² 9,6 °C 11,9 °C 0,0 km/h (0 Bft)
04.07.2017 02:06 11,9 °C 11,9 °C 86 % 1020,5 hPa 0,0 mm 0,0 km/h (0 Bft) O 93 ° 0 min 0,000 mm 0,0 UV-I 0 W/m² 9,6 °C 11,9 °C 0,0 km/h (0 Bft)
04.07.2017 02:07 11,9 °C 11,9 °C 86 % 1020,5 hPa 0,0 mm 0,0 km/h (0 Bft) O 93 ° 0 min 0,000 mm 0,0 UV-I 0 W/m² 9,6 °C 11,9 °C 0,0 km/h (0 Bft)
04.07.2017 02:08 11,9 °C 11,9 °C 86 % 1020,5 hPa 0,0 mm 0,8 km/h (0 Bft) O 93 ° 0 min 0,000 mm 0,0 UV-I 0 W/m² 9,6 °C 11,9 °C 3,2 km/h (1 Bft)
04.07.2017 02:09 11,9 °C 11,9 °C 86 % 1020,5 hPa 0,0 mm 2,4 km/h (1 Bft) O 93 ° 0 min 0,000 mm 0,0 UV-I 0 W/m² 9,6 °C 11,9 °C 3,2 km/h (1 Bft)
04.07.2017 02:10 11,9 °C 11,9 °C 87 % 1020,5 hPa 0,0 mm 2,4 km/h (1 Bft) O 93 ° 0 min 0,000 mm 0,0 UV-I 0 W/m² 9,8 °C 11,9 °C 3,2 km/h (1 Bft)
04.07.2017 02:11 11,9 °C 11,9 °C 86 % 1020,5 hPa 0,0 mm 2,3 km/h (1 Bft) O 93 ° 0 min 0,000 mm 0,0 UV-I 0 W/m² 9,6 °C 11,9 °C 4,8 km/h (1 Bft)
04.07.2017 02:12 11,9 °C 11,9 °C 86 % 1020,5 hPa 0,0 mm 1,1 km/h (1 Bft) O 93 ° 0 min 0,000 mm 0,0 UV-I 0 W/m² 9,6 °C 11,9 °C 3,2 km/h (1 Bft)
04.07.2017 02:13 11,9 °C 12,0 °C 86 % 1020,5 hPa 0,0 mm 2,3 km/h (1 Bft) O 93 ° 0 min 0,000 mm 0,0 UV-I 0 W/m² 9,6 °C 11,9 °C 3,2 km/h (1 Bft)
04.07.2017 02:14 12,0 °C 12,0 °C 86 % 1020,5 hPa 0,0 mm 1,9 km/h (1 Bft) O 93 ° 0 min 0,000 mm 0,0 UV-I 0 W/m² 9,7 °C 12,0 °C 3,2 km/h (1 Bft)
04.07.2017 02:15 12,0 °C 12,0 °C 86 % 1020,5 hPa 0,0 mm 2,1 km/h (1 Bft) O 93 ° 0 min 0,000 mm 0,0 UV-I 0 W/m² 9,7 °C 12,0 °C 3,2 km/h (1 Bft)
04.07.2017 02:16 12,0 °C 12,0 °C 86 % 1020,5 hPa 0,0 mm 0,9 km/h (0 Bft) O 93 ° 0 min 0,000 mm 0,0 UV-I 0 W/m² 9,7 °C 12,0 °C 1,6 km/h (1 Bft)
04.07.2017 02:17 12,0 °C 12,1 °C 86 % 1020,5 hPa 0,0 mm 1,8 km/h (1 Bft) O 93 ° 0 min 0,000 mm 0,0 UV-I 0 W/m² 9,7 °C 12,0 °C 4,8 km/h (1 Bft)
04.07.2017 02:18 12,0 °C 12,1 °C 85 % 1020,5 hPa 0,0 mm 1,5 km/h (1 Bft) O 93 ° 0 min 0,000 mm 0,0 UV-I 0 W/m² 9,6 °C 12,0 °C 3,2 km/h (1 Bft)
04.07.2017 02:19 11,9 °C 12,0 °C 86 % 1020,5 hPa 0,0 mm 0,8 km/h (0 Bft) O 93 ° 0 min 0,000 mm 0,0 UV-I 0 W/m² 9,6 °C 11,9 °C 1,6 km/h (1 Bft)
04.07.2017 02:20 12,0 °C 12,0 °C 87 % 1020,5 hPa 0,0 mm 2,0 km/h (1 Bft) O 93 ° 0 min 0,000 mm 0,0 UV-I 0 W/m² 9,9 °C 12,0 °C 4,8 km/h (1 Bft)
04.07.2017 02:21 12,0 °C 12,0 °C 87 % 1020,5 hPa 0,0 mm 1,5 km/h (1 Bft) O 93 ° 0 min 0,000 mm 0,0 UV-I 0 W/m² 9,9 °C 12,0 °C 3,2 km/h (1 Bft)
04.07.2017 02:22 12,0 °C 12,0 °C 87 % 1020,5 hPa 0,0 mm 2,7 km/h (1 Bft) O 93 ° 0 min 0,000 mm 0,0 UV-I 0 W/m² 9,9 °C 12,0 °C 3,2 km/h (1 Bft)
04.07.2017 02:23 11,9 °C 12,0 °C 87 % 1020,5 hPa 0,0 mm 2,1 km/h (1 Bft) O 93 ° 0 min 0,000 mm 0,0 UV-I 0 W/m² 9,8 °C 11,9 °C 3,2 km/h (1 Bft)
04.07.2017 02:24 11,9 °C 12,0 °C 87 % 1020,5 hPa 0,0 mm 1,0 km/h (0 Bft) O 93 ° 0 min 0,000 mm 0,0 UV-I 0 W/m² 9,8 °C 11,9 °C 3,2 km/h (1 Bft)
04.07.2017 02:25 11,9 °C 11,9 °C 87 % 1020,5 hPa 0,0 mm 0,9 km/h (0 Bft) O 93 ° 0 min 0,000 mm 0,0 UV-I 0 W/m² 9,8 °C 11,9 °C 1,6 km/h (1 Bft)
04.07.2017 02:26 12,0 °C 12,0 °C 87 % 1020,5 hPa 0,0 mm 1,4 km/h (1 Bft) O 93 ° 0 min 0,000 mm 0,0 UV-I 0 W/m² 9,9 °C 12,0 °C 3,2 km/h (1 Bft)
04.07.2017 02:27 11,9 °C 12,0 °C 87 % 1020,5 hPa 0,0 mm 0,0 km/h (0 Bft) O 93 ° 0 min 0,000 mm 0,0 UV-I 0 W/m² 9,8 °C 11,9 °C 0,0 km/h (0 Bft)
04.07.2017 02:28 11,9 °C 12,0 °C 87 % 1020,5 hPa 0,0 mm 1,3 km/h (1 Bft) O 93 ° 0 min 0,000 mm 0,0 UV-I 0 W/m² 9,8 °C 11,9 °C 3,2 km/h (1 Bft)
04.07.2017 02:29 11,9 °C 11,9 °C 87 % 1020,5 hPa 0,0 mm 0,4 km/h (0 Bft) O 93 ° 0 min 0,000 mm 0,0 UV-I 0 W/m² 9,8 °C 11,9 °C 1,6 km/h (1 Bft)
04.07.2017 02:30 11,9 °C 11,9 °C 87 % 1020,5 hPa 0,0 mm 0,0 km/h (0 Bft) O 93 ° 0 min 0,000 mm 0,0 UV-I 0 W/m² 9,8 °C 11,9 °C 0,0 km/h (0 Bft)
04.07.2017 02:31 11,9 °C 11,9 °C 86 % 1020,5 hPa 0,0 mm 0,7 km/h (0 Bft) O 93 ° 0 min 0,000 mm 0,0 UV-I 0 W/m² 9,6 °C 11,9 °C 3,2 km/h (1 Bft)
04.07.2017 02:32 11,9 °C 11,9 °C 86 % 1020,5 hPa 0,0 mm 0,3 km/h (0 Bft) O 93 ° 0 min 0,000 mm 0,0 UV-I 0 W/m² 9,6 °C 11,9 °C 1,6 km/h (1 Bft)
04.07.2017 02:33 11,9 °C 11,9 °C 87 % 1020,5 hPa 0,0 mm 1,0 km/h (0 Bft) O 93 ° 0 min 0,000 mm 0,0 UV-I 0 W/m² 9,8 °C 11,9 °C 1,6 km/h (1 Bft)
04.07.2017 02:34 11,9 °C 11,9 °C 87 % 1020,5 hPa 0,0 mm 0,1 km/h (0 Bft) O 93 ° 0 min 0,000 mm 0,0 UV-I 0 W/m² 9,8 °C 11,9 °C 1,6 km/h (1 Bft)
04.07.2017 02:35 11,9 °C 11,9 °C 87 % 1020,5 hPa 0,0 mm 0,0 km/h (0 Bft) O 93 ° 0 min 0,000 mm 0,0 UV-I 0 W/m² 9,8 °C 11,9 °C 0,0 km/h (0 Bft)
04.07.2017 02:36 11,9 °C 11,9 °C 87 % 1020,4 hPa 0,0 mm 0,0 km/h (0 Bft) O 93 ° 0 min 0,000 mm 0,0 UV-I 0 W/m² 9,8 °C 11,9 °C 0,0 km/h (0 Bft)
04.07.2017 02:37 11,9 °C 11,9 °C 87 % 1020,4 hPa 0,0 mm 0,0 km/h (0 Bft) O 93 ° 0 min 0,000 mm 0,0 UV-I 0 W/m² 9,8 °C 11,9 °C 0,0 km/h (0 Bft)
04.07.2017 02:38 11,8 °C 11,9 °C 87 % 1020,5 hPa 0,0 mm 1,5 km/h (1 Bft) O 93 ° 0 min 0,000 mm 0,0 UV-I 0 W/m² 9,7 °C 11,8 °C 3,2 km/h (1 Bft)
04.07.2017 02:39 11,8 °C 11,8 °C 88 % 1020,4 hPa 0,0 mm 0,2 km/h (0 Bft) O 93 ° 0 min 0,000 mm 0,0 UV-I 0 W/m² 9,9 °C 11,8 °C 1,6 km/h (1 Bft)
04.07.2017 02:40 11,8 °C 11,8 °C 88 % 1020,5 hPa 0,0 mm 0,0 km/h (0 Bft) O 93 ° 0 min 0,000 mm 0,0 UV-I 0 W/m² 9,9 °C 11,8 °C 0,0 km/h (0 Bft)
04.07.2017 02:41 11,8 °C 11,8 °C 88 % 1020,4 hPa 0,0 mm 0,0 km/h (0 Bft) O 93 ° 0 min 0,000 mm 0,0 UV-I 0 W/m² 9,9 °C 11,8 °C 0,0 km/h (0 Bft)
04.07.2017 02:42 11,8 °C 11,8 °C 88 % 1020,4 hPa 0,0 mm 0,0 km/h (0 Bft) O 93 ° 0 min 0,000 mm 0,0 UV-I 0 W/m² 9,9 °C 11,8 °C 0,0 km/h (0 Bft)
04.07.2017 02:43 11,8 °C 11,8 °C 87 % 1020,5 hPa 0,0 mm 0,0 km/h (0 Bft) O 93 ° 0 min 0,000 mm 0,0 UV-I 0 W/m² 9,7 °C 11,8 °C 0,0 km/h (0 Bft)
04.07.2017 02:44 11,8 °C 11,8 °C 88 % 1020,4 hPa 0,0 mm 0,0 km/h (0 Bft) O 93 ° 0 min 0,000 mm 0,0 UV-I 0 W/m² 9,9 °C 11,8 °C 0,0 km/h (0 Bft)
04.07.2017 02:45 11,8 °C 11,8 °C 88 % 1020,4 hPa 0,0 mm 0,0 km/h (0 Bft) O 93 ° 0 min 0,000 mm 0,0 UV-I 0 W/m² 9,9 °C 11,8 °C 0,0 km/h (0 Bft)
04.07.2017 02:46 11,7 °C 11,8 °C 87 % 1020,4 hPa 0,0 mm 0,0 km/h (0 Bft) O 93 ° 0 min 0,000 mm 0,0 UV-I 0 W/m² 9,6 °C 11,7 °C 0,0 km/h (0 Bft)
04.07.2017 02:47 11,7 °C 11,7 °C 87 % 1020,4 hPa 0,0 mm 1,1 km/h (1 Bft) N-NW 344 ° 0 min 0,000 mm 0,0 UV-I 0 W/m² 9,6 °C 11,7 °C 3,2 km/h (1 Bft)
04.07.2017 02:48 11,7 °C 11,7 °C 88 % 1020,4 hPa 0,0 mm 1,3 km/h (1 Bft) N-NW 344 ° 0 min 0,000 mm 0,0 UV-I 0 W/m² 9,8 °C 11,7 °C 3,2 km/h (1 Bft)
04.07.2017 02:49 11,7 °C 11,7 °C 88 % 1020,4 hPa 0,0 mm 0,0 km/h (0 Bft) N-NW 344 ° 0 min 0,000 mm 0,0 UV-I 0 W/m² 9,8 °C 11,7 °C 0,0 km/h (0 Bft)
04.07.2017 02:50 11,7 °C 11,7 °C 88 % 1020,4 hPa 0,0 mm 0,0 km/h (0 Bft) N-NW 344 ° 0 min 0,000 mm 0,0 UV-I 0 W/m² 9,8 °C 11,7 °C 0,0 km/h (0 Bft)
04.07.2017 02:51 11,7 °C 11,7 °C 88 % 1020,3 hPa 0,0 mm 0,0 km/h (0 Bft) N-NW 344 ° 0 min 0,000 mm 0,0 UV-I 0 W/m² 9,8 °C 11,7 °C 0,0 km/h (0 Bft)
04.07.2017 02:52 11,7 °C 11,7 °C 88 % 1020,4 hPa 0,0 mm 0,0 km/h (0 Bft) N-NW 344 ° 0 min 0,000 mm 0,0 UV-I 0 W/m² 9,8 °C 11,7 °C 0,0 km/h (0 Bft)
04.07.2017 02:53 11,7 °C 11,7 °C 88 % 1020,3 hPa 0,0 mm 0,0 km/h (0 Bft) N-NW 344 ° 0 min 0,000 mm 0,0 UV-I 0 W/m² 9,8 °C 11,7 °C 0,0 km/h (0 Bft)
04.07.2017 02:54 11,6 °C 11,7 °C 88 % 1020,4 hPa 0,0 mm 0,0 km/h (0 Bft) N-NW 344 ° 0 min 0,000 mm 0,0 UV-I 0 W/m² 9,7 °C 11,6 °C 0,0 km/h (0 Bft)
04.07.2017 02:55 11,6 °C 11,7 °C 88 % 1020,3 hPa 0,0 mm 0,0 km/h (0 Bft) N-NW 344 ° 0 min 0,000 mm 0,0 UV-I 0 W/m² 9,7 °C 11,6 °C 0,0 km/h (0 Bft)
04.07.2017 02:56 11,6 °C 11,6 °C 88 % 1020,4 hPa 0,0 mm 0,0 km/h (0 Bft) N-NW 344 ° 0 min 0,000 mm 0,0 UV-I 0 W/m² 9,7 °C 11,6 °C 0,0 km/h (0 Bft)
04.07.2017 02:57 11,5 °C 11,6 °C 88 % 1020,4 hPa 0,0 mm 0,0 km/h (0 Bft) N-NW 344 ° 0 min 0,000 mm 0,0 UV-I 0 W/m² 9,6 °C 11,5 °C 0,0 km/h (0 Bft)
04.07.2017 02:58 11,4 °C 11,6 °C 88 % 1020,4 hPa 0,0 mm 1,0 km/h (0 Bft) N-NW 344 ° 0 min 0,000 mm 0,0 UV-I 0 W/m² 9,5 °C 11,4 °C 3,2 km/h (1 Bft)
04.07.2017 02:59 11,4 °C 11,4 °C 88 % 1020,4 hPa 0,0 mm 0,2 km/h (0 Bft) N-NW 344 ° 0 min 0,000 mm 0,0 UV-I 0 W/m² 9,5 °C 11,4 °C 1,6 km/h (1 Bft)
04.07.2017 03:00 11,3 °C 11,4 °C 88 % 1020,4 hPa 0,0 mm 0,0 km/h (0 Bft) N-NW 344 ° 0 min 0,000 mm 0,0 UV-I 0 W/m² 9,4 °C 11,3 °C 0,0 km/h (0 Bft)
04.07.2017 03:01 11,3 °C 11,3 °C 88 % 1020,4 hPa 0,0 mm 0,0 km/h (0 Bft) N-NW 344 ° 0 min 0,000 mm 0,0 UV-I 0 W/m² 9,4 °C 11,3 °C 0,0 km/h (0 Bft)
04.07.2017 03:02 11,3 °C 11,3 °C 88 % 1020,3 hPa 0,0 mm 0,0 km/h (0 Bft) N-NW 344 ° 0 min 0,000 mm 0,0 UV-I 0 W/m² 9,4 °C 11,3 °C 0,0 km/h (0 Bft)
04.07.2017 03:03 11,3 °C 11,3 °C 88 % 1020,4 hPa 0,0 mm 0,0 km/h (0 Bft) N-NW 344 ° 0 min 0,000 mm 0,0 UV-I 0 W/m² 9,4 °C 11,3 °C 0,0 km/h (0 Bft)
04.07.2017 03:04 11,3 °C 11,3 °C 88 % 1020,3 hPa 0,0 mm 1,0 km/h (0 Bft) N-NW 344 ° 0 min 0,000 mm 0,0 UV-I 0 W/m² 9,4 °C 11,3 °C 3,2 km/h (1 Bft)
04.07.2017 03:05 11,3 °C 11,3 °C 88 % 1020,3 hPa 0,0 mm 0,4 km/h (0 Bft) N-NW 344 ° 0 min 0,000 mm 0,0 UV-I 0 W/m² 9,4 °C 11,3 °C 1,6 km/h (1 Bft)
04.07.2017 03:06 11,3 °C 11,3 °C 88 % 1020,3 hPa 0,0 mm 0,0 km/h (0 Bft) N-NW 344 ° 0 min 0,000 mm 0,0 UV-I 0 W/m² 9,4 °C 11,3 °C 0,0 km/h (0 Bft)
04.07.2017 03:07 11,3 °C 11,3 °C 88 % 1020,3 hPa 0,0 mm 0,0 km/h (0 Bft) N-NW 344 ° 0 min 0,000 mm 0,0 UV-I 0 W/m² 9,4 °C 11,3 °C 0,0 km/h (0 Bft)
04.07.2017 03:08 11,3 °C 11,3 °C 88 % 1020,3 hPa 0,0 mm 0,0 km/h (0 Bft) N-NW 344 ° 0 min 0,000 mm 0,0 UV-I 0 W/m² 9,4 °C 11,3 °C 0,0 km/h (0 Bft)
04.07.2017 03:09 11,3 °C 11,3 °C 88 % 1020,3 hPa 0,0 mm 0,0 km/h (0 Bft) N-NW 344 ° 0 min 0,000 mm 0,0 UV-I 0 W/m² 9,4 °C 11,3 °C 0,0 km/h (0 Bft)
04.07.2017 03:10 11,3 °C 11,3 °C 88 % 1020,3 hPa 0,0 mm 0,0 km/h (0 Bft) N-NW 344 ° 0 min 0,000 mm 0,0 UV-I 0 W/m² 9,4 °C 11,3 °C 0,0 km/h (0 Bft)
04.07.2017 03:11 11,3 °C 11,3 °C 88 % 1020,3 hPa 0,0 mm 0,0 km/h (0 Bft) N-NW 344 ° 0 min 0,000 mm 0,0 UV-I 0 W/m² 9,4 °C 11,3 °C 0,0 km/h (0 Bft)
04.07.2017 03:12 11,2 °C 11,3 °C 88 % 1020,3 hPa 0,0 mm 0,0 km/h (0 Bft) N-NW 344 ° 0 min 0,000 mm 0,0 UV-I 0 W/m² 9,3 °C 11,2 °C 0,0 km/h (0 Bft)
04.07.2017 03:13 11,2 °C 11,2 °C 88 % 1020,3 hPa 0,0 mm 0,0 km/h (0 Bft) N-NW 344 ° 0 min 0,000 mm 0,0 UV-I 0 W/m² 9,3 °C 11,2 °C 0,0 km/h (0 Bft)
04.07.2017 03:14 11,1 °C 11,2 °C 88 % 1020,3 hPa 0,0 mm 0,0 km/h (0 Bft) N-NW 344 ° 0 min 0,000 mm 0,0 UV-I 0 W/m² 9,2 °C 11,1 °C 0,0 km/h (0 Bft)
04.07.2017 03:15 11,1 °C 11,1 °C 88 % 1020,3 hPa 0,0 mm 0,0 km/h (0 Bft) N-NW 344 ° 0 min 0,000 mm 0,0 UV-I 0 W/m² 9,2 °C 11,1 °C 0,0 km/h (0 Bft)
04.07.2017 03:16 11,1 °C 11,1 °C 88 % 1020,3 hPa 0,0 mm 0,0 km/h (0 Bft) N-NW 344 ° 0 min 0,000 mm 0,0 UV-I 0 W/m² 9,2 °C 11,1 °C 0,0 km/h (0 Bft)
04.07.2017 03:17 11,0 °C 11,1 °C 88 % 1020,3 hPa 0,0 mm 0,0 km/h (0 Bft) N-NW 344 ° 0 min 0,000 mm 0,0 UV-I 0 W/m² 9,1 °C 11,0 °C 0,0 km/h (0 Bft)
04.07.2017 03:18 10,9 °C 11,0 °C 89 % 1020,4 hPa 0,0 mm 0,0 km/h (0 Bft) N-NW 344 ° 0 min 0,000 mm 0,0 UV-I 0 W/m² 9,2 °C 10,9 °C 0,0 km/h (0 Bft)
04.07.2017 03:19 10,9 °C 11,0 °C 89 % 1020,4 hPa 0,0 mm 0,0 km/h (0 Bft) N-NW 344 ° 0 min 0,000 mm 0,0 UV-I 0 W/m² 9,2 °C 10,9 °C 0,0 km/h (0 Bft)
04.07.2017 03:20 10,9 °C 10,9 °C 89 % 1020,4 hPa 0,0 mm 1,0 km/h (0 Bft) N-NW 344 ° 0 min 0,000 mm 0,0 UV-I 0 W/m² 9,2 °C 10,9 °C 3,2 km/h (1 Bft)
04.07.2017 03:21 10,9 °C 10,9 °C 88 % 1020,4 hPa 0,0 mm 0,7 km/h (0 Bft) N-NW 344 ° 0 min 0,000 mm 0,0 UV-I 0 W/m² 9,0 °C 10,9 °C 3,2 km/h (1 Bft)
04.07.2017 03:22 10,8 °C 10,9 °C 88 % 1020,4 hPa 0,0 mm 0,0 km/h (0 Bft) N-NW 344 ° 0 min 0,000 mm 0,0 UV-I 0 W/m² 8,9 °C 10,8 °C 0,0 km/h (0 Bft)
04.07.2017 03:23 10,7 °C 10,8 °C 89 % 1020,4 hPa 0,0 mm 0,0 km/h (0 Bft) N-NW 344 ° 0 min 0,000 mm 0,0 UV-I 0 W/m² 9,0 °C 10,7 °C 0,0 km/h (0 Bft)
04.07.2017 03:24 10,7 °C 10,8 °C 89 % 1020,3 hPa 0,0 mm 0,0 km/h (0 Bft) N-NW 344 ° 0 min 0,000 mm 0,0 UV-I 0 W/m² 9,0 °C 10,7 °C 0,0 km/h (0 Bft)
04.07.2017 03:25 10,7 °C 10,7 °C 89 % 1020,3 hPa 0,0 mm 0,0 km/h (0 Bft) N-NW 344 ° 0 min 0,000 mm 0,0 UV-I 0 W/m² 9,0 °C 10,7 °C 0,0 km/h (0 Bft)
04.07.2017 03:26 10,7 °C 10,7 °C 89 % 1020,3 hPa 0,0 mm 0,0 km/h (0 Bft) N-NW 344 ° 0 min 0,000 mm 0,0 UV-I 0 W/m² 9,0 °C 10,7 °C 0,0 km/h (0 Bft)
04.07.2017 03:27 10,7 °C 10,7 °C 89 % 1020,3 hPa 0,0 mm 0,0 km/h (0 Bft) N-NW 344 ° 0 min 0,000 mm 0,0 UV-I 0 W/m² 9,0 °C 10,7 °C 0,0 km/h (0 Bft)
04.07.2017 03:28 10,7 °C 10,7 °C 89 % 1020,3 hPa 0,0 mm 0,0 km/h (0 Bft) N-NW 344 ° 0 min 0,000 mm 0,0 UV-I 0 W/m² 9,0 °C 10,7 °C 0,0 km/h (0 Bft)
04.07.2017 03:29 10,7 °C 10,7 °C 89 % 1020,3 hPa 0,0 mm 0,0 km/h (0 Bft) N-NW 344 ° 0 min 0,000 mm 0,0 UV-I 0 W/m² 9,0 °C 10,7 °C 0,0 km/h (0 Bft)
04.07.2017 03:30 10,6 °C 10,7 °C 89 % 1020,4 hPa 0,0 mm 0,0 km/h (0 Bft) N-NW 344 ° 0 min 0,000 mm 0,0 UV-I 0 W/m² 8,9 °C 10,6 °C 0,0 km/h (0 Bft)
04.07.2017 03:31 10,6 °C 10,7 °C 89 % 1020,4 hPa 0,0 mm 0,0 km/h (0 Bft) N-NW 344 ° 0 min 0,000 mm 0,0 UV-I 0 W/m² 8,9 °C 10,6 °C 0,0 km/h (0 Bft)
04.07.2017 03:32 10,6 °C 10,6 °C 89 % 1020,4 hPa 0,0 mm 0,0 km/h (0 Bft) N-NW 344 ° 0 min 0,000 mm 0,0 UV-I 0 W/m² 8,9 °C 10,6 °C 0,0 km/h (0 Bft)
04.07.2017 03:33 10,5 °C 10,6 °C 89 % 1020,4 hPa 0,0 mm 0,0 km/h (0 Bft) N-NW 344 ° 0 min 0,000 mm 0,0 UV-I 0 W/m² 8,8 °C 10,5 °C 0,0 km/h (0 Bft)
04.07.2017 03:34 10,4 °C 10,5 °C 89 % 1020,4 hPa 0,0 mm 0,0 km/h (0 Bft) N-NW 344 ° 0 min 0,000 mm 0,0 UV-I 0 W/m² 8,7 °C 10,4 °C 0,0 km/h (0 Bft)
04.07.2017 03:35 10,4 °C 10,4 °C 90 % 1020,4 hPa 0,0 mm 0,0 km/h (0 Bft) N-NW 344 ° 0 min 0,000 mm 0,0 UV-I 0 W/m² 8,8 °C 10,4 °C 0,0 km/h (0 Bft)
04.07.2017 03:36 10,3 °C 10,4 °C 90 % 1020,4 hPa 0,0 mm 0,0 km/h (0 Bft) N-NW 344 ° 0 min 0,000 mm 0,0 UV-I 0 W/m² 8,7 °C 10,3 °C 0,0 km/h (0 Bft)
04.07.2017 03:37 10,3 °C 10,3 °C 90 % 1020,4 hPa 0,0 mm 0,0 km/h (0 Bft) N-NW 344 ° 0 min 0,000 mm 0,0 UV-I 0 W/m² 8,7 °C 10,3 °C 0,0 km/h (0 Bft)
04.07.2017 03:38 10,3 °C 10,3 °C 90 % 1020,4 hPa 0,0 mm 0,0 km/h (0 Bft) N-NW 344 ° 0 min 0,000 mm 0,0 UV-I 0 W/m² 8,7 °C 10,3 °C 0,0 km/h (0 Bft)
04.07.2017 03:39 10,2 °C 10,3 °C 90 % 1020,4 hPa 0,0 mm 0,0 km/h (0 Bft) N-NW 344 ° 0 min 0,000 mm 0,0 UV-I 0 W/m² 8,6 °C 10,2 °C 0,0 km/h (0 Bft)
04.07.2017 03:40 10,2 °C 10,2 °C 90 % 1020,4 hPa 0,0 mm 0,0 km/h (0 Bft) N-NW 344 ° 0 min 0,000 mm 0,0 UV-I 0 W/m² 8,6 °C 10,2 °C 0,0 km/h (0 Bft)
04.07.2017 03:41 10,2 °C 10,2 °C 90 % 1020,4 hPa 0,0 mm 0,0 km/h (0 Bft) N-NW 344 ° 0 min 0,000 mm 0,0 UV-I 0 W/m² 8,6 °C 10,2 °C 0,0 km/h (0 Bft)
04.07.2017 03:42 10,2 °C 10,2 °C 91 % 1020,4 hPa 0,0 mm 0,0 km/h (0 Bft) N-NW 344 ° 0 min 0,000 mm 0,0 UV-I 0 W/m² 8,8 °C 10,2 °C 0,0 km/h (0 Bft)
04.07.2017 03:43 10,2 °C 10,2 °C 91 % 1020,4 hPa 0,0 mm 0,0 km/h (0 Bft) N-NW 344 ° 0 min 0,000 mm 0,0 UV-I 0 W/m² 8,8 °C 10,2 °C 0,0 km/h (0 Bft)
04.07.2017 03:44 10,2 °C 10,2 °C 91 % 1020,4 hPa 0,0 mm 0,0 km/h (0 Bft) N-NW 344 ° 0 min 0,000 mm 0,0 UV-I 0 W/m² 8,8 °C 10,2 °C 0,0 km/h (0 Bft)
04.07.2017 03:45 10,2 °C 10,2 °C 91 % 1020,4 hPa 0,0 mm 0,0 km/h (0 Bft) N-NW 344 ° 0 min 0,000 mm 0,0 UV-I 0 W/m² 8,8 °C 10,2 °C 0,0 km/h (0 Bft)
04.07.2017 03:46 10,1 °C 10,2 °C 91 % 1020,4 hPa 0,0 mm 0,0 km/h (0 Bft) N-NW 344 ° 0 min 0,000 mm 0,0 UV-I 0 W/m² 8,7 °C 10,1 °C 0,0 km/h (0 Bft)
04.07.2017 03:47 10,1 °C 10,1 °C 91 % 1020,4 hPa 0,0 mm 0,0 km/h (0 Bft) N-NW 344 ° 0 min 0,000 mm 0,0 UV-I 0 W/m² 8,7 °C 10,1 °C 0,0 km/h (0 Bft)
04.07.2017 03:48 10,1 °C 10,1 °C 91 % 1020,4 hPa 0,0 mm 0,0 km/h (0 Bft) N-NW 344 ° 0 min 0,000 mm 0,0 UV-I 0 W/m² 8,7 °C 10,1 °C 0,0 km/h (0 Bft)
04.07.2017 03:49 10,0 °C 10,1 °C 91 % 1020,4 hPa 0,0 mm 0,0 km/h (0 Bft) N-NW 344 ° 0 min 0,000 mm 0,0 UV-I 0 W/m² 8,6 °C 10,0 °C 0,0 km/h (0 Bft)
04.07.2017 03:50 9,9 °C 10,0 °C 91 % 1020,5 hPa 0,0 mm 0,0 km/h (0 Bft) N-NW 344 ° 0 min 0,000 mm 0,0 UV-I 0 W/m² 8,5 °C 9,9 °C 0,0 km/h (0 Bft)
04.07.2017 03:51 9,9 °C 9,9 °C 91 % 1020,5 hPa 0,0 mm 0,0 km/h (0 Bft) N-NW 344 ° 0 min 0,000 mm 0,0 UV-I 0 W/m² 8,5 °C 9,9 °C 0,0 km/h (0 Bft)
04.07.2017 03:52 9,9 °C 9,9 °C 91 % 1020,5 hPa 0,0 mm 0,0 km/h (0 Bft) N-NW 344 ° 0 min 0,000 mm 0,0 UV-I 0 W/m² 8,5 °C 9,9 °C 0,0 km/h (0 Bft)
04.07.2017 03:53 9,9 °C 9,9 °C 91 % 1020,5 hPa 0,0 mm 0,0 km/h (0 Bft) N-NW 344 ° 0 min 0,000 mm 0,0 UV-I 0 W/m² 8,5 °C 9,9 °C 0,0 km/h (0 Bft)
04.07.2017 03:54 9,9 °C 9,9 °C 91 % 1020,5 hPa 0,0 mm 0,0 km/h (0 Bft) N-NW 344 ° 0 min 0,000 mm 0,0 UV-I 0 W/m² 8,5 °C 9,9 °C 0,0 km/h (0 Bft)
04.07.2017 03:55 9,9 °C 9,9 °C 91 % 1020,5 hPa 0,0 mm 0,0 km/h (0 Bft) N-NW 344 ° 0 min 0,000 mm 0,0 UV-I 0 W/m² 8,5 °C 9,9 °C 0,0 km/h (0 Bft)
04.07.2017 03:56 9,9 °C 9,9 °C 91 % 1020,5 hPa 0,0 mm 0,0 km/h (0 Bft) N-NW 344 ° 0 min 0,000 mm 0,0 UV-I 0 W/m² 8,5 °C 9,9 °C 0,0 km/h (0 Bft)
04.07.2017 03:57 9,9 °C 9,9 °C 91 % 1020,4 hPa 0,0 mm 0,0 km/h (0 Bft) N-NW 344 ° 0 min 0,000 mm 0,0 UV-I 0 W/m² 8,5 °C 9,9 °C 0,0 km/h (0 Bft)
04.07.2017 03:58 9,9 °C 9,9 °C 91 % 1020,4 hPa 0,0 mm 0,0 km/h (0 Bft) N-NW 344 ° 0 min 0,000 mm 0,0 UV-I 0 W/m² 8,5 °C 9,9 °C 0,0 km/h (0 Bft)
04.07.2017 03:59 9,9 °C 9,9 °C 91 % 1020,5 hPa 0,0 mm 0,0 km/h (0 Bft) N-NW 344 ° 0 min 0,000 mm 0,0 UV-I 0 W/m² 8,5 °C 9,9 °C 0,0 km/h (0 Bft)
04.07.2017 04:00 9,9 °C 9,9 °C 91 % 1020,4 hPa 0,0 mm 0,0 km/h (0 Bft) N-NW 344 ° 0 min 0,000 mm 0,0 UV-I 0 W/m² 8,5 °C 9,9 °C 0,0 km/h (0 Bft)
04.07.2017 04:01 9,9 °C 9,9 °C 91 % 1020,4 hPa 0,0 mm 0,0 km/h (0 Bft) N-NW 344 ° 0 min 0,000 mm 0,0 UV-I 0 W/m² 8,5 °C 9,9 °C 0,0 km/h (0 Bft)
04.07.2017 04:02 9,9 °C 9,9 °C 91 % 1020,4 hPa 0,0 mm 0,0 km/h (0 Bft) N-NW 344 ° 0 min 0,000 mm 0,0 UV-I 0 W/m² 8,5 °C 9,9 °C 0,0 km/h (0 Bft)
04.07.2017 04:03 9,9 °C 9,9 °C 91 % 1020,5 hPa 0,0 mm 0,0 km/h (0 Bft) N-NW 344 ° 0 min 0,000 mm 0,0 UV-I 0 W/m² 8,5 °C 9,9 °C 0,0 km/h (0 Bft)
04.07.2017 04:04 9,9 °C 9,9 °C 91 % 1020,5 hPa 0,0 mm 0,0 km/h (0 Bft) N-NW 344 ° 0 min 0,000 mm 0,0 UV-I 0 W/m² 8,5 °C 9,9 °C 0,0 km/h (0 Bft)
04.07.2017 04:05 9,9 °C 9,9 °C 91 % 1020,4 hPa 0,0 mm 0,0 km/h (0 Bft) N-NW 344 ° 0 min 0,000 mm 0,0 UV-I 0 W/m² 8,5 °C 9,9 °C 0,0 km/h (0 Bft)
04.07.2017 04:06 9,9 °C 9,9 °C 91 % 1020,5 hPa 0,0 mm 0,0 km/h (0 Bft) N-NW 344 ° 0 min 0,000 mm 0,0 UV-I 0 W/m² 8,5 °C 9,9 °C 0,0 km/h (0 Bft)
04.07.2017 04:07 9,8 °C 9,9 °C 92 % 1020,5 hPa 0,0 mm 0,0 km/h (0 Bft) N-NW 344 ° 0 min 0,000 mm 0,0 UV-I 0 W/m² 8,6 °C 9,8 °C 0,0 km/h (0 Bft)
04.07.2017 04:08 9,8 °C 9,8 °C 92 % 1020,4 hPa 0,0 mm 0,0 km/h (0 Bft) N-NW 344 ° 0 min 0,000 mm 0,0 UV-I 0 W/m² 8,6 °C 9,8 °C 0,0 km/h (0 Bft)
04.07.2017 04:09 9,9 °C 9,9 °C 92 % 1020,5 hPa 0,0 mm 0,0 km/h (0 Bft) N-NW 344 ° 0 min 0,000 mm 0,0 UV-I 0 W/m² 8,7 °C 9,9 °C 0,0 km/h (0 Bft)
04.07.2017 04:10 9,8 °C 9,9 °C 92 % 1020,5 hPa 0,0 mm 0,0 km/h (0 Bft) N-NW 344 ° 0 min 0,000 mm 0,0 UV-I 0 W/m² 8,6 °C 9,8 °C 0,0 km/h (0 Bft)
04.07.2017 04:11 9,8 °C 9,8 °C 92 % 1020,5 hPa 0,0 mm 0,0 km/h (0 Bft) N-NW 344 ° 0 min 0,000 mm 0,0 UV-I 0 W/m² 8,6 °C 9,8 °C 0,0 km/h (0 Bft)
04.07.2017 04:12 9,8 °C 9,8 °C 91 % 1020,5 hPa 0,0 mm 0,0 km/h (0 Bft) N-NW 344 ° 0 min 0,000 mm 0,0 UV-I 0 W/m² 8,4 °C 9,8 °C 0,0 km/h (0 Bft)
04.07.2017 04:13 9,8 °C 9,8 °C 92 % 1020,5 hPa 0,0 mm 0,0 km/h (0 Bft) N-NW 344 ° 0 min 0,000 mm 0,0 UV-I 0 W/m² 8,6 °C 9,8 °C 0,0 km/h (0 Bft)
04.07.2017 04:14 9,7 °C 9,8 °C 92 % 1020,5 hPa 0,0 mm 0,0 km/h (0 Bft) N-NW 344 ° 0 min 0,000 mm 0,0 UV-I 0 W/m² 8,5 °C 9,7 °C 0,0 km/h (0 Bft)
04.07.2017 04:15 9,8 °C 9,8 °C 92 % 1020,5 hPa 0,0 mm 0,0 km/h (0 Bft) N-NW 344 ° 0 min 0,000 mm 0,0 UV-I 0 W/m² 8,6 °C 9,8 °C 0,0 km/h (0 Bft)
04.07.2017 04:16 9,7 °C 9,8 °C 92 % 1020,5 hPa 0,0 mm 0,0 km/h (0 Bft) N-NW 344 ° 0 min 0,000 mm 0,0 UV-I 0 W/m² 8,5 °C 9,7 °C 0,0 km/h (0 Bft)
04.07.2017 04:17 9,7 °C 9,7 °C 92 % 1020,5 hPa 0,0 mm 0,0 km/h (0 Bft) N-NW 344 ° 0 min 0,000 mm 0,0 UV-I 0 W/m² 8,5 °C 9,7 °C 0,0 km/h (0 Bft)
04.07.2017 04:18 9,7 °C 9,7 °C 92 % 1020,5 hPa 0,0 mm 0,0 km/h (0 Bft) N-NW 344 ° 0 min 0,000 mm 0,0 UV-I 0 W/m² 8,5 °C 9,7 °C 0,0 km/h (0 Bft)
04.07.2017 04:19 9,7 °C 9,7 °C 92 % 1020,5 hPa 0,0 mm 0,0 km/h (0 Bft) N-NW 344 ° 0 min 0,000 mm 0,0 UV-I 0 W/m² 8,5 °C 9,7 °C 0,0 km/h (0 Bft)
04.07.2017 04:20 9,7 °C 9,7 °C 92 % 1020,6 hPa 0,0 mm 0,0 km/h (0 Bft) N-NW 344 ° 0 min 0,000 mm 0,0 UV-I 0 W/m² 8,5 °C 9,7 °C 0,0 km/h (0 Bft)
04.07.2017 04:21 9,7 °C 9,7 °C 92 % 1020,5 hPa 0,0 mm 0,0 km/h (0 Bft) N-NW 344 ° 0 min 0,000 mm 0,0 UV-I 0 W/m² 8,5 °C 9,7 °C 0,0 km/h (0 Bft)
04.07.2017 04:22 9,7 °C 9,7 °C 92 % 1020,5 hPa 0,0 mm 0,0 km/h (0 Bft) N-NW 344 ° 0 min 0,000 mm 0,0 UV-I 0 W/m² 8,5 °C 9,7 °C 0,0 km/h (0 Bft)
04.07.2017 04:23 9,7 °C 9,7 °C 92 % 1020,5 hPa 0,0 mm 0,0 km/h (0 Bft) N-NW 344 ° 0 min 0,000 mm 0,0 UV-I 0 W/m² 8,5 °C 9,7 °C 0,0 km/h (0 Bft)
04.07.2017 04:24 9,7 °C 9,7 °C 92 % 1020,6 hPa 0,0 mm 0,0 km/h (0 Bft) N-NW 344 ° 0 min 0,000 mm 0,0 UV-I 0 W/m² 8,5 °C 9,7 °C 0,0 km/h (0 Bft)
04.07.2017 04:25 9,7 °C 9,7 °C 92 % 1020,5 hPa 0,0 mm 0,0 km/h (0 Bft) N-NW 344 ° 0 min 0,000 mm 0,0 UV-I 0 W/m² 8,5 °C 9,7 °C 0,0 km/h (0 Bft)
04.07.2017 04:26 9,7 °C 9,8 °C 92 % 1020,6 hPa 0,0 mm 0,0 km/h (0 Bft) N-NW 344 ° 0 min 0,000 mm 0,0 UV-I 0 W/m² 8,5 °C 9,7 °C 0,0 km/h (0 Bft)
04.07.2017 04:27 9,7 °C 9,7 °C 92 % 1020,6 hPa 0,0 mm 0,0 km/h (0 Bft) N-NW 344 ° 0 min 0,000 mm 0,0 UV-I 0 W/m² 8,5 °C 9,7 °C 0,0 km/h (0 Bft)
04.07.2017 04:28 9,7 °C 9,7 °C 92 % 1020,6 hPa 0,0 mm 0,0 km/h (0 Bft) N-NW 344 ° 0 min 0,000 mm 0,0 UV-I 0 W/m² 8,5 °C 9,7 °C 0,0 km/h (0 Bft)
04.07.2017 04:29 9,7 °C 9,8 °C 92 % 1020,6 hPa 0,0 mm 0,0 km/h (0 Bft) N-NW 344 ° 0 min 0,000 mm 0,0 UV-I 0 W/m² 8,5 °C 9,7 °C 0,0 km/h (0 Bft)
04.07.2017 04:30 9,7 °C 9,8 °C 92 % 1020,6 hPa 0,0 mm 0,0 km/h (0 Bft) N-NW 344 ° 0 min 0,000 mm 0,0 UV-I 0 W/m² 8,5 °C 9,7 °C 0,0 km/h (0 Bft)
04.07.2017 04:31 9,7 °C 9,7 °C 92 % 1020,6 hPa 0,0 mm 0,0 km/h (0 Bft) N-NW 344 ° 0 min 0,000 mm 0,0 UV-I 0 W/m² 8,5 °C 9,7 °C 0,0 km/h (0 Bft)
04.07.2017 04:32 9,7 °C 9,7 °C 92 % 1020,5 hPa 0,0 mm 0,0 km/h (0 Bft) N-NW 344 ° 0 min 0,000 mm 0,0 UV-I 0 W/m² 8,5 °C 9,7 °C 0,0 km/h (0 Bft)
04.07.2017 04:33 9,7 °C 9,7 °C 92 % 1020,5 hPa 0,0 mm 0,0 km/h (0 Bft) N-NW 344 ° 0 min 0,000 mm 0,0 UV-I 0 W/m² 8,5 °C 9,7 °C 0,0 km/h (0 Bft)
04.07.2017 04:34 9,6 °C 9,7 °C 92 % 1020,5 hPa 0,0 mm 0,0 km/h (0 Bft) N-NW 344 ° 0 min 0,000 mm 0,0 UV-I 0 W/m² 8,4 °C 9,6 °C 0,0 km/h (0 Bft)
04.07.2017 04:35 9,6 °C 9,6 °C 92 % 1020,5 hPa 0,0 mm 0,0 km/h (0 Bft) N-NW 344 ° 0 min 0,000 mm 0,0 UV-I 0 W/m² 8,4 °C 9,6 °C 0,0 km/h (0 Bft)
04.07.2017 04:36 9,6 °C 9,6 °C 92 % 1020,5 hPa 0,0 mm 0,0 km/h (0 Bft) N-NW 344 ° 0 min 0,000 mm 0,0 UV-I 0 W/m² 8,4 °C 9,6 °C 0,0 km/h (0 Bft)
04.07.2017 04:37 9,6 °C 9,6 °C 92 % 1020,5 hPa 0,0 mm 0,0 km/h (0 Bft) N-NW 344 ° 0 min 0,000 mm 0,0 UV-I 0 W/m² 8,4 °C 9,6 °C 0,0 km/h (0 Bft)
04.07.2017 04:38 9,6 °C 9,6 °C 92 % 1020,5 hPa 0,0 mm 0,0 km/h (0 Bft) N-NW 344 ° 0 min 0,000 mm 0,0 UV-I 0 W/m² 8,4 °C 9,6 °C 0,0 km/h (0 Bft)
04.07.2017 04:39 9,6 °C 9,6 °C 92 % 1020,5 hPa 0,0 mm 0,0 km/h (0 Bft) N-NW 344 ° 0 min 0,000 mm 0,0 UV-I 0 W/m² 8,4 °C 9,6 °C 0,0 km/h (0 Bft)
04.07.2017 04:40 9,6 °C 9,6 °C 92 % 1020,5 hPa 0,0 mm 0,0 km/h (0 Bft) N-NW 344 ° 0 min 0,000 mm 0,0 UV-I 0 W/m² 8,4 °C 9,6 °C 0,0 km/h (0 Bft)
04.07.2017 04:41 9,5 °C 9,6 °C 92 % 1020,5 hPa 0,0 mm 0,0 km/h (0 Bft) N-NW 344 ° 0 min 0,000 mm 0,0 UV-I 0 W/m² 8,3 °C 9,5 °C 0,0 km/h (0 Bft)
04.07.2017 04:42 9,4 °C 9,5 °C 92 % 1020,5 hPa 0,0 mm 0,0 km/h (0 Bft) N-NW 344 ° 0 min 0,000 mm 0,0 UV-I 0 W/m² 8,2 °C 9,4 °C 0,0 km/h (0 Bft)
04.07.2017 04:43 9,4 °C 9,4 °C 92 % 1020,5 hPa 0,0 mm 0,0 km/h (0 Bft) N-NW 344 ° 0 min 0,000 mm 0,0 UV-I 0 W/m² 8,2 °C 9,4 °C 0,0 km/h (0 Bft)
04.07.2017 04:44 9,4 °C 9,4 °C 92 % 1020,5 hPa 0,0 mm 0,0 km/h (0 Bft) N-NW 344 ° 0 min 0,000 mm 0,0 UV-I 0 W/m² 8,2 °C 9,4 °C 0,0 km/h (0 Bft)
04.07.2017 04:45 9,4 °C 9,4 °C 93 % 1020,6 hPa 0,0 mm 0,0 km/h (0 Bft) N-NW 344 ° 0 min 0,000 mm 0,0 UV-I 0 W/m² 8,3 °C 9,4 °C 0,0 km/h (0 Bft)
04.07.2017 04:46 9,4 °C 9,4 °C 93 % 1020,5 hPa 0,0 mm 0,0 km/h (0 Bft) N-NW 344 ° 0 min 0,000 mm 0,0 UV-I 0 W/m² 8,3 °C 9,4 °C 0,0 km/h (0 Bft)
04.07.2017 04:47 9,4 °C 9,4 °C 93 % 1020,5 hPa 0,0 mm 0,0 km/h (0 Bft) N-NW 344 ° 0 min 0,000 mm 0,0 UV-I 0 W/m² 8,3 °C 9,4 °C 0,0 km/h (0 Bft)
04.07.2017 04:48 9,4 °C 9,4 °C 93 % 1020,6 hPa 0,0 mm 0,0 km/h (0 Bft) N-NW 344 ° 0 min 0,000 mm 0,0 UV-I 0 W/m² 8,3 °C 9,4 °C 0,0 km/h (0 Bft)
04.07.2017 04:49 9,3 °C 9,4 °C 93 % 1020,5 hPa 0,0 mm 0,0 km/h (0 Bft) N-NW 344 ° 0 min 0,000 mm 0,0 UV-I 0 W/m² 8,2 °C 9,3 °C 0,0 km/h (0 Bft)
04.07.2017 04:50 9,3 °C 9,3 °C 93 % 1020,6 hPa 0,0 mm 0,0 km/h (0 Bft) N-NW 344 ° 0 min 0,000 mm 0,0 UV-I 0 W/m² 8,2 °C 9,3 °C 0,0 km/h (0 Bft)
04.07.2017 04:51 9,3 °C 9,3 °C 93 % 1020,6 hPa 0,0 mm 0,0 km/h (0 Bft) N-NW 344 ° 0 min 0,000 mm 0,0 UV-I 0 W/m² 8,2 °C 9,3 °C 0,0 km/h (0 Bft)
04.07.2017 04:52 9,3 °C 9,3 °C 93 % 1020,5 hPa 0,0 mm 0,0 km/h (0 Bft) N-NW 344 ° 0 min 0,000 mm 0,0 UV-I 0 W/m² 8,2 °C 9,3 °C 0,0 km/h (0 Bft)
04.07.2017 04:53 9,3 °C 9,3 °C 93 % 1020,5 hPa 0,0 mm 0,0 km/h (0 Bft) N-NW 344 ° 0 min 0,000 mm 0,0 UV-I 0 W/m² 8,2 °C 9,3 °C 0,0 km/h (0 Bft)
04.07.2017 04:54 9,3 °C 9,3 °C 93 % 1020,6 hPa 0,0 mm 0,0 km/h (0 Bft) N-NW 344 ° 0 min 0,000 mm 0,0 UV-I 0 W/m² 8,2 °C 9,3 °C 0,0 km/h (0 Bft)
04.07.2017 04:55 9,3 °C 9,3 °C 93 % 1020,6 hPa 0,0 mm 0,0 km/h (0 Bft) N-NW 344 ° 0 min 0,000 mm 0,0 UV-I 0 W/m² 8,2 °C 9,3 °C 0,0 km/h (0 Bft)
04.07.2017 04:56 9,3 °C 9,3 °C 93 % 1020,6 hPa 0,0 mm 0,0 km/h (0 Bft) N-NW 344 ° 0 min 0,000 mm 0,0 UV-I 0 W/m² 8,2 °C 9,3 °C 0,0 km/h (0 Bft)
04.07.2017 04:57 9,2 °C 9,3 °C 93 % 1020,6 hPa 0,0 mm 0,0 km/h (0 Bft) N-NW 344 ° 0 min 0,000 mm 0,0 UV-I 0 W/m² 8,1 °C 9,2 °C 0,0 km/h (0 Bft)
04.07.2017 04:58 9,2 °C 9,2 °C 93 % 1020,6 hPa 0,0 mm 0,0 km/h (0 Bft) N-NW 344 ° 0 min 0,000 mm 0,0 UV-I 0 W/m² 8,1 °C 9,2 °C 0,0 km/h (0 Bft)
04.07.2017 04:59 9,2 °C 9,2 °C 93 % 1020,6 hPa 0,0 mm 0,0 km/h (0 Bft) N-NW 344 ° 0 min 0,000 mm 0,0 UV-I 0 W/m² 8,1 °C 9,2 °C 0,0 km/h (0 Bft)
04.07.2017 05:00 9,2 °C 9,2 °C 93 % 1020,6 hPa 0,0 mm 0,0 km/h (0 Bft) N-NW 344 ° 0 min 0,000 mm 0,0 UV-I 0 W/m² 8,1 °C 9,2 °C 0,0 km/h (0 Bft)
04.07.2017 05:01 9,2 °C 9,2 °C 93 % 1020,6 hPa 0,0 mm 0,0 km/h (0 Bft) N-NW 344 ° 0 min 0,000 mm 0,0 UV-I 0 W/m² 8,1 °C 9,2 °C 0,0 km/h (0 Bft)
04.07.2017 05:02 9,2 °C 9,2 °C 93 % 1020,6 hPa 0,0 mm 0,0 km/h (0 Bft) N-NW 344 ° 0 min 0,000 mm 0,0 UV-I 0 W/m² 8,1 °C 9,2 °C 0,0 km/h (0 Bft)
04.07.2017 05:03 9,2 °C 9,2 °C 93 % 1020,6 hPa 0,0 mm 0,0 km/h (0 Bft) N-NW 344 ° 0 min 0,000 mm 0,0 UV-I 0 W/m² 8,1 °C 9,2 °C 0,0 km/h (0 Bft)
04.07.2017 05:04 9,2 °C 9,2 °C 93 % 1020,6 hPa 0,0 mm 0,0 km/h (0 Bft) N-NW 344 ° 0 min 0,000 mm 0,0 UV-I 0 W/m² 8,1 °C 9,2 °C 0,0 km/h (0 Bft)
04.07.2017 05:05 9,2 °C 9,2 °C 93 % 1020,6 hPa 0,0 mm 0,0 km/h (0 Bft) N-NW 344 ° 0 min 0,000 mm 0,0 UV-I 0 W/m² 8,1 °C 9,2 °C 0,0 km/h (0 Bft)
04.07.2017 05:06 9,2 °C 9,2 °C 93 % 1020,6 hPa 0,0 mm 0,0 km/h (0 Bft) N-NW 344 ° 0 min 0,000 mm 0,0 UV-I 0 W/m² 8,1 °C 9,2 °C 0,0 km/h (0 Bft)
04.07.2017 05:07 9,2 °C 9,2 °C 93 % 1020,7 hPa 0,0 mm 0,0 km/h (0 Bft) N-NW 344 ° 0 min 0,000 mm 0,0 UV-I 0 W/m² 8,1 °C 9,2 °C 0,0 km/h (0 Bft)
04.07.2017 05:08 9,1 °C 9,2 °C 93 % 1020,7 hPa 0,0 mm 0,0 km/h (0 Bft) N-NW 344 ° 0 min 0,000 mm 0,0 UV-I 0 W/m² 8,0 °C 9,1 °C 0,0 km/h (0 Bft)
04.07.2017 05:09 9,1 °C 9,1 °C 93 % 1020,7 hPa 0,0 mm 0,0 km/h (0 Bft) N-NW 344 ° 0 min 0,000 mm 0,0 UV-I 0 W/m² 8,0 °C 9,1 °C 0,0 km/h (0 Bft)
04.07.2017 05:10 9,1 °C 9,1 °C 93 % 1020,7 hPa 0,0 mm 0,0 km/h (0 Bft) N-NW 344 ° 0 min 0,000 mm 0,0 UV-I 0 W/m² 8,0 °C 9,1 °C 0,0 km/h (0 Bft)
04.07.2017 05:11 9,1 °C 9,1 °C 93 % 1020,7 hPa 0,0 mm 0,0 km/h (0 Bft) N-NW 344 ° 0 min 0,000 mm 0,0 UV-I 0 W/m² 8,0 °C 9,1 °C 0,0 km/h (0 Bft)
04.07.2017 05:12 9,1 °C 9,1 °C 93 % 1020,7 hPa 0,0 mm 0,0 km/h (0 Bft) N-NW 344 ° 0 min 0,000 mm 0,0 UV-I 0 W/m² 8,0 °C 9,1 °C 0,0 km/h (0 Bft)
04.07.2017 05:14 9,1 °C 9,1 °C 94 % 1020,7 hPa 0,0 mm 0,0 km/h (0 Bft) N-NW 344 ° 0 min 0,000 mm 0,0 UV-I 0 W/m² 8,2 °C 9,1 °C 0,0 km/h (0 Bft)
04.07.2017 05:15 9,1 °C 9,1 °C 94 % 1020,7 hPa 0,0 mm 0,0 km/h (0 Bft) N-NW 344 ° 0 min 0,000 mm 0,0 UV-I 0 W/m² 8,2 °C 9,1 °C 0,0 km/h (0 Bft)
04.07.2017 05:16 9,1 °C 9,1 °C 94 % 1020,7 hPa 0,0 mm 0,0 km/h (0 Bft) N-NW 344 ° 0 min 0,000 mm 0,0 UV-I 0 W/m² 8,2 °C 9,1 °C 0,0 km/h (0 Bft)
04.07.2017 05:17 9,1 °C 9,1 °C 94 % 1020,7 hPa 0,0 mm 0,0 km/h (0 Bft) N-NW 344 ° 0 min 0,000 mm 0,0 UV-I 0 W/m² 8,2 °C 9,1 °C 0,0 km/h (0 Bft)
04.07.2017 05:18 9,1 °C 9,1 °C 94 % 1020,7 hPa 0,0 mm 0,0 km/h (0 Bft) N-NW 344 ° 0 min 0,000 mm 0,0 UV-I 0 W/m² 8,2 °C 9,1 °C 0,0 km/h (0 Bft)
04.07.2017 05:19 9,1 °C 9,1 °C 94 % 1020,7 hPa 0,0 mm 0,0 km/h (0 Bft) N-NW 344 ° 0 min 0,000 mm 0,0 UV-I 0 W/m² 8,2 °C 9,1 °C 0,0 km/h (0 Bft)
04.07.2017 05:20 9,1 °C 9,1 °C 94 % 1020,7 hPa 0,0 mm 0,0 km/h (0 Bft) N-NW 344 ° 0 min 0,000 mm 0,0 UV-I 0 W/m² 8,2 °C 9,1 °C 0,0 km/h (0 Bft)
04.07.2017 05:21 9,1 °C 9,1 °C 94 % 1020,7 hPa 0,0 mm 0,0 km/h (0 Bft) N-NW 344 ° 0 min 0,000 mm 0,0 UV-I 0 W/m² 8,2 °C 9,1 °C 0,0 km/h (0 Bft)
04.07.2017 05:22 9,1 °C 9,1 °C 94 % 1020,7 hPa 0,0 mm 0,0 km/h (0 Bft) N-NW 344 ° 0 min 0,000 mm 0,0 UV-I 0 W/m² 8,2 °C 9,1 °C 0,0 km/h (0 Bft)
04.07.2017 05:23 9,1 °C 9,1 °C 93 % 1020,7 hPa 0,0 mm 0,0 km/h (0 Bft) N-NW 344 ° 0 min 0,000 mm 0,0 UV-I 0 W/m² 8,0 °C 9,1 °C 0,0 km/h (0 Bft)
04.07.2017 05:24 9,0 °C 9,1 °C 94 % 1020,7 hPa 0,0 mm 0,0 km/h (0 Bft) N-NW 344 ° 0 min 0,000 mm 0,0 UV-I 0 W/m² 8,1 °C 9,0 °C 0,0 km/h (0 Bft)
04.07.2017 05:25 9,0 °C 9,1 °C 94 % 1020,7 hPa 0,0 mm 0,0 km/h (0 Bft) N-NW 344 ° 0 min 0,000 mm 0,0 UV-I 0 W/m² 8,1 °C 9,0 °C 0,0 km/h (0 Bft)
04.07.2017 05:26 9,1 °C 9,1 °C 94 % 1020,7 hPa 0,0 mm 0,0 km/h (0 Bft) N-NW 344 ° 0 min 0,000 mm 0,0 UV-I 0 W/m² 8,2 °C 9,1 °C 0,0 km/h (0 Bft)
04.07.2017 05:27 9,1 °C 9,1 °C 94 % 1020,7 hPa 0,0 mm 0,0 km/h (0 Bft) N-NW 344 ° 0 min 0,000 mm 0,0 UV-I 0 W/m² 8,2 °C 9,1 °C 0,0 km/h (0 Bft)
04.07.2017 05:28 9,1 °C 9,1 °C 94 % 1020,7 hPa 0,0 mm 0,0 km/h (0 Bft) N-NW 344 ° 0 min 0,000 mm 0,0 UV-I 5 W/m² 8,2 °C 9,1 °C 0,0 km/h (0 Bft)
04.07.2017 05:29 9,1 °C 9,1 °C 94 % 1020,7 hPa 0,0 mm 0,0 km/h (0 Bft) N-NW 344 ° 0 min 0,000 mm 0,0 UV-I 5 W/m² 8,2 °C 9,1 °C 0,0 km/h (0 Bft)
04.07.2017 05:30 9,1 °C 9,1 °C 94 % 1020,7 hPa 0,0 mm 0,0 km/h (0 Bft) N-NW 344 ° 0 min 0,000 mm 0,0 UV-I 5 W/m² 8,2 °C 9,1 °C 0,0 km/h (0 Bft)
04.07.2017 05:31 9,1 °C 9,1 °C 94 % 1020,7 hPa 0,0 mm 0,0 km/h (0 Bft) N-NW 344 ° 0 min 0,000 mm 0,0 UV-I 5 W/m² 8,2 °C 9,1 °C 0,0 km/h (0 Bft)
04.07.2017 05:32 9,1 °C 9,1 °C 94 % 1020,7 hPa 0,0 mm 0,0 km/h (0 Bft) N-NW 344 ° 0 min 0,000 mm 0,0 UV-I 5 W/m² 8,2 °C 9,1 °C 0,0 km/h (0 Bft)
04.07.2017 05:33 9,0 °C 9,1 °C 94 % 1020,7 hPa 0,0 mm 0,0 km/h (0 Bft) N-NW 344 ° 0 min 0,000 mm 0,0 UV-I 5 W/m² 8,1 °C 9,0 °C 0,0 km/h (0 Bft)
04.07.2017 05:34 9,0 °C 9,0 °C 93 % 1020,7 hPa 0,0 mm 0,0 km/h (0 Bft) N-NW 344 ° 0 min 0,000 mm 0,0 UV-I 5 W/m² 7,9 °C 9,0 °C 0,0 km/h (0 Bft)
04.07.2017 05:35 9,0 °C 9,1 °C 94 % 1020,7 hPa 0,0 mm 0,0 km/h (0 Bft) N-NW 344 ° 0 min 0,000 mm 0,0 UV-I 5 W/m² 8,1 °C 9,0 °C 0,0 km/h (0 Bft)
04.07.2017 05:36 9,0 °C 9,1 °C 94 % 1020,7 hPa 0,0 mm 0,0 km/h (0 Bft) N-NW 344 ° 0 min 0,000 mm 0,0 UV-I 5 W/m² 8,1 °C 9,0 °C 0,0 km/h (0 Bft)
04.07.2017 05:37 9,1 °C 9,1 °C 94 % 1020,7 hPa 0,0 mm 0,0 km/h (0 Bft) N-NW 344 ° 0 min 0,000 mm 0,0 UV-I 7 W/m² 8,2 °C 9,1 °C 0,0 km/h (0 Bft)
04.07.2017 05:38 9,1 °C 9,1 °C 94 % 1020,8 hPa 0,0 mm 0,0 km/h (0 Bft) N-NW 344 ° 0 min 0,000 mm 0,0 UV-I 7 W/m² 8,2 °C 9,1 °C 0,0 km/h (0 Bft)
04.07.2017 05:39 9,0 °C 9,1 °C 94 % 1020,7 hPa 0,0 mm 0,0 km/h (0 Bft) N-NW 344 ° 0 min 0,000 mm 0,0 UV-I 7 W/m² 8,1 °C 9,0 °C 0,0 km/h (0 Bft)
04.07.2017 05:40 9,0 °C 9,0 °C 94 % 1020,8 hPa 0,0 mm 0,0 km/h (0 Bft) N-NW 344 ° 0 min 0,000 mm 0,0 UV-I 9 W/m² 8,1 °C 9,0 °C 0,0 km/h (0 Bft)
04.07.2017 05:41 8,9 °C 9,0 °C 94 % 1020,8 hPa 0,0 mm 0,0 km/h (0 Bft) N-NW 344 ° 0 min 0,000 mm 0,0 UV-I 9 W/m² 8,0 °C 8,9 °C 0,0 km/h (0 Bft)
04.07.2017 05:42 9,0 °C 9,0 °C 94 % 1020,8 hPa 0,0 mm 0,0 km/h (0 Bft) N-NW 344 ° 0 min 0,000 mm 0,0 UV-I 11 W/m² 8,1 °C 9,0 °C 0,0 km/h (0 Bft)
04.07.2017 05:43 9,1 °C 9,1 °C 94 % 1020,8 hPa 0,0 mm 0,0 km/h (0 Bft) N-NW 344 ° 0 min 0,000 mm 0,0 UV-I 11 W/m² 8,2 °C 9,1 °C 0,0 km/h (0 Bft)
04.07.2017 05:44 9,0 °C 9,1 °C 94 % 1020,8 hPa 0,0 mm 0,0 km/h (0 Bft) N-NW 344 ° 0 min 0,000 mm 0,0 UV-I 12 W/m² 8,1 °C 9,0 °C 0,0 km/h (0 Bft)
04.07.2017 05:45 9,0 °C 9,0 °C 94 % 1020,8 hPa 0,0 mm 0,0 km/h (0 Bft) N-NW 344 ° 0 min 0,000 mm 0,0 UV-I 12 W/m² 8,1 °C 9,0 °C 0,0 km/h (0 Bft)
04.07.2017 05:46 9,0 °C 9,0 °C 94 % 1020,8 hPa 0,0 mm 0,0 km/h (0 Bft) N-NW 344 ° 0 min 0,000 mm 0,0 UV-I 14 W/m² 8,1 °C 9,0 °C 0,0 km/h (0 Bft)
04.07.2017 05:47 9,0 °C 9,0 °C 94 % 1020,8 hPa 0,0 mm 0,0 km/h (0 Bft) N-NW 344 ° 0 min 0,000 mm 0,0 UV-I 14 W/m² 8,1 °C 9,0 °C 0,0 km/h (0 Bft)
04.07.2017 05:48 9,1 °C 9,1 °C 94 % 1020,8 hPa 0,0 mm 0,0 km/h (0 Bft) N-NW 344 ° 0 min 0,000 mm 0,0 UV-I 14 W/m² 8,2 °C 9,1 °C 0,0 km/h (0 Bft)
04.07.2017 05:49 9,1 °C 9,1 °C 94 % 1020,8 hPa 0,0 mm 0,0 km/h (0 Bft) N-NW 344 ° 0 min 0,000 mm 0,0 UV-I 14 W/m² 8,2 °C 9,1 °C 0,0 km/h (0 Bft)
04.07.2017 05:50 9,1 °C 9,1 °C 94 % 1020,8 hPa 0,0 mm 0,0 km/h (0 Bft) N-NW 344 ° 0 min 0,000 mm 0,0 UV-I 14 W/m² 8,2 °C 9,1 °C 0,0 km/h (0 Bft)
04.07.2017 05:51 9,2 °C 9,2 °C 94 % 1020,8 hPa 0,0 mm 0,0 km/h (0 Bft) N-NW 344 ° 0 min 0,000 mm 0,0 UV-I 14 W/m² 8,3 °C 9,2 °C 0,0 km/h (0 Bft)
04.07.2017 05:52 9,2 °C 9,2 °C 94 % 1020,8 hPa 0,0 mm 0,0 km/h (0 Bft) N-NW 344 ° 0 min 0,000 mm 0,0 UV-I 14 W/m² 8,3 °C 9,2 °C 0,0 km/h (0 Bft)
04.07.2017 05:53 9,2 °C 9,2 °C 94 % 1020,8 hPa 0,0 mm 0,0 km/h (0 Bft) N-NW 344 ° 0 min 0,000 mm 0,0 UV-I 16 W/m² 8,3 °C 9,2 °C 0,0 km/h (0 Bft)
04.07.2017 05:54 9,2 °C 9,2 °C 94 % 1020,8 hPa 0,0 mm 0,0 km/h (0 Bft) N-NW 344 ° 0 min 0,000 mm 0,0 UV-I 16 W/m² 8,3 °C 9,2 °C 0,0 km/h (0 Bft)
04.07.2017 05:55 9,2 °C 9,3 °C 94 % 1020,8 hPa 0,0 mm 0,0 km/h (0 Bft) N-NW 344 ° 0 min 0,000 mm 0,0 UV-I 18 W/m² 8,3 °C 9,2 °C 0,0 km/h (0 Bft)
04.07.2017 05:56 9,2 °C 9,3 °C 94 % 1020,8 hPa 0,0 mm 0,0 km/h (0 Bft) N-NW 344 ° 0 min 0,000 mm 0,0 UV-I 19 W/m² 8,3 °C 9,2 °C 0,0 km/h (0 Bft)
04.07.2017 05:57 9,3 °C 9,3 °C 94 % 1020,8 hPa 0,0 mm 0,0 km/h (0 Bft) N-NW 344 ° 0 min 0,000 mm 0,0 UV-I 21 W/m² 8,4 °C 9,3 °C 0,0 km/h (0 Bft)
04.07.2017 05:58 9,3 °C 9,3 °C 94 % 1020,8 hPa 0,0 mm 0,0 km/h (0 Bft) N-NW 344 ° 0 min 0,000 mm 0,0 UV-I 21 W/m² 8,4 °C 9,3 °C 0,0 km/h (0 Bft)
04.07.2017 05:59 9,3 °C 9,3 °C 94 % 1020,8 hPa 0,0 mm 0,0 km/h (0 Bft) N-NW 344 ° 0 min 0,000 mm 0,0 UV-I 23 W/m² 8,4 °C 9,3 °C 0,0 km/h (0 Bft)
04.07.2017 06:00 9,4 °C 9,4 °C 94 % 1020,8 hPa 0,0 mm 0,0 km/h (0 Bft) N-NW 344 ° 0 min 0,000 mm 0,0 UV-I 23 W/m² 8,5 °C 9,4 °C 0,0 km/h (0 Bft)
04.07.2017 06:01 9,4 °C 9,4 °C 94 % 1020,8 hPa 0,0 mm 0,0 km/h (0 Bft) N-NW 344 ° 0 min 0,000 mm 0,0 UV-I 25 W/m² 8,5 °C 9,4 °C 0,0 km/h (0 Bft)
04.07.2017 06:02 9,4 °C 9,4 °C 94 % 1020,8 hPa 0,0 mm 0,0 km/h (0 Bft) N-NW 344 ° 0 min 0,000 mm 0,0 UV-I 25 W/m² 8,5 °C 9,4 °C 0,0 km/h (0 Bft)
04.07.2017 06:03 9,4 °C 9,4 °C 94 % 1020,8 hPa 0,0 mm 0,0 km/h (0 Bft) N-NW 344 ° 0 min 0,000 mm 0,0 UV-I 30 W/m² 8,5 °C 9,4 °C 0,0 km/h (0 Bft)
04.07.2017 06:04 9,4 °C 9,4 °C 94 % 1020,8 hPa 0,0 mm 0,0 km/h (0 Bft) N-NW 344 ° 0 min 0,000 mm 0,0 UV-I 30 W/m² 8,5 °C 9,4 °C 0,0 km/h (0 Bft)
04.07.2017 06:05 9,4 °C 9,4 °C 94 % 1020,8 hPa 0,0 mm 0,0 km/h (0 Bft) N-NW 344 ° 0 min 0,000 mm 0,0 UV-I 32 W/m² 8,5 °C 9,4 °C 0,0 km/h (0 Bft)
04.07.2017 06:06 9,4 °C 9,5 °C 94 % 1020,9 hPa 0,0 mm 0,0 km/h (0 Bft) N-NW 344 ° 0 min 0,000 mm 0,0 UV-I 33 W/m² 8,5 °C 9,4 °C 0,0 km/h (0 Bft)
04.07.2017 06:07 9,5 °C 9,5 °C 94 % 1020,9 hPa 0,0 mm 0,0 km/h (0 Bft) N-NW 344 ° 0 min 0,000 mm 0,0 UV-I 42 W/m² 8,6 °C 9,5 °C 0,0 km/h (0 Bft)
04.07.2017 06:08 9,5 °C 9,6 °C 94 % 1020,8 hPa 0,0 mm 0,0 km/h (0 Bft) N-NW 344 ° 0 min 0,000 mm 0,0 UV-I 42 W/m² 8,6 °C 9,5 °C 0,0 km/h (0 Bft)
04.07.2017 06:09 9,6 °C 9,6 °C 93 % 1020,8 hPa 0,0 mm 0,7 km/h (0 Bft) N-NW 344 ° 0 min 0,000 mm 0,0 UV-I 44 W/m² 8,5 °C 9,6 °C 3,2 km/h (1 Bft)
04.07.2017 06:10 9,6 °C 9,6 °C 94 % 1020,9 hPa 0,0 mm 0,0 km/h (0 Bft) N-NW 344 ° 0 min 0,000 mm 0,0 UV-I 44 W/m² 8,7 °C 9,6 °C 0,0 km/h (0 Bft)
04.07.2017 06:11 9,7 °C 9,7 °C 94 % 1020,8 hPa 0,0 mm 0,1 km/h (0 Bft) N-NW 344 ° 0 min 0,000 mm 0,0 UV-I 46 W/m² 8,8 °C 9,7 °C 1,6 km/h (1 Bft)
04.07.2017 06:12 9,7 °C 9,7 °C 94 % 1020,8 hPa 0,0 mm 0,0 km/h (0 Bft) N-NW 344 ° 0 min 0,000 mm 0,0 UV-I 47 W/m² 8,8 °C 9,7 °C 0,0 km/h (0 Bft)
04.07.2017 06:13 9,7 °C 9,7 °C 94 % 1020,8 hPa 0,0 mm 0,0 km/h (0 Bft) N-NW 344 ° 0 min 0,000 mm 0,0 UV-I 47 W/m² 8,8 °C 9,7 °C 0,0 km/h (0 Bft)
04.07.2017 06:14 9,7 °C 9,7 °C 93 % 1020,8 hPa 0,0 mm 0,0 km/h (0 Bft) N-NW 344 ° 0 min 0,000 mm 0,0 UV-I 47 W/m² 8,6 °C 9,7 °C 0,0 km/h (0 Bft)
04.07.2017 06:15 9,8 °C 9,8 °C 93 % 1020,8 hPa 0,0 mm 0,0 km/h (0 Bft) N-NW 344 ° 0 min 0,000 mm 0,0 UV-I 47 W/m² 8,7 °C 9,8 °C 0,0 km/h (0 Bft)
04.07.2017 06:16 9,8 °C 9,8 °C 93 % 1020,8 hPa 0,0 mm 0,0 km/h (0 Bft) N-NW 344 ° 0 min 0,000 mm 0,0 UV-I 49 W/m² 8,7 °C 9,8 °C 0,0 km/h (0 Bft)
04.07.2017 06:17 9,8 °C 9,8 °C 94 % 1020,8 hPa 0,0 mm 0,0 km/h (0 Bft) N-NW 344 ° 0 min 0,000 mm 0,0 UV-I 54 W/m² 8,9 °C 9,8 °C 0,0 km/h (0 Bft)
04.07.2017 06:18 9,9 °C 9,9 °C 94 % 1020,9 hPa 0,0 mm 0,0 km/h (0 Bft) N-NW 344 ° 0 min 0,000 mm 0,0 UV-I 56 W/m² 9,0 °C 9,9 °C 0,0 km/h (0 Bft)
04.07.2017 06:19 10,0 °C 10,0 °C 94 % 1020,8 hPa 0,0 mm 0,0 km/h (0 Bft) N-NW 344 ° 0 min 0,000 mm 0,0 UV-I 58 W/m² 9,1 °C 10,0 °C 0,0 km/h (0 Bft)
04.07.2017 06:20 10,1 °C 10,1 °C 94 % 1020,8 hPa 0,0 mm 0,0 km/h (0 Bft) N-NW 344 ° 0 min 0,000 mm 0,0 UV-I 60 W/m² 9,2 °C 10,1 °C 0,0 km/h (0 Bft)
04.07.2017 06:21 10,2 °C 10,2 °C 94 % 1020,9 hPa 0,0 mm 0,0 km/h (0 Bft) N-NW 344 ° 0 min 0,000 mm 0,0 UV-I 47 W/m² 9,3 °C 10,2 °C 0,0 km/h (0 Bft)
04.07.2017 06:22 10,3 °C 10,3 °C 93 % 1020,9 hPa 0,0 mm 0,5 km/h (0 Bft) N-NW 344 ° 0 min 0,000 mm 0,0 UV-I 54 W/m² 9,2 °C 10,3 °C 1,6 km/h (1 Bft)
04.07.2017 06:23 10,3 °C 10,3 °C 93 % 1020,9 hPa 0,0 mm 0,3 km/h (0 Bft) N-NW 344 ° 0 min 0,000 mm 0,0 UV-I 32 W/m² 9,2 °C 10,3 °C 1,6 km/h (1 Bft)
04.07.2017 06:24 10,3 °C 10,3 °C 93 % 1020,9 hPa 0,0 mm 0,3 km/h (0 Bft) N-NW 344 ° 0 min 0,000 mm 0,0 UV-I 28 W/m² 9,2 °C 10,3 °C 1,6 km/h (1 Bft)
04.07.2017 06:25 10,3 °C 10,3 °C 93 % 1020,9 hPa 0,0 mm 0,1 km/h (0 Bft) N-NW 344 ° 0 min 0,000 mm 0,0 UV-I 26 W/m² 9,2 °C 10,3 °C 1,6 km/h (1 Bft)
04.07.2017 06:26 10,3 °C 10,3 °C 92 % 1020,9 hPa 0,0 mm 0,0 km/h (0 Bft) N-NW 344 ° 0 min 0,000 mm 0,0 UV-I 30 W/m² 9,1 °C 10,3 °C 0,0 km/h (0 Bft)
04.07.2017 06:27 10,3 °C 10,3 °C 92 % 1020,9 hPa 0,0 mm 0,1 km/h (0 Bft) N-NW 344 ° 0 min 0,000 mm 0,0 UV-I 58 W/m² 9,1 °C 10,3 °C 1,6 km/h (1 Bft)
04.07.2017 06:28 10,4 °C 10,4 °C 92 % 1020,9 hPa 0,0 mm 1,9 km/h (1 Bft) N-NW 344 ° 0 min 0,000 mm 0,0 UV-I 70 W/m² 9,2 °C 10,4 °C 3,2 km/h (1 Bft)
04.07.2017 06:29 10,4 °C 10,4 °C 92 % 1020,9 hPa 0,0 mm 0,1 km/h (0 Bft) N-NW 344 ° 0 min 0,000 mm 0,0 UV-I 72 W/m² 9,2 °C 10,4 °C 1,6 km/h (1 Bft)
04.07.2017 06:30 10,4 °C 10,4 °C 92 % 1020,9 hPa 0,0 mm 0,0 km/h (0 Bft) N-NW 344 ° 0 min 0,000 mm 0,0 UV-I 81 W/m² 9,2 °C 10,4 °C 0,0 km/h (0 Bft)
04.07.2017 06:31 10,4 °C 10,4 °C 92 % 1020,9 hPa 0,0 mm 0,0 km/h (0 Bft) N-NW 344 ° 0 min 0,000 mm 0,0 UV-I 86 W/m² 9,2 °C 10,4 °C 0,0 km/h (0 Bft)
04.07.2017 06:32 10,4 °C 10,4 °C 92 % 1020,9 hPa 0,0 mm 0,0 km/h (0 Bft) N-NW 344 ° 0 min 0,000 mm 0,0 UV-I 91 W/m² 9,2 °C 10,4 °C 0,0 km/h (0 Bft)
04.07.2017 06:33 10,5 °C 10,5 °C 91 % 1020,9 hPa 0,0 mm 0,3 km/h (0 Bft) N-NW 344 ° 0 min 0,000 mm 0,0 UV-I 91 W/m² 9,1 °C 10,5 °C 3,2 km/h (1 Bft)
04.07.2017 06:34 10,6 °C 10,6 °C 92 % 1020,9 hPa 0,0 mm 0,5 km/h (0 Bft) N-NW 344 ° 0 min 0,000 mm 0,0 UV-I 93 W/m² 9,4 °C 10,6 °C 1,6 km/h (1 Bft)
04.07.2017 06:35 10,6 °C 10,6 °C 92 % 1020,9 hPa 0,0 mm 0,0 km/h (0 Bft) N-NW 344 ° 0 min 0,000 mm 0,0 UV-I 95 W/m² 9,4 °C 10,6 °C 0,0 km/h (0 Bft)
04.07.2017 06:36 10,7 °C 10,7 °C 91 % 1020,9 hPa 0,0 mm 0,0 km/h (0 Bft) N-NW 344 ° 0 min 0,000 mm 0,0 UV-I 102 W/m² 9,3 °C 10,7 °C 0,0 km/h (0 Bft)
04.07.2017 06:37 10,8 °C 10,8 °C 91 % 1020,9 hPa 0,0 mm 0,0 km/h (0 Bft) N-NW 344 ° 0 min 0,000 mm 0,0 UV-I 100 W/m² 9,4 °C 10,8 °C 0,0 km/h (0 Bft)
04.07.2017 06:38 10,9 °C 10,9 °C 91 % 1020,9 hPa 0,0 mm 0,0 km/h (0 Bft) N-NW 344 ° 0 min 0,000 mm 0,0 UV-I 90 W/m² 9,5 °C 10,9 °C 0,0 km/h (0 Bft)
04.07.2017 06:39 11,0 °C 11,0 °C 91 % 1020,9 hPa 0,0 mm 0,1 km/h (0 Bft) N-NW 344 ° 0 min 0,000 mm 0,0 UV-I 77 W/m² 9,6 °C 11,0 °C 1,6 km/h (1 Bft)
04.07.2017 06:40 11,1 °C 11,1 °C 91 % 1020,9 hPa 0,0 mm 0,0 km/h (0 Bft) N-NW 344 ° 0 min 0,000 mm 0,0 UV-I 49 W/m² 9,7 °C 11,1 °C 0,0 km/h (0 Bft)
04.07.2017 06:41 11,1 °C 11,1 °C 91 % 1020,9 hPa 0,0 mm 0,0 km/h (0 Bft) N-NW 344 ° 0 min 0,000 mm 0,0 UV-I 46 W/m² 9,7 °C 11,1 °C 0,0 km/h (0 Bft)
04.07.2017 06:42 11,1 °C 11,1 °C 90 % 1020,9 hPa 0,0 mm 0,0 km/h (0 Bft) N-NW 344 ° 0 min 0,000 mm 0,0 UV-I 111 W/m² 9,5 °C 11,1 °C 0,0 km/h (0 Bft)
04.07.2017 06:43 11,2 °C 11,2 °C 90 % 1020,9 hPa 0,0 mm 0,0 km/h (0 Bft) N-NW 344 ° 0 min 0,000 mm 0,5 UV-I 120 W/m² 9,6 °C 11,2 °C 0,0 km/h (0 Bft)
04.07.2017 06:44 11,2 °C 11,2 °C 91 % 1021,0 hPa 0,0 mm 0,0 km/h (0 Bft) N-NW 344 ° 0 min 0,000 mm 0,5 UV-I 121 W/m² 9,8 °C 11,2 °C 0,0 km/h (0 Bft)
04.07.2017 06:45 11,3 °C 11,3 °C 90 % 1021,0 hPa 0,0 mm 0,0 km/h (0 Bft) N-NW 344 ° 0 min 0,000 mm 0,5 UV-I 127 W/m² 9,7 °C 11,3 °C 0,0 km/h (0 Bft)
04.07.2017 06:46 11,3 °C 11,3 °C 91 % 1020,9 hPa 0,0 mm 0,0 km/h (0 Bft) N-NW 344 ° 0 min 0,000 mm 0,5 UV-I 130 W/m² 9,9 °C 11,3 °C 0,0 km/h (0 Bft)
04.07.2017 06:47 11,4 °C 11,4 °C 90 % 1021,0 hPa 0,0 mm 0,0 km/h (0 Bft) N-NW 344 ° 0 min 0,000 mm 0,5 UV-I 134 W/m² 9,8 °C 11,4 °C 0,0 km/h (0 Bft)
04.07.2017 06:48 11,4 °C 11,4 °C 90 % 1021,0 hPa 0,0 mm 0,0 km/h (0 Bft) N-NW 344 ° 0 min 0,000 mm 0,5 UV-I 134 W/m² 9,8 °C 11,4 °C 0,0 km/h (0 Bft)
04.07.2017 06:49 11,4 °C 11,4 °C 89 % 1021,0 hPa 0,0 mm 0,0 km/h (0 Bft) N-NW 344 ° 0 min 0,000 mm 0,5 UV-I 137 W/m² 9,7 °C 11,4 °C 0,0 km/h (0 Bft)
04.07.2017 06:50 11,4 °C 11,4 °C 90 % 1021,0 hPa 0,0 mm 0,0 km/h (0 Bft) N-NW 344 ° 0 min 0,000 mm 0,5 UV-I 139 W/m² 9,8 °C 11,4 °C 0,0 km/h (0 Bft)
04.07.2017 06:51 11,4 °C 11,4 °C 90 % 1021,0 hPa 0,0 mm 0,0 km/h (0 Bft) N-NW 344 ° 0 min 0,000 mm 0,5 UV-I 141 W/m² 9,8 °C 11,4 °C 0,0 km/h (0 Bft)
04.07.2017 06:52 11,5 °C 11,5 °C 90 % 1020,9 hPa 0,0 mm 0,0 km/h (0 Bft) N-NW 344 ° 0 min 0,000 mm 0,5 UV-I 142 W/m² 9,9 °C 11,5 °C 0,0 km/h (0 Bft)
04.07.2017 06:53 11,6 °C 11,6 °C 90 % 1021,0 hPa 0,0 mm 0,0 km/h (0 Bft) N-NW 344 ° 0 min 0,000 mm 0,5 UV-I 149 W/m² 10,0 °C 11,6 °C 0,0 km/h (0 Bft)
04.07.2017 06:54 11,7 °C 11,7 °C 90 % 1021,0 hPa 0,0 mm 0,0 km/h (0 Bft) N-NW 344 ° 0 min 0,000 mm 0,6 UV-I 151 W/m² 10,1 °C 11,7 °C 0,0 km/h (0 Bft)
04.07.2017 06:55 11,7 °C 11,7 °C 90 % 1021,0 hPa 0,0 mm 0,0 km/h (0 Bft) N-NW 344 ° 0 min 0,000 mm 0,6 UV-I 155 W/m² 10,1 °C 11,7 °C 0,0 km/h (0 Bft)
04.07.2017 06:56 11,8 °C 11,8 °C 89 % 1021,0 hPa 0,0 mm 0,0 km/h (0 Bft) N-NW 344 ° 0 min 0,000 mm 0,6 UV-I 158 W/m² 10,0 °C 11,8 °C 0,0 km/h (0 Bft)
04.07.2017 06:57 11,8 °C 11,8 °C 89 % 1021,0 hPa 0,0 mm 0,0 km/h (0 Bft) N-NW 344 ° 0 min 0,000 mm 0,6 UV-I 160 W/m² 10,0 °C 11,8 °C 0,0 km/h (0 Bft)
04.07.2017 06:58 11,8 °C 11,8 °C 89 % 1021,0 hPa 0,0 mm 0,0 km/h (0 Bft) N-NW 344 ° 0 min 0,000 mm 0,6 UV-I 163 W/m² 10,0 °C 11,8 °C 0,0 km/h (0 Bft)
04.07.2017 06:59 11,8 °C 11,8 °C 89 % 1021,0 hPa 0,0 mm 0,0 km/h (0 Bft) N-NW 344 ° 0 min 0,000 mm 0,6 UV-I 171 W/m² 10,0 °C 11,8 °C 0,0 km/h (0 Bft)
04.07.2017 07:00 11,9 °C 11,9 °C 89 % 1021,0 hPa 0,0 mm 0,0 km/h (0 Bft) N-NW 344 ° 0 min 0,000 mm 0,6 UV-I 179 W/m² 10,1 °C 11,9 °C 0,0 km/h (0 Bft)
04.07.2017 07:01 11,9 °C 11,9 °C 89 % 1021,0 hPa 0,0 mm 0,0 km/h (0 Bft) N-NW 344 ° 0 min 0,051 mm 0,7 UV-I 185 W/m² 10,1 °C 11,9 °C 0,0 km/h (0 Bft)
04.07.2017 07:02 12,1 °C 12,1 °C 89 % 1021,0 hPa 0,0 mm 0,0 km/h (0 Bft) N-NW 344 ° 0 min 0,000 mm 0,7 UV-I 192 W/m² 10,3 °C 12,1 °C 0,0 km/h (0 Bft)
04.07.2017 07:03 12,2 °C 12,2 °C 89 % 1020,9 hPa 0,0 mm 0,0 km/h (0 Bft) N-NW 344 ° 0 min 0,000 mm 0,7 UV-I 195 W/m² 10,4 °C 12,2 °C 0,0 km/h (0 Bft)
04.07.2017 07:04 12,3 °C 12,3 °C 89 % 1021,0 hPa 0,0 mm 0,0 km/h (0 Bft) N-NW 344 ° 0 min 0,000 mm 0,7 UV-I 206 W/m² 10,5 °C 12,3 °C 0,0 km/h (0 Bft)
04.07.2017 07:05 12,3 °C 12,3 °C 89 % 1020,9 hPa 0,0 mm 0,0 km/h (0 Bft) N-NW 344 ° 0 min 0,000 mm 0,8 UV-I 214 W/m² 10,5 °C 12,3 °C 0,0 km/h (0 Bft)
04.07.2017 07:06 12,3 °C 12,3 °C 88 % 1020,9 hPa 0,0 mm 0,0 km/h (0 Bft) N-NW 344 ° 0 min 0,000 mm 0,8 UV-I 200 W/m² 10,4 °C 12,3 °C 0,0 km/h (0 Bft)
04.07.2017 07:07 12,4 °C 12,4 °C 89 % 1021,0 hPa 0,0 mm 0,0 km/h (0 Bft) N-NW 344 ° 0 min 0,000 mm 0,8 UV-I 213 W/m² 10,6 °C 12,4 °C 0,0 km/h (0 Bft)
04.07.2017 07:08 12,6 °C 12,6 °C 89 % 1021,0 hPa 0,0 mm 0,0 km/h (0 Bft) N-NW 344 ° 0 min 0,000 mm 0,8 UV-I 213 W/m² 10,8 °C 12,6 °C 0,0 km/h (0 Bft)
04.07.2017 07:09 12,7 °C 12,7 °C 89 % 1020,9 hPa 0,0 mm 0,0 km/h (0 Bft) N-NW 344 ° 0 min 0,000 mm 0,8 UV-I 202 W/m² 10,9 °C 12,7 °C 0,0 km/h (0 Bft)
04.07.2017 07:10 12,8 °C 12,8 °C 88 % 1021,0 hPa 0,0 mm 0,5 km/h (0 Bft) N-NW 344 ° 0 min 0,000 mm 0,8 UV-I 209 W/m² 10,9 °C 12,8 °C 1,6 km/h (1 Bft)
04.07.2017 07:11 12,9 °C 12,9 °C 88 % 1021,0 hPa 0,0 mm 0,8 km/h (0 Bft) N-NW 344 ° 0 min 0,000 mm 0,8 UV-I 97 W/m² 11,0 °C 12,9 °C 1,6 km/h (1 Bft)
04.07.2017 07:12 12,9 °C 12,9 °C 89 % 1021,0 hPa 0,0 mm 0,1 km/h (0 Bft) N-NW 344 ° 0 min 0,000 mm 0,7 UV-I 105 W/m² 11,1 °C 12,9 °C 1,6 km/h (1 Bft)
04.07.2017 07:13 13,1 °C 13,1 °C 88 % 1021,0 hPa 0,0 mm 0,4 km/h (0 Bft) N-NW 344 ° 0 min 0,000 mm 0,7 UV-I 79 W/m² 11,2 °C 13,1 °C 1,6 km/h (1 Bft)
04.07.2017 07:14 13,1 °C 13,1 °C 88 % 1020,9 hPa 0,0 mm 0,2 km/h (0 Bft) N-NW 344 ° 0 min 0,000 mm 0,7 UV-I 74 W/m² 11,2 °C 13,1 °C 1,6 km/h (1 Bft)
04.07.2017 07:15 13,1 °C 13,2 °C 87 % 1021,0 hPa 0,0 mm 0,0 km/h (0 Bft) N-NW 344 ° 0 min 0,000 mm 0,7 UV-I 69 W/m² 11,0 °C 13,1 °C 0,0 km/h (0 Bft)
04.07.2017 07:16 13,1 °C 13,2 °C 87 % 1021,0 hPa 0,0 mm 0,0 km/h (0 Bft) N-NW 344 ° 0 min 0,000 mm 0,7 UV-I 63 W/m² 11,0 °C 13,1 °C 0,0 km/h (0 Bft)
04.07.2017 07:17 13,1 °C 13,1 °C 87 % 1021,0 hPa 0,0 mm 0,0 km/h (0 Bft) N-NW 344 ° 0 min 0,000 mm 0,7 UV-I 56 W/m² 11,0 °C 13,1 °C 0,0 km/h (0 Bft)
04.07.2017 07:18 13,1 °C 13,1 °C 87 % 1021,0 hPa 0,0 mm 0,0 km/h (0 Bft) N-NW 344 ° 0 min 0,000 mm 0,0 UV-I 54 W/m² 11,0 °C 13,1 °C 0,0 km/h (0 Bft)
04.07.2017 07:19 13,1 °C 13,1 °C 87 % 1021,0 hPa 0,0 mm 0,0 km/h (0 Bft) N-NW 344 ° 0 min 0,000 mm 0,8 UV-I 56 W/m² 11,0 °C 13,1 °C 0,0 km/h (0 Bft)
04.07.2017 07:20 13,1 °C 13,1 °C 89 % 1021,0 hPa 0,0 mm 0,0 km/h (0 Bft) N-NW 344 ° 0 min 0,000 mm 0,8 UV-I 58 W/m² 11,3 °C 13,1 °C 0,0 km/h (0 Bft)
04.07.2017 07:21 12,9 °C 13,1 °C 90 % 1021,0 hPa 0,0 mm 0,0 km/h (0 Bft) N-NW 344 ° 0 min 0,000 mm 0,8 UV-I 58 W/m² 11,3 °C 12,9 °C 0,0 km/h (0 Bft)
04.07.2017 07:22 12,9 °C 12,9 °C 90 % 1021,0 hPa 0,0 mm 0,0 km/h (0 Bft) N-NW 344 ° 0 min 0,000 mm 0,8 UV-I 74 W/m² 11,3 °C 12,9 °C 0,0 km/h (0 Bft)
04.07.2017 07:23 12,9 °C 12,9 °C 90 % 1021,0 hPa 0,0 mm 0,0 km/h (0 Bft) N-NW 344 ° 0 min 0,000 mm 0,9 UV-I 132 W/m² 11,3 °C 12,9 °C 0,0 km/h (0 Bft)
04.07.2017 07:24 12,8 °C 12,9 °C 90 % 1021,1 hPa 0,0 mm 0,0 km/h (0 Bft) N-NW 344 ° 0 min 0,000 mm 0,9 UV-I 62 W/m² 11,2 °C 12,8 °C 0,0 km/h (0 Bft)
04.07.2017 07:25 12,9 °C 12,9 °C 90 % 1021,1 hPa 0,0 mm 0,0 km/h (0 Bft) N-NW 344 ° 0 min 0,000 mm 1,0 UV-I 62 W/m² 11,3 °C 12,9 °C 0,0 km/h (0 Bft)
04.07.2017 07:26 12,9 °C 12,9 °C 89 % 1021,1 hPa 0,0 mm 0,0 km/h (0 Bft) N-NW 344 ° 0 min 0,000 mm 1,0 UV-I 220 W/m² 11,1 °C 12,9 °C 0,0 km/h (0 Bft)
04.07.2017 07:27 13,1 °C 13,1 °C 90 % 1021,1 hPa 0,0 mm 0,0 km/h (0 Bft) N-NW 344 ° 0 min 0,000 mm 1,0 UV-I 220 W/m² 11,5 °C 13,1 °C 0,0 km/h (0 Bft)
04.07.2017 07:28 13,2 °C 13,2 °C 90 % 1021,1 hPa 0,0 mm 0,0 km/h (0 Bft) N-NW 344 ° 0 min 0,000 mm 1,0 UV-I 216 W/m² 11,6 °C 13,2 °C 0,0 km/h (0 Bft)
04.07.2017 07:29 13,3 °C 13,3 °C 90 % 1021,1 hPa 0,0 mm 0,0 km/h (0 Bft) N-NW 344 ° 0 min 0,000 mm 1,1 UV-I 223 W/m² 11,7 °C 13,3 °C 0,0 km/h (0 Bft)
04.07.2017 07:30 13,4 °C 13,4 °C 89 % 1021,0 hPa 0,0 mm 0,0 km/h (0 Bft) N-NW 344 ° 0 min 0,000 mm 1,1 UV-I 227 W/m² 11,6 °C 13,4 °C 0,0 km/h (0 Bft)
04.07.2017 07:31 13,6 °C 13,6 °C 89 % 1021,1 hPa 0,0 mm 0,0 km/h (0 Bft) N-NW 344 ° 0 min 0,000 mm 1,1 UV-I 225 W/m² 11,8 °C 13,6 °C 0,0 km/h (0 Bft)
04.07.2017 07:32 13,6 °C 13,7 °C 88 % 1021,1 hPa 0,0 mm 0,0 km/h (0 Bft) N-NW 344 ° 0 min 0,000 mm 1,1 UV-I 239 W/m² 11,6 °C 13,6 °C 0,0 km/h (0 Bft)
04.07.2017 07:33 13,7 °C 13,7 °C 88 % 1021,1 hPa 0,0 mm 0,1 km/h (0 Bft) N-NW 344 ° 0 min 0,000 mm 1,1 UV-I 239 W/m² 11,7 °C 13,7 °C 1,6 km/h (1 Bft)
04.07.2017 07:34 13,7 °C 13,7 °C 87 % 1021,1 hPa 0,0 mm 0,0 km/h (0 Bft) N-NW 344 ° 0 min 0,000 mm 1,2 UV-I 241 W/m² 11,6 °C 13,7 °C 0,0 km/h (0 Bft)
04.07.2017 07:35 13,7 °C 13,7 °C 86 % 1021,1 hPa 0,0 mm 0,0 km/h (0 Bft) N-NW 344 ° 0 min 0,000 mm 1,2 UV-I 243 W/m² 11,4 °C 13,7 °C 0,0 km/h (0 Bft)
04.07.2017 07:36 13,7 °C 13,7 °C 87 % 1021,1 hPa 0,0 mm 0,0 km/h (0 Bft) N-NW 344 ° 0 min 0,000 mm 1,2 UV-I 244 W/m² 11,6 °C 13,7 °C 0,0 km/h (0 Bft)
04.07.2017 07:37 13,7 °C 13,7 °C 87 % 1021,1 hPa 0,0 mm 0,0 km/h (0 Bft) N-NW 344 ° 0 min 0,000 mm 1,2 UV-I 246 W/m² 11,6 °C 13,7 °C 0,0 km/h (0 Bft)
04.07.2017 07:38 13,8 °C 13,8 °C 88 % 1021,1 hPa 0,0 mm 0,0 km/h (0 Bft) N-NW 344 ° 0 min 0,000 mm 1,2 UV-I 248 W/m² 11,8 °C 13,8 °C 0,0 km/h (0 Bft)
04.07.2017 07:39 13,8 °C 13,8 °C 86 % 1021,1 hPa 0,0 mm 0,0 km/h (0 Bft) N-NW 344 ° 0 min 0,000 mm 1,3 UV-I 251 W/m² 11,5 °C 13,8 °C 0,0 km/h (0 Bft)
04.07.2017 07:40 13,8 °C 13,8 °C 86 % 1021,1 hPa 0,0 mm 0,0 km/h (0 Bft) N-NW 344 ° 0 min 0,000 mm 1,3 UV-I 251 W/m² 11,5 °C 13,8 °C 0,0 km/h (0 Bft)
04.07.2017 07:41 13,9 °C 13,9 °C 88 % 1021,0 hPa 0,0 mm 0,0 km/h (0 Bft) N-NW 344 ° 0 min 0,000 mm 1,3 UV-I 251 W/m² 11,9 °C 13,9 °C 0,0 km/h (0 Bft)
04.07.2017 07:42 14,0 °C 14,0 °C 88 % 1021,0 hPa 0,0 mm 0,0 km/h (0 Bft) N-NW 344 ° 0 min 0,000 mm 1,3 UV-I 251 W/m² 12,0 °C 14,0 °C 0,0 km/h (0 Bft)
04.07.2017 07:43 14,1 °C 14,1 °C 87 % 1021,0 hPa 0,0 mm 0,0 km/h (0 Bft) N-NW 344 ° 0 min 0,000 mm 1,3 UV-I 251 W/m² 12,0 °C 14,1 °C 0,0 km/h (0 Bft)
04.07.2017 07:44 14,2 °C 14,2 °C 87 % 1021,1 hPa 0,0 mm 0,0 km/h (0 Bft) N-NW 344 ° 0 min 0,000 mm 1,3 UV-I 251 W/m² 12,1 °C 14,2 °C 0,0 km/h (0 Bft)
04.07.2017 07:45 14,3 °C 14,3 °C 88 % 1021,1 hPa 0,0 mm 0,0 km/h (0 Bft) N-NW 344 ° 0 min 0,000 mm 1,4 UV-I 251 W/m² 12,3 °C 14,3 °C 0,0 km/h (0 Bft)
04.07.2017 07:46 14,3 °C 14,3 °C 87 % 1021,0 hPa 0,0 mm 0,0 km/h (0 Bft) N-NW 344 ° 0 min 0,000 mm 1,4 UV-I 251 W/m² 12,2 °C 14,3 °C 0,0 km/h (0 Bft)
04.07.2017 07:47 14,3 °C 14,3 °C 86 % 1021,0 hPa 0,0 mm 0,0 km/h (0 Bft) N-NW 344 ° 0 min 0,000 mm 1,4 UV-I 251 W/m² 12,0 °C 14,3 °C 0,0 km/h (0 Bft)
04.07.2017 07:48 14,4 °C 14,4 °C 87 % 1021,0 hPa 0,0 mm 0,0 km/h (0 Bft) N-NW 344 ° 0 min 0,000 mm 1,4 UV-I 251 W/m² 12,3 °C 14,4 °C 0,0 km/h (0 Bft)
04.07.2017 07:49 14,4 °C 14,4 °C 86 % 1021,0 hPa 0,0 mm 0,0 km/h (0 Bft) N-NW 344 ° 0 min 0,000 mm 1,4 UV-I 251 W/m² 12,1 °C 14,4 °C 0,0 km/h (0 Bft)
04.07.2017 07:50 14,4 °C 14,4 °C 85 % 1021,0 hPa 0,0 mm 0,0 km/h (0 Bft) N-NW 344 ° 0 min 0,000 mm 1,4 UV-I 250 W/m² 11,9 °C 14,4 °C 0,0 km/h (0 Bft)
04.07.2017 07:51 14,7 °C 14,7 °C 86 % 1021,0 hPa 0,0 mm 1,0 km/h (0 Bft) S-SW 204 ° 0 min 0,000 mm 1,5 UV-I 250 W/m² 12,4 °C 14,7 °C 3,2 km/h (1 Bft)
04.07.2017 07:52 14,9 °C 14,9 °C 86 % 1021,0 hPa 0,0 mm 0,5 km/h (0 Bft) S-SW 204 ° 0 min 0,000 mm 1,5 UV-I 246 W/m² 12,6 °C 14,9 °C 3,2 km/h (1 Bft)
04.07.2017 07:53 15,0 °C 15,0 °C 84 % 1021,0 hPa 0,0 mm 0,0 km/h (0 Bft) S-SW 204 ° 0 min 0,000 mm 1,5 UV-I 244 W/m² 12,3 °C 15,0 °C 0,0 km/h (0 Bft)
04.07.2017 07:54 15,2 °C 15,2 °C 82 % 1021,0 hPa 0,0 mm 0,4 km/h (0 Bft) S-SW 204 ° 0 min 0,000 mm 1,5 UV-I 241 W/m² 12,1 °C 15,2 °C 1,6 km/h (1 Bft)
04.07.2017 07:55 15,3 °C 15,3 °C 81 % 1021,0 hPa 0,0 mm 2,0 km/h (1 Bft) S-SW 203 ° 0 min 0,000 mm 1,6 UV-I 237 W/m² 12,1 °C 15,3 °C 4,8 km/h (1 Bft)
04.07.2017 07:56 15,4 °C 15,4 °C 83 % 1021,0 hPa 0,0 mm 1,2 km/h (1 Bft) S-SW 203 ° 0 min 0,000 mm 1,6 UV-I 234 W/m² 12,5 °C 15,4 °C 3,2 km/h (1 Bft)
04.07.2017 07:57 15,6 °C 15,6 °C 80 % 1021,0 hPa 0,0 mm 3,4 km/h (1 Bft) S-SW 200 ° 0 min 0,000 mm 1,6 UV-I 230 W/m² 12,2 °C 15,6 °C 4,8 km/h (1 Bft)
04.07.2017 07:58 15,7 °C 15,7 °C 81 % 1021,0 hPa 0,0 mm 0,8 km/h (0 Bft) S-SW 200 ° 0 min 0,000 mm 1,6 UV-I 221 W/m² 12,4 °C 15,7 °C 3,2 km/h (1 Bft)
04.07.2017 07:59 15,8 °C 15,8 °C 82 % 1021,0 hPa 0,0 mm 2,4 km/h (1 Bft) S-SW 200 ° 0 min 0,000 mm 1,6 UV-I 218 W/m² 12,7 °C 15,8 °C 4,8 km/h (1 Bft)
04.07.2017 08:00 15,9 °C 15,9 °C 78 % 1021,0 hPa 0,0 mm 1,3 km/h (1 Bft) S-SW 200 ° 0 min 0,000 mm 1,7 UV-I 213 W/m² 12,1 °C 15,9 °C 3,2 km/h (1 Bft)
04.07.2017 08:01 15,9 °C 15,9 °C 81 % 1021,0 hPa 0,0 mm 2,2 km/h (1 Bft) S-SW 200 ° 0 min 0,102 mm 1,7 UV-I 211 W/m² 12,6 °C 15,9 °C 4,8 km/h (1 Bft)
04.07.2017 08:02 15,9 °C 15,9 °C 77 % 1021,0 hPa 0,0 mm 2,0 km/h (1 Bft) S-SW 199 ° 0 min 0,000 mm 1,7 UV-I 207 W/m² 11,9 °C 15,9 °C 3,2 km/h (1 Bft)
04.07.2017 08:03 16,1 °C 16,1 °C 76 % 1020,9 hPa 0,0 mm 3,0 km/h (1 Bft) S-SW 199 ° 0 min 0,000 mm 1,7 UV-I 204 W/m² 11,9 °C 16,1 °C 4,8 km/h (1 Bft)
04.07.2017 08:04 16,1 °C 16,1 °C 79 % 1021,0 hPa 0,0 mm 3,3 km/h (1 Bft) S-SW 198 ° 0 min 0,000 mm 1,7 UV-I 202 W/m² 12,5 °C 16,1 °C 4,8 km/h (1 Bft)
04.07.2017 08:05 16,1 °C 16,1 °C 78 % 1020,9 hPa 0,0 mm 2,9 km/h (1 Bft) S-SW 198 ° 0 min 0,000 mm 1,8 UV-I 204 W/m² 12,3 °C 16,1 °C 4,8 km/h (1 Bft)
04.07.2017 08:06 16,1 °C 16,1 °C 78 % 1021,0 hPa 0,0 mm 2,2 km/h (1 Bft) S-SW 198 ° 0 min 0,000 mm 1,8 UV-I 207 W/m² 12,3 °C 16,1 °C 3,2 km/h (1 Bft)
04.07.2017 08:07 16,2 °C 16,2 °C 77 % 1020,9 hPa 0,0 mm 3,1 km/h (1 Bft) S-SW 198 ° 0 min 0,000 mm 1,8 UV-I 211 W/m² 12,2 °C 16,2 °C 4,8 km/h (1 Bft)
04.07.2017 08:08 16,2 °C 16,2 °C 75 % 1021,0 hPa 0,0 mm 1,7 km/h (1 Bft) S-SW 198 ° 0 min 0,000 mm 1,8 UV-I 216 W/m² 11,8 °C 16,2 °C 3,2 km/h (1 Bft)
04.07.2017 08:09 16,3 °C 16,3 °C 76 % 1021,0 hPa 0,0 mm 2,9 km/h (1 Bft) S-SW 198 ° 0 min 0,000 mm 1,9 UV-I 221 W/m² 12,1 °C 16,3 °C 4,8 km/h (1 Bft)
04.07.2017 08:10 16,3 °C 16,3 °C 78 % 1020,9 hPa 0,0 mm 2,5 km/h (1 Bft) S-SW 198 ° 0 min 0,000 mm 1,9 UV-I 234 W/m² 12,5 °C 16,3 °C 4,8 km/h (1 Bft)
04.07.2017 08:11 16,3 °C 16,3 °C 77 % 1021,0 hPa 0,0 mm 3,1 km/h (1 Bft) S 186 ° 0 min 0,000 mm 1,9 UV-I 239 W/m² 12,3 °C 16,3 °C 6,4 km/h (2 Bft)
04.07.2017 08:12 16,3 °C 16,4 °C 75 % 1021,0 hPa 0,0 mm 0,3 km/h (0 Bft) S 186 ° 0 min 0,000 mm 1,9 UV-I 239 W/m² 11,9 °C 16,3 °C 1,6 km/h (1 Bft)
04.07.2017 08:13 16,4 °C 16,4 °C 79 % 1020,9 hPa 0,0 mm 0,3 km/h (0 Bft) S 186 ° 0 min 0,000 mm 2,0 UV-I 253 W/m² 12,7 °C 16,4 °C 1,6 km/h (1 Bft)
04.07.2017 08:14 16,5 °C 16,5 °C 77 % 1020,9 hPa 0,0 mm 0,5 km/h (0 Bft) S 186 ° 0 min 0,000 mm 2,0 UV-I 260 W/m² 12,5 °C 16,5 °C 1,6 km/h (1 Bft)
04.07.2017 08:15 16,6 °C 16,6 °C 75 % 1020,9 hPa 0,0 mm 0,5 km/h (0 Bft) S 186 ° 0 min 0,000 mm 2,0 UV-I 276 W/m² 12,1 °C 16,6 °C 1,6 km/h (1 Bft)
04.07.2017 08:16 16,7 °C 16,7 °C 75 % 1020,9 hPa 0,0 mm 0,0 km/h (0 Bft) S 186 ° 0 min 0,000 mm 2,0 UV-I 283 W/m² 12,2 °C 16,7 °C 0,0 km/h (0 Bft)
04.07.2017 08:17 16,7 °C 16,7 °C 77 % 1020,9 hPa 0,0 mm 0,1 km/h (0 Bft) S 186 ° 1 min 0,000 mm 2,1 UV-I 290 W/m² 12,6 °C 16,7 °C 1,6 km/h (1 Bft)
04.07.2017 08:18 16,6 °C 16,7 °C 76 % 1020,9 hPa 0,0 mm 0,0 km/h (0 Bft) S 186 ° 1 min 0,000 mm 2,1 UV-I 299 W/m² 12,3 °C 16,6 °C 0,0 km/h (0 Bft)
04.07.2017 08:19 16,6 °C 16,6 °C 79 % 1021,0 hPa 0,0 mm 0,0 km/h (0 Bft) S 186 ° 1 min 0,000 mm 2,1 UV-I 306 W/m² 12,9 °C 16,6 °C 0,0 km/h (0 Bft)
04.07.2017 08:20 16,7 °C 16,7 °C 73 % 1020,9 hPa 0,0 mm 2,6 km/h (1 Bft) W 259 ° 1 min 0,000 mm 2,1 UV-I 315 W/m² 11,8 °C 16,7 °C 6,4 km/h (2 Bft)
04.07.2017 08:21 16,9 °C 16,9 °C 73 % 1021,0 hPa 0,0 mm 5,4 km/h (1 Bft) W 268 ° 1 min 0,000 mm 2,1 UV-I 325 W/m² 12,0 °C 16,9 °C 9,7 km/h (2 Bft)
04.07.2017 08:22 17,0 °C 17,0 °C 75 % 1021,0 hPa 0,0 mm 4,3 km/h (1 Bft) W-SW 242 ° 1 min 0,000 mm 2,2 UV-I 332 W/m² 12,5 °C 17,0 °C 6,4 km/h (2 Bft)
04.07.2017 08:23 17,1 °C 17,1 °C 76 % 1021,0 hPa 0,0 mm 4,8 km/h (1 Bft) W-SW 248 ° 1 min 0,000 mm 2,2 UV-I 338 W/m² 12,8 °C 17,1 °C 6,4 km/h (2 Bft)
04.07.2017 08:24 17,2 °C 17,2 °C 73 % 1021,0 hPa 0,0 mm 4,3 km/h (1 Bft) W-SW 238 ° 1 min 0,000 mm 2,2 UV-I 325 W/m² 12,3 °C 17,2 °C 6,4 km/h (2 Bft)
04.07.2017 08:25 17,2 °C 17,2 °C 72 % 1021,0 hPa 0,0 mm 1,6 km/h (1 Bft) W-SW 254 ° 1 min 0,000 mm 2,2 UV-I 345 W/m² 12,1 °C 17,2 °C 4,8 km/h (1 Bft)
04.07.2017 08:26 17,2 °C 17,2 °C 79 % 1020,9 hPa 0,0 mm 3,2 km/h (1 Bft) W-SW 254 ° 1 min 0,000 mm 2,2 UV-I 345 W/m² 13,5 °C 17,2 °C 4,8 km/h (1 Bft)
04.07.2017 08:27 17,2 °C 17,2 °C 73 % 1020,9 hPa 0,0 mm 4,6 km/h (1 Bft) W-SW 240 ° 1 min 0,000 mm 2,2 UV-I 322 W/m² 12,3 °C 17,2 °C 6,4 km/h (2 Bft)
04.07.2017 08:28 17,3 °C 17,3 °C 75 % 1020,9 hPa 0,0 mm 2,6 km/h (1 Bft) W-SW 241 ° 1 min 0,000 mm 2,1 UV-I 345 W/m² 12,8 °C 17,3 °C 3,2 km/h (1 Bft)
04.07.2017 08:29 17,4 °C 17,4 °C 73 % 1020,9 hPa 0,0 mm 1,9 km/h (1 Bft) W 264 ° 1 min 0,000 mm 2,2 UV-I 341 W/m² 12,5 °C 17,4 °C 4,8 km/h (1 Bft)
04.07.2017 08:30 17,5 °C 17,5 °C 74 % 1020,9 hPa 0,0 mm 1,7 km/h (1 Bft) W-SW 242 ° 1 min 0,000 mm 2,3 UV-I 374 W/m² 12,8 °C 17,5 °C 4,8 km/h (1 Bft)
04.07.2017 08:31 17,6 °C 17,6 °C 72 % 1020,9 hPa 0,0 mm 1,6 km/h (1 Bft) W-SW 243 ° 1 min 0,000 mm 2,3 UV-I 376 W/m² 12,5 °C 17,6 °C 3,2 km/h (1 Bft)
04.07.2017 08:32 17,7 °C 17,7 °C 73 % 1020,9 hPa 0,0 mm 3,5 km/h (1 Bft) W-SW 243 ° 1 min 0,000 mm 2,4 UV-I 383 W/m² 12,8 °C 17,7 °C 4,8 km/h (1 Bft)
04.07.2017 08:33 17,7 °C 17,7 °C 73 % 1020,9 hPa 0,0 mm 4,2 km/h (1 Bft) W 277 ° 1 min 0,000 mm 2,4 UV-I 394 W/m² 12,8 °C 17,7 °C 6,4 km/h (2 Bft)
04.07.2017 08:34 17,8 °C 17,8 °C 71 % 1020,9 hPa 0,0 mm 3,6 km/h (1 Bft) W 267 ° 1 min 0,000 mm 2,4 UV-I 399 W/m² 12,5 °C 17,8 °C 4,8 km/h (1 Bft)
04.07.2017 08:35 17,8 °C 17,8 °C 73 % 1020,9 hPa 0,0 mm 3,5 km/h (1 Bft) W 263 ° 1 min 0,000 mm 2,5 UV-I 403 W/m² 12,9 °C 17,8 °C 4,8 km/h (1 Bft)
04.07.2017 08:36 17,9 °C 17,9 °C 73 % 1020,9 hPa 0,0 mm 2,4 km/h (1 Bft) W 263 ° 1 min 0,000 mm 2,5 UV-I 406 W/m² 13,0 °C 17,9 °C 4,8 km/h (1 Bft)
04.07.2017 08:37 18,0 °C 18,1 °C 72 % 1020,9 hPa 0,0 mm 2,3 km/h (1 Bft) W 272 ° 1 min 0,000 mm 2,5 UV-I 410 W/m² 12,9 °C 18,0 °C 4,8 km/h (1 Bft)
04.07.2017 08:38 18,1 °C 18,1 °C 72 % 1020,9 hPa 0,0 mm 4,7 km/h (1 Bft) W 278 ° 1 min 0,000 mm 2,5 UV-I 415 W/m² 13,0 °C 18,1 °C 6,4 km/h (2 Bft)
04.07.2017 08:39 18,1 °C 18,1 °C 69 % 1020,9 hPa 0,0 mm 6,0 km/h (2 Bft) W-NW 299 ° 1 min 0,000 mm 2,6 UV-I 420 W/m² 12,3 °C 18,1 °C 8,0 km/h (2 Bft)
04.07.2017 08:40 18,2 °C 18,2 °C 72 % 1020,9 hPa 0,0 mm 0,9 km/h (0 Bft) W-NW 299 ° 1 min 0,000 mm 2,6 UV-I 427 W/m² 13,1 °C 18,2 °C 3,2 km/h (1 Bft)
04.07.2017 08:41 18,2 °C 18,2 °C 69 % 1020,9 hPa 0,0 mm 0,9 km/h (0 Bft) W-NW 299 ° 1 min 0,000 mm 2,6 UV-I 431 W/m² 12,4 °C 18,2 °C 4,8 km/h (1 Bft)
04.07.2017 08:42 18,1 °C 18,2 °C 70 % 1020,8 hPa 0,0 mm 2,9 km/h (1 Bft) W-NW 299 ° 1 min 0,000 mm 2,6 UV-I 434 W/m² 12,5 °C 18,1 °C 4,8 km/h (1 Bft)
04.07.2017 08:43 18,1 °C 18,1 °C 70 % 1020,8 hPa 0,0 mm 2,0 km/h (1 Bft) W-NW 299 ° 1 min 0,000 mm 2,7 UV-I 436 W/m² 12,5 °C 18,1 °C 3,2 km/h (1 Bft)
04.07.2017 08:44 18,2 °C 18,2 °C 73 % 1020,8 hPa 0,0 mm 1,3 km/h (1 Bft) W-NW 299 ° 1 min 0,000 mm 2,7 UV-I 443 W/m² 13,3 °C 18,2 °C 3,2 km/h (1 Bft)
04.07.2017 08:45 18,1 °C 18,2 °C 71 % 1020,8 hPa 0,0 mm 0,0 km/h (0 Bft) W-NW 299 ° 1 min 0,000 mm 2,7 UV-I 446 W/m² 12,8 °C 18,1 °C 0,0 km/h (0 Bft)
04.07.2017 08:46 18,1 °C 18,1 °C 71 % 1020,8 hPa 0,0 mm 1,3 km/h (1 Bft) W-NW 299 ° 1 min 0,000 mm 2,8 UV-I 448 W/m² 12,8 °C 18,1 °C 3,2 km/h (1 Bft)
04.07.2017 08:47 18,1 °C 18,1 °C 74 % 1020,8 hPa 0,0 mm 2,8 km/h (1 Bft) W-NW 302 ° 1 min 0,000 mm 2,8 UV-I 450 W/m² 13,4 °C 18,1 °C 6,4 km/h (2 Bft)
04.07.2017 08:48 18,1 °C 18,1 °C 71 % 1020,8 hPa 0,0 mm 4,2 km/h (1 Bft) W-NW 298 ° 1 min 0,000 mm 2,8 UV-I 454 W/m² 12,8 °C 18,1 °C 6,4 km/h (2 Bft)
04.07.2017 08:49 18,3 °C 18,3 °C 70 % 1020,8 hPa 0,0 mm 4,2 km/h (1 Bft) N-NW 338 ° 1 min 0,000 mm 2,8 UV-I 455 W/m² 12,7 °C 18,3 °C 6,4 km/h (2 Bft)
04.07.2017 08:50 18,4 °C 18,4 °C 70 % 1020,8 hPa 0,0 mm 3,0 km/h (1 Bft) W-NW 298 ° 1 min 0,000 mm 2,9 UV-I 457 W/m² 12,8 °C 18,4 °C 6,4 km/h (2 Bft)
04.07.2017 08:51 18,4 °C 18,4 °C 67 % 1020,8 hPa 0,0 mm 4,2 km/h (1 Bft) NW 315 ° 1 min 0,000 mm 2,9 UV-I 461 W/m² 12,2 °C 18,4 °C 8,0 km/h (2 Bft)
04.07.2017 08:52 18,4 °C 18,4 °C 67 % 1020,8 hPa 0,0 mm 4,7 km/h (1 Bft) W-NW 291 ° 1 min 0,000 mm 2,9 UV-I 462 W/m² 12,2 °C 18,4 °C 8,0 km/h (2 Bft)
04.07.2017 08:53 18,5 °C 18,5 °C 70 % 1020,8 hPa 0,0 mm 5,2 km/h (1 Bft) W 259 ° 1 min 0,000 mm 2,9 UV-I 466 W/m² 12,9 °C 18,5 °C 8,0 km/h (2 Bft)
04.07.2017 08:54 18,6 °C 18,6 °C 67 % 1020,9 hPa 0,0 mm 5,1 km/h (1 Bft) W-NW 283 ° 1 min 0,000 mm 2,9 UV-I 466 W/m² 12,3 °C 18,6 °C 9,7 km/h (2 Bft)
04.07.2017 08:55 18,5 °C 18,6 °C 67 % 1020,8 hPa 0,0 mm 5,4 km/h (1 Bft) NW 304 ° 1 min 0,000 mm 3,0 UV-I 469 W/m² 12,3 °C 18,5 °C 11,3 km/h (2 Bft)
04.07.2017 08:56 18,5 °C 18,5 °C 69 % 1020,8 hPa 0,0 mm 8,0 km/h (2 Bft) W-NW 303 ° 1 min 0,000 mm 3,0 UV-I 473 W/m² 12,7 °C 18,5 °C 12,9 km/h (3 Bft)
04.07.2017 08:57 18,4 °C 18,5 °C 66 % 1020,8 hPa 0,0 mm 6,9 km/h (2 Bft) NW 325 ° 1 min 0,000 mm 3,0 UV-I 476 W/m² 11,9 °C 18,4 °C 8,0 km/h (2 Bft)
04.07.2017 08:58 18,4 °C 18,4 °C 67 % 1020,7 hPa 0,0 mm 4,5 km/h (1 Bft) NW 310 ° 1 min 0,000 mm 3,0 UV-I 478 W/m² 12,2 °C 18,4 °C 8,0 km/h (2 Bft)
04.07.2017 08:59 18,4 °C 18,4 °C 67 % 1020,7 hPa 0,0 mm 6,5 km/h (2 Bft) W-NW 301 ° 1 min 0,000 mm 3,1 UV-I 480 W/m² 12,2 °C 18,4 °C 8,0 km/h (2 Bft)
04.07.2017 09:00 18,5 °C 18,5 °C 69 % 1020,7 hPa 0,0 mm 5,8 km/h (2 Bft) N-NW 336 ° 1 min 0,203 mm 3,1 UV-I 483 W/m² 12,7 °C 18,5 °C 8,0 km/h (2 Bft)
04.07.2017 09:01 18,6 °C 18,6 °C 68 % 1020,7 hPa 0,0 mm 5,0 km/h (1 Bft) NW 319 ° 1 min 0,000 mm 3,1 UV-I 483 W/m² 12,6 °C 18,6 °C 6,4 km/h (2 Bft)
04.07.2017 09:02 18,6 °C 18,6 °C 66 % 1020,7 hPa 0,0 mm 4,4 km/h (1 Bft) NW 322 ° 1 min 0,000 mm 3,1 UV-I 490 W/m² 12,1 °C 18,6 °C 6,4 km/h (2 Bft)
04.07.2017 09:03 18,6 °C 18,6 °C 70 % 1020,7 hPa 0,0 mm 2,3 km/h (1 Bft) NW 321 ° 1 min 0,000 mm 3,1 UV-I 492 W/m² 13,0 °C 18,6 °C 3,2 km/h (1 Bft)
04.07.2017 09:04 18,7 °C 18,7 °C 69 % 1020,7 hPa 0,0 mm 5,8 km/h (2 Bft) N-NW 342 ° 1 min 0,000 mm 3,2 UV-I 496 W/m² 12,9 °C 18,7 °C 8,0 km/h (2 Bft)
04.07.2017 09:05 18,7 °C 18,7 °C 69 % 1020,7 hPa 0,0 mm 5,7 km/h (1 Bft) N-NW 335 ° 1 min 0,000 mm 3,2 UV-I 497 W/m² 12,9 °C 18,7 °C 8,0 km/h (2 Bft)
04.07.2017 09:06 18,7 °C 18,7 °C 69 % 1020,7 hPa 0,0 mm 5,6 km/h (1 Bft) NW 309 ° 1 min 0,000 mm 3,2 UV-I 501 W/m² 12,9 °C 18,7 °C 8,0 km/h (2 Bft)
04.07.2017 09:07 18,7 °C 18,7 °C 67 % 1020,7 hPa 0,0 mm 4,4 km/h (1 Bft) NW 319 ° 1 min 0,000 mm 3,2 UV-I 503 W/m² 12,4 °C 18,7 °C 6,4 km/h (2 Bft)
04.07.2017 09:08 18,7 °C 18,7 °C 66 % 1020,7 hPa 0,0 mm 4,0 km/h (1 Bft) NW 324 ° 1 min 0,000 mm 3,3 UV-I 508 W/m² 12,2 °C 18,7 °C 6,4 km/h (2 Bft)
04.07.2017 09:09 18,7 °C 18,7 °C 68 % 1020,7 hPa 0,0 mm 7,3 km/h (2 Bft) N-NW 336 ° 1 min 0,000 mm 3,3 UV-I 510 W/m² 12,7 °C 18,7 °C 11,3 km/h (2 Bft)
04.07.2017 09:10 18,8 °C 18,8 °C 68 % 1020,7 hPa 0,0 mm 6,2 km/h (2 Bft) N-NW 339 ° 1 min 0,000 mm 3,3 UV-I 512 W/m² 12,8 °C 18,8 °C 8,0 km/h (2 Bft)
04.07.2017 09:11 18,8 °C 18,8 °C 67 % 1020,7 hPa 0,0 mm 7,5 km/h (2 Bft) W-NW 287 ° 1 min 0,000 mm 3,4 UV-I 515 W/m² 12,5 °C 18,8 °C 11,3 km/h (2 Bft)
04.07.2017 09:12 18,8 °C 18,8 °C 68 % 1020,7 hPa 0,0 mm 3,8 km/h (1 Bft) NW 322 ° 1 min 0,000 mm 3,4 UV-I 515 W/m² 12,8 °C 18,8 °C 6,4 km/h (2 Bft)
04.07.2017 09:13 18,8 °C 18,8 °C 66 % 1020,7 hPa 0,0 mm 3,0 km/h (1 Bft) NW 325 ° 1 min 0,000 mm 3,4 UV-I 519 W/m² 12,3 °C 18,8 °C 4,8 km/h (1 Bft)
04.07.2017 09:14 18,9 °C 18,9 °C 68 % 1020,7 hPa 0,0 mm 3,2 km/h (1 Bft) W 275 ° 1 min 0,000 mm 3,4 UV-I 527 W/m² 12,9 °C 18,9 °C 4,8 km/h (1 Bft)
04.07.2017 09:15 18,8 °C 18,9 °C 64 % 1020,7 hPa 0,0 mm 6,8 km/h (2 Bft) N-NW 347 ° 1 min 0,000 mm 3,5 UV-I 529 W/m² 11,8 °C 18,8 °C 9,7 km/h (2 Bft)
04.07.2017 09:16 18,8 °C 18,9 °C 68 % 1020,7 hPa 0,0 mm 4,6 km/h (1 Bft) N-NW 331 ° 1 min 0,000 mm 3,5 UV-I 534 W/m² 12,8 °C 18,8 °C 6,4 km/h (2 Bft)
04.07.2017 09:17 18,9 °C 18,9 °C 67 % 1020,7 hPa 0,0 mm 7,6 km/h (2 Bft) NW 320 ° 1 min 0,000 mm 3,5 UV-I 536 W/m² 12,6 °C 18,9 °C 9,7 km/h (2 Bft)
04.07.2017 09:18 18,9 °C 18,9 °C 68 % 1020,7 hPa 0,0 mm 8,7 km/h (2 Bft) W-NW 284 ° 1 min 0,000 mm 3,5 UV-I 540 W/m² 12,9 °C 18,9 °C 11,3 km/h (2 Bft)
04.07.2017 09:19 18,9 °C 18,9 °C 63 % 1020,7 hPa 0,0 mm 6,7 km/h (2 Bft) W-NW 290 ° 1 min 0,000 mm 3,6 UV-I 543 W/m² 11,7 °C 18,9 °C 12,9 km/h (3 Bft)
04.07.2017 09:20 18,9 °C 18,9 °C 67 % 1020,7 hPa 0,0 mm 6,7 km/h (2 Bft) NW 311 ° 1 min 0,000 mm 3,6 UV-I 547 W/m² 12,6 °C 18,9 °C 8,0 km/h (2 Bft)
04.07.2017 09:21 18,9 °C 18,9 °C 67 % 1020,7 hPa 0,0 mm 6,1 km/h (2 Bft) NW 326 ° 1 min 0,000 mm 3,6 UV-I 547 W/m² 12,6 °C 18,9 °C 8,0 km/h (2 Bft)
04.07.2017 09:22 18,9 °C 19,0 °C 66 % 1020,7 hPa 0,0 mm 6,0 km/h (2 Bft) N-NW 331 ° 1 min 0,000 mm 3,6 UV-I 550 W/m² 12,4 °C 18,9 °C 9,7 km/h (2 Bft)
04.07.2017 09:23 18,9 °C 19,0 °C 65 % 1020,7 hPa 0,0 mm 6,3 km/h (2 Bft) N-NW 334 ° 1 min 0,000 mm 3,7 UV-I 555 W/m² 12,2 °C 18,9 °C 8,0 km/h (2 Bft)
04.07.2017 09:24 19,0 °C 19,0 °C 63 % 1020,8 hPa 0,0 mm 5,7 km/h (1 Bft) N-NW 336 ° 1 min 0,000 mm 3,7 UV-I 559 W/m² 11,8 °C 19,0 °C 8,0 km/h (2 Bft)
04.07.2017 09:25 19,0 °C 19,0 °C 67 % 1020,7 hPa 0,0 mm 5,1 km/h (1 Bft) N-NW 329 ° 1 min 0,000 mm 3,7 UV-I 564 W/m² 12,7 °C 19,0 °C 8,0 km/h (2 Bft)
04.07.2017 09:26 19,2 °C 19,2 °C 68 % 1020,7 hPa 0,0 mm 9,3 km/h (2 Bft) NW 307 ° 1 min 0,000 mm 3,8 UV-I 564 W/m² 13,1 °C 19,2 °C 11,3 km/h (2 Bft)
04.07.2017 09:27 19,2 °C 19,2 °C 65 % 1020,8 hPa 0,0 mm 6,0 km/h (2 Bft) W-NW 298 ° 1 min 0,000 mm 3,8 UV-I 568 W/m² 12,5 °C 19,2 °C 9,7 km/h (2 Bft)
04.07.2017 09:28 19,2 °C 19,2 °C 65 % 1020,7 hPa 0,0 mm 6,6 km/h (2 Bft) NW 306 ° 1 min 0,000 mm 3,8 UV-I 564 W/m² 12,5 °C 19,2 °C 9,7 km/h (2 Bft)
04.07.2017 09:29 19,1 °C 19,2 °C 63 % 1020,8 hPa 0,0 mm 4,8 km/h (1 Bft) NW 305 ° 1 min 0,000 mm 3,8 UV-I 570 W/m² 11,9 °C 19,1 °C 6,4 km/h (2 Bft)
04.07.2017 09:30 19,1 °C 19,1 °C 64 % 1020,8 hPa 0,0 mm 5,3 km/h (1 Bft) W-NW 300 ° 1 min 0,000 mm 3,8 UV-I 571 W/m² 12,1 °C 19,1 °C 8,0 km/h (2 Bft)
04.07.2017 09:31 19,0 °C 19,1 °C 64 % 1020,7 hPa 0,0 mm 3,8 km/h (1 Bft) NW 315 ° 1 min 0,000 mm 3,9 UV-I 573 W/m² 12,0 °C 19,0 °C 6,4 km/h (2 Bft)
04.07.2017 09:32 19,1 °C 19,1 °C 68 % 1020,7 hPa 0,0 mm 3,4 km/h (1 Bft) NW 315 ° 1 min 0,000 mm 3,9 UV-I 577 W/m² 13,1 °C 19,1 °C 4,8 km/h (1 Bft)
04.07.2017 09:33 19,2 °C 19,2 °C 69 % 1020,7 hPa 0,0 mm 2,7 km/h (1 Bft) NW 315 ° 1 min 0,000 mm 3,9 UV-I 580 W/m² 13,4 °C 19,2 °C 4,8 km/h (1 Bft)
04.07.2017 09:34 19,2 °C 19,3 °C 63 % 1020,7 hPa 0,0 mm 4,1 km/h (1 Bft) NW 322 ° 1 min 0,000 mm 4,0 UV-I 582 W/m² 12,0 °C 19,2 °C 8,0 km/h (2 Bft)
04.07.2017 09:35 19,3 °C 19,3 °C 64 % 1020,7 hPa 0,0 mm 5,1 km/h (1 Bft) NW 317 ° 1 min 0,000 mm 4,0 UV-I 584 W/m² 12,3 °C 19,3 °C 8,0 km/h (2 Bft)
04.07.2017 09:36 19,2 °C 19,3 °C 62 % 1020,7 hPa 0,0 mm 5,7 km/h (1 Bft) W 270 ° 1 min 0,000 mm 4,0 UV-I 587 W/m² 11,7 °C 19,2 °C 8,0 km/h (2 Bft)
04.07.2017 09:37 19,1 °C 19,2 °C 62 % 1020,7 hPa 0,0 mm 2,5 km/h (1 Bft) NW 307 ° 1 min 0,000 mm 4,0 UV-I 589 W/m² 11,6 °C 19,1 °C 4,8 km/h (1 Bft)
04.07.2017 09:38 19,1 °C 19,1 °C 65 % 1020,7 hPa 0,0 mm 3,2 km/h (1 Bft) N-NO 24 ° 1 min 0,000 mm 4,0 UV-I 591 W/m² 12,4 °C 19,1 °C 6,4 km/h (2 Bft)
04.07.2017 09:39 19,1 °C 19,1 °C 66 % 1020,7 hPa 0,0 mm 3,8 km/h (1 Bft) W-NW 297 ° 1 min 0,000 mm 4,1 UV-I 592 W/m² 12,6 °C 19,1 °C 4,8 km/h (1 Bft)
04.07.2017 09:40 19,1 °C 19,2 °C 65 % 1020,6 hPa 0,0 mm 5,7 km/h (1 Bft) N 360 ° 1 min 0,000 mm 4,1 UV-I 592 W/m² 12,4 °C 19,1 °C 9,7 km/h (2 Bft)
04.07.2017 09:41 19,2 °C 19,2 °C 65 % 1020,7 hPa 0,0 mm 7,4 km/h (2 Bft) W-NW 302 ° 1 min 0,000 mm 4,1 UV-I 596 W/m² 12,5 °C 19,2 °C 9,7 km/h (2 Bft)
04.07.2017 09:42 19,2 °C 19,2 °C 62 % 1020,7 hPa 0,0 mm 4,7 km/h (1 Bft) N-NW 329 ° 1 min 0,000 mm 4,1 UV-I 598 W/m² 11,7 °C 19,2 °C 6,4 km/h (2 Bft)
04.07.2017 09:43 19,2 °C 19,2 °C 64 % 1020,6 hPa 0,0 mm 6,0 km/h (2 Bft) NW 324 ° 1 min 0,000 mm 4,2 UV-I 603 W/m² 12,2 °C 19,2 °C 9,7 km/h (2 Bft)
04.07.2017 09:44 19,3 °C 19,3 °C 67 % 1020,6 hPa 0,0 mm 2,7 km/h (1 Bft) N-NW 334 ° 1 min 0,000 mm 4,2 UV-I 605 W/m² 13,0 °C 19,3 °C 4,8 km/h (1 Bft)
04.07.2017 09:45 19,3 °C 19,3 °C 63 % 1020,6 hPa 0,0 mm 5,8 km/h (2 Bft) N-NW 333 ° 1 min 0,000 mm 4,2 UV-I 605 W/m² 12,1 °C 19,3 °C 8,0 km/h (2 Bft)
04.07.2017 09:46 19,3 °C 19,3 °C 65 % 1020,6 hPa 0,0 mm 4,2 km/h (1 Bft) N-NW 337 ° 1 min 0,000 mm 4,2 UV-I 608 W/m² 12,6 °C 19,3 °C 8,0 km/h (2 Bft)
04.07.2017 09:47 19,3 °C 19,4 °C 61 % 1020,6 hPa 0,0 mm 6,7 km/h (2 Bft) N-NW 345 ° 1 min 0,000 mm 4,3 UV-I 610 W/m² 11,6 °C 19,3 °C 8,0 km/h (2 Bft)
04.07.2017 09:48 19,3 °C 19,3 °C 62 % 1020,6 hPa 0,0 mm 5,1 km/h (1 Bft) N-NW 328 ° 1 min 0,000 mm 4,3 UV-I 615 W/m² 11,8 °C 19,3 °C 6,4 km/h (2 Bft)
04.07.2017 09:49 19,3 °C 19,3 °C 63 % 1020,6 hPa 0,0 mm 4,5 km/h (1 Bft) NW 318 ° 1 min 0,000 mm 4,3 UV-I 619 W/m² 12,1 °C 19,3 °C 6,4 km/h (2 Bft)
04.07.2017 09:50 19,3 °C 19,3 °C 67 % 1020,6 hPa 0,0 mm 3,8 km/h (1 Bft) W-SW 243 ° 1 min 0,000 mm 4,4 UV-I 621 W/m² 13,0 °C 19,3 °C 6,4 km/h (2 Bft)
04.07.2017 09:51 19,4 °C 19,4 °C 64 % 1020,5 hPa 0,0 mm 6,4 km/h (2 Bft) W 278 ° 1 min 0,000 mm 4,4 UV-I 624 W/m² 12,4 °C 19,4 °C 9,7 km/h (2 Bft)
04.07.2017 09:52 19,4 °C 19,5 °C 62 % 1020,5 hPa 0,0 mm 6,6 km/h (2 Bft) W-NW 300 ° 1 min 0,000 mm 4,4 UV-I 626 W/m² 11,9 °C 19,4 °C 9,7 km/h (2 Bft)
04.07.2017 09:53 19,6 °C 19,6 °C 64 % 1020,6 hPa 0,0 mm 5,4 km/h (1 Bft) W 281 ° 1 min 0,000 mm 4,4 UV-I 628 W/m² 12,6 °C 19,6 °C 9,7 km/h (2 Bft)
04.07.2017 09:54 19,7 °C 19,7 °C 66 % 1020,5 hPa 0,0 mm 5,9 km/h (2 Bft) W-NW 293 ° 1 min 0,000 mm 4,4 UV-I 629 W/m² 13,2 °C 19,7 °C 8,0 km/h (2 Bft)
04.07.2017 09:55 19,7 °C 19,7 °C 65 % 1020,5 hPa 0,0 mm 4,7 km/h (1 Bft) NW 318 ° 1 min 0,000 mm 4,5 UV-I 635 W/m² 12,9 °C 19,7 °C 6,4 km/h (2 Bft)
04.07.2017 09:56 19,7 °C 19,8 °C 67 % 1020,5 hPa 0,0 mm 5,2 km/h (1 Bft) W 279 ° 1 min 0,000 mm 4,5 UV-I 638 W/m² 13,4 °C 19,7 °C 6,4 km/h (2 Bft)
04.07.2017 09:57 19,7 °C 19,8 °C 60 % 1020,5 hPa 0,0 mm 7,3 km/h (2 Bft) NW 320 ° 1 min 0,000 mm 4,5 UV-I 640 W/m² 11,7 °C 19,7 °C 11,3 km/h (2 Bft)
04.07.2017 09:58 19,7 °C 19,7 °C 58 % 1020,5 hPa 0,0 mm 4,4 km/h (1 Bft) NW 306 ° 1 min 0,000 mm 4,6 UV-I 643 W/m² 11,2 °C 19,7 °C 8,0 km/h (2 Bft)
04.07.2017 09:59 19,6 °C 19,7 °C 58 % 1020,5 hPa 0,0 mm 3,2 km/h (1 Bft) NW 308 ° 1 min 0,000 mm 4,6 UV-I 645 W/m² 11,1 °C 19,6 °C 4,8 km/h (1 Bft)
04.07.2017 10:00 19,7 °C 19,7 °C 62 % 1020,5 hPa 0,0 mm 6,9 km/h (2 Bft) W-NW 300 ° 1 min 0,356 mm 4,6 UV-I 652 W/m² 12,2 °C 19,7 °C 14,5 km/h (3 Bft)
04.07.2017 10:01 19,7 °C 19,7 °C 61 % 1020,5 hPa 0,0 mm 7,9 km/h (2 Bft) W-NW 299 ° 1 min 0,000 mm 4,7 UV-I 663 W/m² 12,0 °C 19,7 °C 11,3 km/h (2 Bft)
04.07.2017 10:02 19,7 °C 19,7 °C 61 % 1020,5 hPa 0,0 mm 8,1 km/h (2 Bft) W-NW 297 ° 1 min 0,000 mm 4,7 UV-I 668 W/m² 12,0 °C 19,7 °C 14,5 km/h (3 Bft)
04.07.2017 10:03 19,7 °C 19,7 °C 63 % 1020,5 hPa 0,0 mm 9,6 km/h (2 Bft) W-NW 303 ° 1 min 0,000 mm 4,8 UV-I 671 W/m² 12,5 °C 19,7 °C 12,9 km/h (3 Bft)
04.07.2017 10:04 19,7 °C 19,7 °C 60 % 1020,5 hPa 0,0 mm 5,4 km/h (1 Bft) W-NW 287 ° 1 min 0,000 mm 4,8 UV-I 675 W/m² 11,7 °C 19,7 °C 6,4 km/h (2 Bft)
04.07.2017 10:05 19,7 °C 19,7 °C 60 % 1020,5 hPa 0,0 mm 4,1 km/h (1 Bft) W-SW 243 ° 1 min 0,000 mm 4,8 UV-I 677 W/m² 11,7 °C 19,7 °C 9,7 km/h (2 Bft)
04.07.2017 10:06 19,7 °C 19,7 °C 63 % 1020,4 hPa 0,0 mm 8,3 km/h (2 Bft) W 267 ° 1 min 0,000 mm 4,8 UV-I 679 W/m² 12,5 °C 19,7 °C 12,9 km/h (3 Bft)
04.07.2017 10:07 19,8 °C 19,8 °C 62 % 1020,5 hPa 0,0 mm 8,5 km/h (2 Bft) W-SW 248 ° 1 min 0,000 mm 4,8 UV-I 684 W/m² 12,3 °C 19,8 °C 11,3 km/h (2 Bft)
04.07.2017 10:08 19,8 °C 19,8 °C 59 % 1020,4 hPa 0,0 mm 12,1 km/h (2 Bft) W 275 ° 1 min 0,000 mm 4,9 UV-I 687 W/m² 11,6 °C 19,8 °C 17,7 km/h (3 Bft)
04.07.2017 10:09 19,7 °C 19,8 °C 59 % 1020,5 hPa 0,0 mm 5,0 km/h (1 Bft) W 273 ° 1 min 0,000 mm 4,9 UV-I 696 W/m² 11,5 °C 19,7 °C 14,5 km/h (3 Bft)
04.07.2017 10:10 19,7 °C 19,7 °C 60 % 1020,5 hPa 0,0 mm 10,1 km/h (2 Bft) W-NW 286 ° 1 min 0,000 mm 4,9 UV-I 700 W/m² 11,7 °C 19,7 °C 14,5 km/h (3 Bft)
04.07.2017 10:11 19,7 °C 19,7 °C 59 % 1020,5 hPa 0,0 mm 8,2 km/h (2 Bft) W-NW 302 ° 1 min 0,000 mm 5,0 UV-I 703 W/m² 11,5 °C 19,7 °C 16,1 km/h (3 Bft)
04.07.2017 10:12 19,7 °C 19,7 °C 61 % 1020,5 hPa 0,0 mm 6,6 km/h (2 Bft) W-NW 288 ° 1 min 0,000 mm 5,0 UV-I 707 W/m² 12,0 °C 19,7 °C 12,9 km/h (3 Bft)
04.07.2017 10:13 19,7 °C 19,7 °C 59 % 1020,4 hPa 0,0 mm 7,7 km/h (2 Bft) W-NW 288 ° 1 min 0,000 mm 5,0 UV-I 707 W/m² 11,5 °C 19,7 °C 12,9 km/h (3 Bft)
04.07.2017 10:14 19,7 °C 19,7 °C 62 % 1020,4 hPa 0,0 mm 8,8 km/h (2 Bft) N-NW 338 ° 1 min 0,000 mm 5,0 UV-I 708 W/m² 12,2 °C 19,7 °C 14,5 km/h (3 Bft)
04.07.2017 10:15 19,8 °C 19,8 °C 63 % 1020,4 hPa 0,0 mm 6,3 km/h (2 Bft) N-NW 329 ° 1 min 0,000 mm 5,1 UV-I 710 W/m² 12,5 °C 19,8 °C 8,0 km/h (2 Bft)
04.07.2017 10:16 19,9 °C 19,9 °C 62 % 1020,3 hPa 0,0 mm 9,1 km/h (2 Bft) W-NW 298 ° 1 min 0,000 mm 5,1 UV-I 714 W/m² 12,4 °C 19,9 °C 12,9 km/h (3 Bft)
04.07.2017 10:17 20,0 °C 20,0 °C 62 % 1020,3 hPa 0,0 mm 7,8 km/h (2 Bft) W-NW 296 ° 1 min 0,000 mm 5,1 UV-I 717 W/m² 12,5 °C 20,0 °C 11,3 km/h (2 Bft)
04.07.2017 10:18 20,0 °C 20,0 °C 62 % 1020,4 hPa 0,0 mm 7,6 km/h (2 Bft) NW 305 ° 1 min 0,000 mm 5,2 UV-I 728 W/m² 12,5 °C 20,0 °C 12,9 km/h (3 Bft)
04.07.2017 10:19 20,1 °C 20,1 °C 62 % 1020,4 hPa 0,0 mm 6,9 km/h (2 Bft) W 266 ° 1 min 0,000 mm 5,2 UV-I 724 W/m² 12,6 °C 20,1 °C 11,3 km/h (2 Bft)
04.07.2017 10:20 20,1 °C 20,1 °C 60 % 1020,3 hPa 0,0 mm 7,2 km/h (2 Bft) W-NW 290 ° 1 min 0,000 mm 5,2 UV-I 724 W/m² 12,1 °C 20,1 °C 12,9 km/h (3 Bft)
04.07.2017 10:21 20,1 °C 20,1 °C 58 % 1020,3 hPa 0,0 mm 7,0 km/h (2 Bft) NW 325 ° 1 min 0,000 mm 5,2 UV-I 722 W/m² 11,6 °C 20,1 °C 11,3 km/h (2 Bft)
04.07.2017 10:22 20,3 °C 20,3 °C 66 % 1020,4 hPa 0,0 mm 6,3 km/h (2 Bft) W 267 ° 1 min 0,000 mm 5,3 UV-I 724 W/m² 13,7 °C 20,3 °C 11,3 km/h (2 Bft)
04.07.2017 10:23 20,4 °C 20,4 °C 63 % 1020,4 hPa 0,0 mm 6,4 km/h (2 Bft) W 269 ° 1 min 0,000 mm 5,3 UV-I 724 W/m² 13,1 °C 20,4 °C 11,3 km/h (2 Bft)
04.07.2017 10:24 20,4 °C 20,4 °C 60 % 1020,3 hPa 0,0 mm 5,7 km/h (1 Bft) NW 307 ° 1 min 0,000 mm 5,3 UV-I 726 W/m² 12,4 °C 20,4 °C 9,7 km/h (2 Bft)
04.07.2017 10:25 20,3 °C 20,4 °C 56 % 1020,4 hPa 0,0 mm 4,6 km/h (1 Bft) N-NW 329 ° 1 min 0,000 mm 5,3 UV-I 728 W/m² 11,2 °C 20,3 °C 6,4 km/h (2 Bft)
04.07.2017 10:26 20,3 °C 20,3 °C 60 % 1020,3 hPa 0,0 mm 3,0 km/h (1 Bft) N-NW 335 ° 1 min 0,000 mm 5,4 UV-I 731 W/m² 12,3 °C 20,3 °C 6,4 km/h (2 Bft)
04.07.2017 10:27 20,3 °C 20,3 °C 57 % 1020,4 hPa 0,0 mm 2,9 km/h (1 Bft) NW 311 ° 1 min 0,000 mm 5,4 UV-I 733 W/m² 11,5 °C 20,3 °C 4,8 km/h (1 Bft)
04.07.2017 10:28 20,3 °C 20,3 °C 60 % 1020,3 hPa 0,0 mm 3,6 km/h (1 Bft) N-NW 337 ° 1 min 0,000 mm 5,4 UV-I 731 W/m² 12,3 °C 20,3 °C 6,4 km/h (2 Bft)
04.07.2017 10:29 20,3 °C 20,3 °C 62 % 1020,3 hPa 0,0 mm 6,3 km/h (2 Bft) W 266 ° 1 min 0,000 mm 5,4 UV-I 735 W/m² 12,8 °C 20,3 °C 11,3 km/h (2 Bft)
04.07.2017 10:30 20,4 °C 20,4 °C 60 % 1020,3 hPa 0,0 mm 10,1 km/h (2 Bft) NW 311 ° 1 min 0,000 mm 5,4 UV-I 740 W/m² 12,4 °C 20,4 °C 17,7 km/h (3 Bft)
04.07.2017 10:31 20,6 °C 20,6 °C 61 % 1020,3 hPa 0,0 mm 7,2 km/h (2 Bft) NW 318 ° 1 min 0,000 mm 5,4 UV-I 731 W/m² 12,8 °C 20,6 °C 14,5 km/h (3 Bft)
04.07.2017 10:32 20,6 °C 20,6 °C 64 % 1020,3 hPa 0,0 mm 6,4 km/h (2 Bft) NW 315 ° 1 min 0,000 mm 5,4 UV-I 729 W/m² 13,5 °C 20,6 °C 8,0 km/h (2 Bft)
04.07.2017 10:33 20,6 °C 20,6 °C 61 % 1020,3 hPa 0,0 mm 8,7 km/h (2 Bft) NW 321 ° 1 min 0,000 mm 5,4 UV-I 726 W/m² 12,8 °C 20,6 °C 12,9 km/h (3 Bft)
04.07.2017 10:34 20,5 °C 20,6 °C 58 % 1020,3 hPa 0,0 mm 4,1 km/h (1 Bft) NW 304 ° 1 min 0,000 mm 5,5 UV-I 729 W/m² 11,9 °C 20,5 °C 9,7 km/h (2 Bft)
04.07.2017 10:35 20,4 °C 20,5 °C 59 % 1020,3 hPa 0,0 mm 6,3 km/h (2 Bft) N-NW 335 ° 1 min 0,000 mm 5,5 UV-I 731 W/m² 12,1 °C 20,4 °C 9,7 km/h (2 Bft)
04.07.2017 10:36 20,4 °C 20,4 °C 62 % 1020,3 hPa 0,0 mm 7,4 km/h (2 Bft) N-NW 327 ° 1 min 0,000 mm 5,5 UV-I 731 W/m² 12,9 °C 20,4 °C 12,9 km/h (3 Bft)
04.07.2017 10:37 20,4 °C 20,4 °C 61 % 1020,3 hPa 0,0 mm 12,8 km/h (3 Bft) W-NW 300 ° 1 min 0,000 mm 5,6 UV-I 733 W/m² 12,6 °C 20,4 °C 16,1 km/h (3 Bft)
04.07.2017 10:38 20,4 °C 20,5 °C 61 % 1020,3 hPa 0,0 mm 6,1 km/h (2 Bft) N 355 ° 1 min 0,000 mm 5,6 UV-I 735 W/m² 12,6 °C 20,4 °C 9,7 km/h (2 Bft)
04.07.2017 10:39 20,4 °C 20,4 °C 59 % 1020,3 hPa 0,0 mm 4,5 km/h (1 Bft) NW 308 ° 1 min 0,000 mm 5,6 UV-I 737 W/m² 12,1 °C 20,4 °C 8,0 km/h (2 Bft)
04.07.2017 10:40 20,3 °C 20,4 °C 58 % 1020,3 hPa 0,0 mm 9,0 km/h (2 Bft) W-NW 286 ° 1 min 0,000 mm 5,6 UV-I 737 W/m² 11,8 °C 20,3 °C 14,5 km/h (3 Bft)
04.07.2017 10:41 20,2 °C 20,3 °C 58 % 1020,3 hPa 0,0 mm 6,2 km/h (2 Bft) W-NW 282 ° 1 min 0,000 mm 5,6 UV-I 738 W/m² 11,7 °C 20,2 °C 12,9 km/h (3 Bft)
04.07.2017 10:42 20,2 °C 20,2 °C 57 % 1020,3 hPa 0,0 mm 7,3 km/h (2 Bft) W-NW 300 ° 1 min 0,000 mm 5,7 UV-I 742 W/m² 11,4 °C 20,2 °C 12,9 km/h (3 Bft)
04.07.2017 10:43 20,2 °C 20,2 °C 60 % 1020,2 hPa 0,0 mm 5,5 km/h (1 Bft) NW 320 ° 1 min 0,000 mm 5,7 UV-I 742 W/m² 12,2 °C 20,2 °C 9,7 km/h (2 Bft)
04.07.2017 10:44 20,2 °C 20,2 °C 60 % 1020,1 hPa 0,0 mm 9,3 km/h (2 Bft) NW 324 ° 1 min 0,000 mm 5,7 UV-I 742 W/m² 12,2 °C 20,2 °C 12,9 km/h (3 Bft)
04.07.2017 10:45 20,3 °C 20,3 °C 64 % 1020,1 hPa 0,0 mm 8,4 km/h (2 Bft) NW 307 ° 1 min 0,000 mm 5,7 UV-I 745 W/m² 13,3 °C 20,3 °C 12,9 km/h (3 Bft)
04.07.2017 10:46 20,4 °C 20,4 °C 61 % 1020,2 hPa 0,0 mm 5,3 km/h (1 Bft) N-NW 340 ° 1 min 0,000 mm 5,7 UV-I 747 W/m² 12,6 °C 20,4 °C 9,7 km/h (2 Bft)
04.07.2017 10:47 20,6 °C 20,6 °C 62 % 1020,2 hPa 0,0 mm 7,9 km/h (2 Bft) N-NW 334 ° 1 min 0,000 mm 5,7 UV-I 745 W/m² 13,1 °C 20,6 °C 12,9 km/h (3 Bft)
04.07.2017 10:48 20,6 °C 20,6 °C 58 % 1020,2 hPa 0,0 mm 6,7 km/h (2 Bft) N-NW 327 ° 1 min 0,000 mm 5,7 UV-I 756 W/m² 12,0 °C 20,6 °C 9,7 km/h (2 Bft)
04.07.2017 10:49 20,7 °C 20,7 °C 61 % 1020,1 hPa 0,0 mm 7,0 km/h (2 Bft) NW 324 ° 1 min 0,000 mm 5,8 UV-I 763 W/m² 12,9 °C 20,7 °C 11,3 km/h (2 Bft)
04.07.2017 10:50 20,6 °C 20,7 °C 59 % 1020,2 hPa 0,0 mm 7,1 km/h (2 Bft) NW 321 ° 1 min 0,000 mm 5,8 UV-I 749 W/m² 12,3 °C 20,6 °C 9,7 km/h (2 Bft)
04.07.2017 10:51 20,6 °C 20,6 °C 63 % 1020,2 hPa 0,0 mm 6,0 km/h (2 Bft) N 5 ° 1 min 0,000 mm 5,8 UV-I 752 W/m² 13,3 °C 20,6 °C 11,3 km/h (2 Bft)
04.07.2017 10:52 20,6 °C 20,6 °C 59 % 1020,1 hPa 0,0 mm 6,5 km/h (2 Bft) W-NW 290 ° 1 min 0,000 mm 5,8 UV-I 756 W/m² 12,3 °C 20,6 °C 12,9 km/h (3 Bft)
04.07.2017 10:53 20,7 °C 20,7 °C 59 % 1020,2 hPa 0,0 mm 6,6 km/h (2 Bft) N-NW 339 ° 1 min 0,000 mm 5,9 UV-I 765 W/m² 12,4 °C 20,7 °C 12,9 km/h (3 Bft)
04.07.2017 10:54 20,7 °C 20,7 °C 59 % 1020,2 hPa 0,0 mm 8,1 km/h (2 Bft) NW 313 ° 1 min 0,000 mm 5,9 UV-I 765 W/m² 12,4 °C 20,7 °C 14,5 km/h (3 Bft)
04.07.2017 10:55 20,7 °C 20,7 °C 60 % 1020,2 hPa 0,0 mm 6,9 km/h (2 Bft) NW 309 ° 1 min 0,000 mm 5,9 UV-I 768 W/m² 12,7 °C 20,7 °C 9,7 km/h (2 Bft)
04.07.2017 10:56 20,6 °C 20,7 °C 60 % 1020,2 hPa 0,0 mm 6,6 km/h (2 Bft) NW 323 ° 1 min 0,000 mm 5,9 UV-I 770 W/m² 12,6 °C 20,6 °C 9,7 km/h (2 Bft)
04.07.2017 10:57 20,6 °C 20,6 °C 60 % 1020,1 hPa 0,0 mm 11,1 km/h (2 Bft) N 349 ° 1 min 0,000 mm 6,0 UV-I 772 W/m² 12,6 °C 20,6 °C 16,1 km/h (3 Bft)
04.07.2017 10:58 20,6 °C 20,6 °C 60 % 1020,1 hPa 0,0 mm 7,5 km/h (2 Bft) NW 310 ° 1 min 0,000 mm 6,0 UV-I 775 W/m² 12,6 °C 20,6 °C 12,9 km/h (3 Bft)
04.07.2017 10:59 20,6 °C 20,6 °C 60 % 1020,1 hPa 0,0 mm 3,8 km/h (1 Bft) NW 309 ° 1 min 0,000 mm 6,0 UV-I 777 W/m² 12,6 °C 20,6 °C 8,0 km/h (2 Bft)
04.07.2017 11:00 20,7 °C 20,7 °C 62 % 1020,2 hPa 0,0 mm 6,7 km/h (2 Bft) N 355 ° 1 min 0,000 mm 6,1 UV-I 780 W/m² 13,2 °C 20,7 °C 9,7 km/h (2 Bft)
04.07.2017 11:01 20,7 °C 20,7 °C 61 % 1020,1 hPa 0,0 mm 8,6 km/h (2 Bft) N-NW 327 ° 1 min 0,457 mm 6,1 UV-I 788 W/m² 12,9 °C 20,7 °C 14,5 km/h (3 Bft)
04.07.2017 11:02 20,7 °C 20,7 °C 59 % 1020,1 hPa 0,0 mm 9,1 km/h (2 Bft) N-NW 338 ° 1 min 0,000 mm 6,2 UV-I 789 W/m² 12,4 °C 20,7 °C 12,9 km/h (3 Bft)
04.07.2017 11:03 20,7 °C 20,7 °C 62 % 1020,1 hPa 0,0 mm 8,1 km/h (2 Bft) NW 317 ° 1 min 0,000 mm 6,2 UV-I 789 W/m² 13,2 °C 20,7 °C 12,9 km/h (3 Bft)
04.07.2017 11:04 20,7 °C 20,7 °C 60 % 1020,0 hPa 0,0 mm 7,4 km/h (2 Bft) W-NW 300 ° 1 min 0,000 mm 6,2 UV-I 789 W/m² 12,7 °C 20,7 °C 11,3 km/h (2 Bft)
04.07.2017 11:05 20,7 °C 20,7 °C 60 % 1020,1 hPa 0,0 mm 5,6 km/h (1 Bft) W-NW 292 ° 1 min 0,000 mm 6,2 UV-I 795 W/m² 12,7 °C 20,7 °C 8,0 km/h (2 Bft)
04.07.2017 11:06 20,6 °C 20,7 °C 58 % 1020,1 hPa 0,0 mm 7,3 km/h (2 Bft) W-NW 298 ° 1 min 0,000 mm 6,2 UV-I 796 W/m² 12,0 °C 20,6 °C 11,3 km/h (2 Bft)
04.07.2017 11:07 20,5 °C 20,6 °C 58 % 1020,0 hPa 0,0 mm 8,2 km/h (2 Bft) N-NO 26 ° 1 min 0,000 mm 6,3 UV-I 795 W/m² 11,9 °C 20,5 °C 12,9 km/h (3 Bft)
04.07.2017 11:08 20,6 °C 20,6 °C 61 % 1020,1 hPa 0,0 mm 6,7 km/h (2 Bft) N-NW 336 ° 1 min 0,000 mm 6,3 UV-I 798 W/m² 12,8 °C 20,6 °C 11,3 km/h (2 Bft)
04.07.2017 11:09 20,6 °C 20,6 °C 59 % 1020,1 hPa 0,0 mm 8,4 km/h (2 Bft) W-NW 292 ° 1 min 0,000 mm 6,3 UV-I 798 W/m² 12,3 °C 20,6 °C 11,3 km/h (2 Bft)
04.07.2017 11:10 20,7 °C 20,7 °C 61 % 1020,0 hPa 0,0 mm 9,3 km/h (2 Bft) NW 304 ° 1 min 0,000 mm 6,3 UV-I 803 W/m² 12,9 °C 20,7 °C 14,5 km/h (3 Bft)
04.07.2017 11:11 20,8 °C 20,8 °C 62 % 1020,0 hPa 0,0 mm 10,2 km/h (2 Bft) NW 305 ° 1 min 0,000 mm 6,3 UV-I 800 W/m² 13,2 °C 20,8 °C 16,1 km/h (3 Bft)
04.07.2017 11:12 20,9 °C 20,9 °C 62 % 1020,0 hPa 0,0 mm 7,5 km/h (2 Bft) N-NW 348 ° 1 min 0,000 mm 6,4 UV-I 803 W/m² 13,3 °C 20,9 °C 16,1 km/h (3 Bft)
04.07.2017 11:13 20,9 °C 20,9 °C 61 % 1020,0 hPa 0,0 mm 12,6 km/h (3 Bft) W-NW 300 ° 1 min 0,000 mm 6,4 UV-I 802 W/m² 13,1 °C 20,9 °C 17,7 km/h (3 Bft)
04.07.2017 11:14 20,9 °C 21,0 °C 62 % 1020,0 hPa 0,0 mm 10,2 km/h (2 Bft) N-NW 345 ° 1 min 0,000 mm 6,4 UV-I 803 W/m² 13,3 °C 20,9 °C 14,5 km/h (3 Bft)
04.07.2017 11:15 20,9 °C 20,9 °C 58 % 1020,0 hPa 0,0 mm 5,7 km/h (1 Bft) NW 309 ° 1 min 0,000 mm 6,4 UV-I 805 W/m² 12,3 °C 20,9 °C 9,7 km/h (2 Bft)
04.07.2017 11:16 20,8 °C 20,9 °C 60 % 1020,0 hPa 0,0 mm 5,6 km/h (1 Bft) NW 316 ° 1 min 0,000 mm 6,4 UV-I 803 W/m² 12,7 °C 20,8 °C 9,7 km/h (2 Bft)
04.07.2017 11:17 20,8 °C 20,8 °C 60 % 1020,0 hPa 0,0 mm 8,4 km/h (2 Bft) NW 309 ° 1 min 0,000 mm 6,4 UV-I 807 W/m² 12,7 °C 20,8 °C 12,9 km/h (3 Bft)
04.07.2017 11:18 20,8 °C 20,8 °C 55 % 1020,0 hPa 0,0 mm 7,8 km/h (2 Bft) N 5 ° 1 min 0,000 mm 6,5 UV-I 809 W/m² 11,4 °C 20,8 °C 12,9 km/h (3 Bft)
04.07.2017 11:19 20,8 °C 20,8 °C 60 % 1020,0 hPa 0,0 mm 7,8 km/h (2 Bft) NW 305 ° 1 min 0,000 mm 6,5 UV-I 810 W/m² 12,7 °C 20,8 °C 9,7 km/h (2 Bft)
04.07.2017 11:20 20,8 °C 20,8 °C 60 % 1019,9 hPa 0,0 mm 7,1 km/h (2 Bft) N-NW 330 ° 1 min 0,000 mm 6,5 UV-I 814 W/m² 12,7 °C 20,8 °C 12,9 km/h (3 Bft)
04.07.2017 11:21 20,9 °C 20,9 °C 59 % 1019,9 hPa 0,0 mm 7,2 km/h (2 Bft) N-NW 348 ° 1 min 0,000 mm 6,6 UV-I 817 W/m² 12,6 °C 20,9 °C 9,7 km/h (2 Bft)
04.07.2017 11:22 21,0 °C 21,0 °C 60 % 1019,9 hPa 0,0 mm 5,7 km/h (1 Bft) NW 306 ° 1 min 0,000 mm 6,6 UV-I 819 W/m² 12,9 °C 21,0 °C 16,1 km/h (3 Bft)
04.07.2017 11:23 21,1 °C 21,1 °C 60 % 1019,9 hPa 0,0 mm 11,7 km/h (2 Bft) N-NW 328 ° 1 min 0,000 mm 6,6 UV-I 823 W/m² 13,0 °C 21,1 °C 17,7 km/h (3 Bft)
04.07.2017 11:24 21,1 °C 21,1 °C 56 % 1019,9 hPa 0,0 mm 9,5 km/h (2 Bft) N 355 ° 1 min 0,000 mm 6,6 UV-I 823 W/m² 12,0 °C 21,1 °C 16,1 km/h (3 Bft)
04.07.2017 11:25 21,0 °C 21,1 °C 57 % 1019,9 hPa 0,0 mm 9,5 km/h (2 Bft) NW 318 ° 1 min 0,000 mm 6,6 UV-I 826 W/m² 12,1 °C 21,0 °C 12,9 km/h (3 Bft)
04.07.2017 11:26 21,1 °C 21,1 °C 62 % 1019,8 hPa 0,0 mm 8,0 km/h (2 Bft) W-NW 290 ° 1 min 0,000 mm 6,6 UV-I 831 W/m² 13,5 °C 21,1 °C 14,5 km/h (3 Bft)
04.07.2017 11:27 21,0 °C 21,1 °C 59 % 1019,8 hPa 0,0 mm 6,2 km/h (2 Bft) W-NW 302 ° 1 min 0,000 mm 6,6 UV-I 835 W/m² 12,7 °C 21,0 °C 9,7 km/h (2 Bft)
04.07.2017 11:28 21,1 °C 21,1 °C 59 % 1019,8 hPa 0,0 mm 8,8 km/h (2 Bft) NW 321 ° 1 min 0,000 mm 6,7 UV-I 837 W/m² 12,8 °C 21,1 °C 11,3 km/h (2 Bft)
04.07.2017 11:29 21,0 °C 21,1 °C 58 % 1019,8 hPa 0,0 mm 7,2 km/h (2 Bft) N-NW 336 ° 1 min 0,000 mm 6,7 UV-I 837 W/m² 12,4 °C 21,0 °C 12,9 km/h (3 Bft)
04.07.2017 11:30 21,0 °C 21,1 °C 59 % 1019,9 hPa 0,0 mm 6,8 km/h (2 Bft) W 279 ° 1 min 0,000 mm 6,7 UV-I 837 W/m² 12,7 °C 21,0 °C 9,7 km/h (2 Bft)
04.07.2017 11:31 21,0 °C 21,1 °C 57 % 1019,8 hPa 0,0 mm 8,6 km/h (2 Bft) W 275 ° 1 min 0,000 mm 6,8 UV-I 847 W/m² 12,1 °C 21,0 °C 14,5 km/h (3 Bft)
04.07.2017 11:32 21,1 °C 21,1 °C 57 % 1019,9 hPa 0,0 mm 10,4 km/h (2 Bft) N-NW 331 ° 1 min 0,000 mm 6,8 UV-I 853 W/m² 12,2 °C 21,1 °C 17,7 km/h (3 Bft)
04.07.2017 11:33 21,2 °C 21,2 °C 59 % 1019,8 hPa 0,0 mm 8,0 km/h (2 Bft) NW 312 ° 1 min 0,000 mm 6,8 UV-I 858 W/m² 12,9 °C 21,2 °C 14,5 km/h (3 Bft)
04.07.2017 11:34 21,2 °C 21,2 °C 56 % 1019,9 hPa 0,0 mm 12,5 km/h (3 Bft) NW 312 ° 1 min 0,000 mm 5,0 UV-I 858 W/m² 12,1 °C 21,2 °C 17,7 km/h (3 Bft)
04.07.2017 11:35 21,1 °C 21,2 °C 55 % 1019,8 hPa 0,0 mm 8,3 km/h (2 Bft) NW 319 ° 1 min 0,000 mm 6,8 UV-I 849 W/m² 11,7 °C 21,1 °C 12,9 km/h (3 Bft)
04.07.2017 11:36 21,1 °C 21,1 °C 56 % 1019,8 hPa 0,0 mm 6,0 km/h (2 Bft) N-NW 327 ° 1 min 0,000 mm 6,7 UV-I 840 W/m² 12,0 °C 21,1 °C 11,3 km/h (2 Bft)
04.07.2017 11:37 21,0 °C 21,1 °C 55 % 1019,8 hPa 0,0 mm 6,8 km/h (2 Bft) NW 304 ° 1 min 0,000 mm 6,8 UV-I 844 W/m² 11,6 °C 21,0 °C 11,3 km/h (2 Bft)
04.07.2017 11:38 21,1 °C 21,1 °C 58 % 1019,8 hPa 0,0 mm 7,0 km/h (2 Bft) N-NW 329 ° 1 min 0,000 mm 6,9 UV-I 844 W/m² 12,5 °C 21,1 °C 11,3 km/h (2 Bft)
04.07.2017 11:39 21,2 °C 21,2 °C 60 % 1019,8 hPa 0,0 mm 7,9 km/h (2 Bft) NW 317 ° 1 min 0,000 mm 6,9 UV-I 847 W/m² 13,1 °C 21,2 °C 12,9 km/h (3 Bft)
04.07.2017 11:40 21,2 °C 21,2 °C 57 % 1019,8 hPa 0,0 mm 4,4 km/h (1 Bft) N-NW 336 ° 1 min 0,000 mm 6,9 UV-I 849 W/m² 12,3 °C 21,2 °C 6,4 km/h (2 Bft)
04.07.2017 11:41 21,2 °C 21,2 °C 55 % 1019,8 hPa 0,0 mm 8,0 km/h (2 Bft) W-NW 282 ° 1 min 0,000 mm 6,9 UV-I 849 W/m² 11,8 °C 21,2 °C 12,9 km/h (3 Bft)
04.07.2017 11:42 21,2 °C 21,2 °C 56 % 1019,8 hPa 0,0 mm 5,8 km/h (2 Bft) W-NW 300 ° 1 min 0,000 mm 7,0 UV-I 851 W/m² 12,1 °C 21,2 °C 12,9 km/h (3 Bft)
04.07.2017 11:43 21,2 °C 21,2 °C 59 % 1019,7 hPa 0,0 mm 5,8 km/h (2 Bft) NW 323 ° 1 min 0,000 mm 6,9 UV-I 851 W/m² 12,9 °C 21,2 °C 8,0 km/h (2 Bft)
04.07.2017 11:44 21,3 °C 21,3 °C 60 % 1019,7 hPa 0,0 mm 7,7 km/h (2 Bft) NW 325 ° 1 min 0,000 mm 7,0 UV-I 849 W/m² 13,2 °C 21,3 °C 12,9 km/h (3 Bft)
04.07.2017 11:45 21,4 °C 21,4 °C 58 % 1019,7 hPa 0,0 mm 7,8 km/h (2 Bft) N-NO 30 ° 1 min 0,000 mm 7,0 UV-I 853 W/m² 12,8 °C 21,4 °C 16,1 km/h (3 Bft)
04.07.2017 11:46 21,4 °C 21,4 °C 58 % 1019,7 hPa 0,0 mm 9,9 km/h (2 Bft) NW 313 ° 1 min 0,000 mm 7,0 UV-I 851 W/m² 12,8 °C 21,4 °C 17,7 km/h (3 Bft)
04.07.2017 11:47 21,4 °C 21,5 °C 60 % 1019,7 hPa 0,0 mm 6,6 km/h (2 Bft) N-NW 333 ° 1 min 0,000 mm 7,0 UV-I 853 W/m² 13,3 °C 21,4 °C 11,3 km/h (2 Bft)
04.07.2017 11:48 21,4 °C 21,4 °C 59 % 1019,7 hPa 0,0 mm 5,1 km/h (1 Bft) N-NW 331 ° 1 min 0,000 mm 7,0 UV-I 853 W/m² 13,0 °C 21,4 °C 8,0 km/h (2 Bft)
04.07.2017 11:49 21,4 °C 21,4 °C 56 % 1019,7 hPa 0,0 mm 8,5 km/h (2 Bft) W-NW 299 ° 1 min 0,000 mm 7,1 UV-I 856 W/m² 12,3 °C 21,4 °C 12,9 km/h (3 Bft)
04.07.2017 11:50 21,4 °C 21,4 °C 57 % 1019,7 hPa 0,0 mm 8,4 km/h (2 Bft) W-SW 256 ° 1 min 0,000 mm 7,1 UV-I 856 W/m² 12,5 °C 21,4 °C 12,9 km/h (3 Bft)
04.07.2017 11:51 21,3 °C 21,4 °C 57 % 1019,6 hPa 0,0 mm 10,0 km/h (2 Bft) N-NW 330 ° 1 min 0,000 mm 7,1 UV-I 858 W/m² 12,4 °C 21,3 °C 12,9 km/h (3 Bft)
04.07.2017 11:52 21,3 °C 21,3 °C 56 % 1019,7 hPa 0,0 mm 10,9 km/h (2 Bft) W-NW 292 ° 1 min 0,000 mm 7,1 UV-I 863 W/m² 12,2 °C 21,3 °C 16,1 km/h (3 Bft)
04.07.2017 11:53 21,2 °C 21,3 °C 55 % 1019,7 hPa 0,0 mm 10,8 km/h (2 Bft) W-NW 303 ° 1 min 0,000 mm 7,1 UV-I 863 W/m² 11,8 °C 21,2 °C 17,7 km/h (3 Bft)
04.07.2017 11:54 21,1 °C 21,2 °C 52 % 1019,6 hPa 0,0 mm 8,7 km/h (2 Bft) W-NW 285 ° 1 min 0,000 mm 7,1 UV-I 865 W/m² 10,9 °C 21,1 °C 11,3 km/h (2 Bft)
04.07.2017 11:55 21,2 °C 21,2 °C 57 % 1019,6 hPa 0,0 mm 7,1 km/h (2 Bft) W-SW 245 ° 1 min 0,000 mm 7,1 UV-I 867 W/m² 12,3 °C 21,2 °C 12,9 km/h (3 Bft)
04.07.2017 11:56 21,2 °C 21,2 °C 56 % 1019,6 hPa 0,0 mm 8,3 km/h (2 Bft) W-NW 290 ° 1 min 0,000 mm 7,1 UV-I 867 W/m² 12,1 °C 21,2 °C 14,5 km/h (3 Bft)
04.07.2017 11:57 21,2 °C 21,2 °C 57 % 1019,6 hPa 0,0 mm 4,1 km/h (1 Bft) W-NW 284 ° 1 min 0,000 mm 7,2 UV-I 868 W/m² 12,3 °C 21,2 °C 4,8 km/h (1 Bft)
04.07.2017 11:58 21,2 °C 21,2 °C 56 % 1019,6 hPa 0,0 mm 4,9 km/h (1 Bft) W 271 ° 1 min 0,000 mm 7,2 UV-I 870 W/m² 12,1 °C 21,2 °C 6,4 km/h (2 Bft)
04.07.2017 11:59 21,3 °C 21,3 °C 59 % 1019,7 hPa 0,0 mm 4,1 km/h (1 Bft) W-NW 294 ° 1 min 0,000 mm 7,2 UV-I 870 W/m² 13,0 °C 21,3 °C 6,4 km/h (2 Bft)
04.07.2017 12:00 21,4 °C 21,4 °C 58 % 1019,6 hPa 0,0 mm 4,2 km/h (1 Bft) W-NW 302 ° 1 min 0,533 mm 7,2 UV-I 868 W/m² 12,8 °C 21,4 °C 8,0 km/h (2 Bft)
04.07.2017 12:01 21,3 °C 21,4 °C 53 % 1019,6 hPa 0,0 mm 7,9 km/h (2 Bft) NW 325 ° 1 min 0,000 mm 7,2 UV-I 874 W/m² 11,3 °C 21,3 °C 12,9 km/h (3 Bft)
04.07.2017 12:02 21,4 °C 21,4 °C 54 % 1019,6 hPa 0,0 mm 6,8 km/h (2 Bft) N-NW 334 ° 1 min 0,000 mm 7,2 UV-I 874 W/m² 11,7 °C 21,4 °C 12,9 km/h (3 Bft)
04.07.2017 12:03 21,4 °C 21,4 °C 59 % 1019,7 hPa 0,0 mm 4,8 km/h (1 Bft) N-NW 333 ° 1 min 0,000 mm 7,2 UV-I 875 W/m² 13,0 °C 21,4 °C 8,0 km/h (2 Bft)
04.07.2017 12:04 21,5 °C 21,5 °C 62 % 1019,6 hPa 0,0 mm 7,4 km/h (2 Bft) NW 304 ° 1 min 0,000 mm 7,2 UV-I 879 W/m² 13,9 °C 21,5 °C 11,3 km/h (2 Bft)
04.07.2017 12:05 21,6 °C 21,6 °C 60 % 1019,6 hPa 0,0 mm 5,8 km/h (2 Bft) NW 316 ° 1 min 0,000 mm 7,3 UV-I 879 W/m² 13,5 °C 21,6 °C 6,4 km/h (2 Bft)
04.07.2017 12:06 21,6 °C 21,6 °C 54 % 1019,6 hPa 0,0 mm 6,6 km/h (2 Bft) N-NW 329 ° 1 min 0,000 mm 7,3 UV-I 877 W/m² 11,9 °C 21,6 °C 9,7 km/h (2 Bft)
04.07.2017 12:07 21,5 °C 21,6 °C 57 % 1019,7 hPa 0,0 mm 3,8 km/h (1 Bft) N-NO 31 ° 1 min 0,000 mm 7,3 UV-I 882 W/m² 12,6 °C 21,5 °C 8,0 km/h (2 Bft)
04.07.2017 12:08 21,4 °C 21,6 °C 57 % 1019,6 hPa 0,0 mm 3,4 km/h (1 Bft) NO 52 ° 1 min 0,000 mm 7,3 UV-I 882 W/m² 12,5 °C 21,4 °C 6,4 km/h (2 Bft)
04.07.2017 12:09 21,4 °C 21,4 °C 57 % 1019,5 hPa 0,0 mm 6,2 km/h (2 Bft) N 360 ° 1 min 0,000 mm 7,3 UV-I 886 W/m² 12,5 °C 21,4 °C 12,9 km/h (3 Bft)
04.07.2017 12:10 21,5 °C 21,5 °C 58 % 1019,6 hPa 0,0 mm 9,9 km/h (2 Bft) N-NW 329 ° 1 min 0,000 mm 4,7 UV-I 875 W/m² 12,9 °C 21,5 °C 16,1 km/h (3 Bft)
04.07.2017 12:11 21,6 °C 21,6 °C 56 % 1019,6 hPa 0,0 mm 7,6 km/h (2 Bft) W-NW 294 ° 1 min 0,000 mm 7,3 UV-I 886 W/m² 12,4 °C 21,6 °C 14,5 km/h (3 Bft)
04.07.2017 12:12 21,7 °C 21,7 °C 57 % 1019,6 hPa 0,0 mm 7,6 km/h (2 Bft) N 355 ° 1 min 0,000 mm 7,4 UV-I 888 W/m² 12,8 °C 21,7 °C 14,5 km/h (3 Bft)
04.07.2017 12:13 21,8 °C 21,8 °C 57 % 1019,6 hPa 0,0 mm 9,1 km/h (2 Bft) W-SW 257 ° 1 min 0,000 mm 7,4 UV-I 900 W/m² 12,9 °C 21,8 °C 16,1 km/h (3 Bft)
04.07.2017 12:14 21,8 °C 21,8 °C 54 % 1019,5 hPa 0,0 mm 7,3 km/h (2 Bft) W-SW 257 ° 1 min 0,000 mm 7,4 UV-I 891 W/m² 12,1 °C 21,8 °C 12,9 km/h (3 Bft)
04.07.2017 12:15 21,7 °C 21,8 °C 56 % 1019,5 hPa 0,0 mm 12,5 km/h (3 Bft) W-SW 241 ° 1 min 0,000 mm 7,3 UV-I 884 W/m² 12,5 °C 21,7 °C 17,7 km/h (3 Bft)
04.07.2017 12:16 21,6 °C 21,7 °C 55 % 1019,5 hPa 0,0 mm 6,3 km/h (2 Bft) N-NW 340 ° 1 min 0,000 mm 7,4 UV-I 893 W/m² 12,2 °C 21,6 °C 12,9 km/h (3 Bft)
04.07.2017 12:17 21,6 °C 21,6 °C 56 % 1019,5 hPa 0,0 mm 4,4 km/h (1 Bft) W-SW 248 ° 1 min 0,000 mm 7,4 UV-I 895 W/m² 12,4 °C 21,6 °C 9,7 km/h (2 Bft)
04.07.2017 12:18 21,7 °C 21,7 °C 57 % 1019,5 hPa 0,0 mm 7,3 km/h (2 Bft) W-SW 258 ° 1 min 0,000 mm 7,5 UV-I 895 W/m² 12,8 °C 21,7 °C 9,7 km/h (2 Bft)
04.07.2017 12:19 21,8 °C 21,8 °C 59 % 1019,5 hPa 0,0 mm 6,8 km/h (2 Bft) W 268 ° 1 min 0,000 mm 7,5 UV-I 896 W/m² 13,4 °C 21,8 °C 11,3 km/h (2 Bft)
04.07.2017 12:20 21,9 °C 21,9 °C 57 % 1019,5 hPa 0,0 mm 4,8 km/h (1 Bft) NW 317 ° 1 min 0,000 mm 7,5 UV-I 900 W/m² 13,0 °C 21,9 °C 8,0 km/h (2 Bft)
04.07.2017 12:21 21,9 °C 21,9 °C 57 % 1019,5 hPa 0,0 mm 7,9 km/h (2 Bft) W 279 ° 1 min 0,000 mm 7,5 UV-I 900 W/m² 13,0 °C 21,9 °C 12,9 km/h (3 Bft)
04.07.2017 12:22 21,9 °C 22,0 °C 52 % 1019,5 hPa 0,0 mm 2,9 km/h (1 Bft) NW 323 ° 1 min 0,000 mm 7,6 UV-I 886 W/m² 11,6 °C 21,9 °C 6,4 km/h (2 Bft)
04.07.2017 12:23 22,0 °C 22,0 °C 57 % 1019,4 hPa 0,0 mm 7,3 km/h (2 Bft) N-NW 328 ° 1 min 0,000 mm 7,6 UV-I 898 W/m² 13,1 °C 22,0 °C 12,9 km/h (3 Bft)
04.07.2017 12:24 22,1 °C 22,1 °C 58 % 1019,4 hPa 0,0 mm 7,0 km/h (2 Bft) NW 311 ° 1 min 0,000 mm 7,6 UV-I 898 W/m² 13,4 °C 22,1 °C 12,9 km/h (3 Bft)
04.07.2017 12:25 22,1 °C 22,2 °C 57 % 1019,4 hPa 0,0 mm 7,7 km/h (2 Bft) W 270 ° 1 min 0,000 mm 7,5 UV-I 895 W/m² 13,2 °C 22,1 °C 11,3 km/h (2 Bft)
04.07.2017 12:26 22,1 °C 22,2 °C 54 % 1019,4 hPa 0,0 mm 7,0 km/h (2 Bft) W 277 ° 1 min 0,000 mm 7,6 UV-I 905 W/m² 12,3 °C 22,1 °C 9,7 km/h (2 Bft)
04.07.2017 12:27 22,1 °C 22,1 °C 57 % 1019,4 hPa 0,0 mm 10,8 km/h (2 Bft) W 271 ° 1 min 0,000 mm 7,6 UV-I 909 W/m² 13,2 °C 22,1 °C 14,5 km/h (3 Bft)
04.07.2017 12:28 21,9 °C 22,1 °C 56 % 1019,4 hPa 0,0 mm 3,9 km/h (1 Bft) NW 318 ° 1 min 0,000 mm 7,7 UV-I 916 W/m² 12,7 °C 21,9 °C 9,7 km/h (2 Bft)
04.07.2017 12:29 21,9 °C 21,9 °C 56 % 1019,4 hPa 0,0 mm 4,5 km/h (1 Bft) W 280 ° 1 min 0,000 mm 7,6 UV-I 916 W/m² 12,7 °C 21,9 °C 11,3 km/h (2 Bft)
04.07.2017 12:30 21,9 °C 21,9 °C 54 % 1019,4 hPa 0,0 mm 5,6 km/h (1 Bft) W 264 ° 1 min 0,000 mm 7,6 UV-I 918 W/m² 12,2 °C 21,9 °C 11,3 km/h (2 Bft)
04.07.2017 12:31 21,9 °C 21,9 °C 57 % 1019,4 hPa 0,0 mm 6,6 km/h (2 Bft) W-NW 291 ° 1 min 0,000 mm 7,7 UV-I 918 W/m² 13,0 °C 21,9 °C 11,3 km/h (2 Bft)
04.07.2017 12:32 21,8 °C 21,9 °C 57 % 1019,4 hPa 0,0 mm 4,7 km/h (1 Bft) W 279 ° 1 min 0,000 mm 7,7 UV-I 918 W/m² 12,9 °C 21,8 °C 8,0 km/h (2 Bft)
04.07.2017 12:33 21,8 °C 21,8 °C 54 % 1019,4 hPa 0,0 mm 4,6 km/h (1 Bft) W 273 ° 1 min 0,000 mm 7,6 UV-I 912 W/m² 12,1 °C 21,8 °C 9,7 km/h (2 Bft)
04.07.2017 12:34 21,8 °C 21,8 °C 55 % 1019,4 hPa 0,0 mm 6,0 km/h (2 Bft) N-NO 13 ° 1 min 0,000 mm 7,6 UV-I 912 W/m² 12,4 °C 21,8 °C 12,9 km/h (3 Bft)
04.07.2017 12:35 21,9 °C 21,9 °C 53 % 1019,4 hPa 0,0 mm 3,4 km/h (1 Bft) NW 318 ° 1 min 0,000 mm 7,7 UV-I 912 W/m² 11,9 °C 21,9 °C 6,4 km/h (2 Bft)
04.07.2017 12:36 22,1 °C 22,1 °C 58 % 1019,3 hPa 0,0 mm 7,6 km/h (2 Bft) W 281 ° 1 min 0,000 mm 7,7 UV-I 912 W/m² 13,4 °C 22,1 °C 12,9 km/h (3 Bft)
04.07.2017 12:37 22,0 °C 22,1 °C 56 % 1019,3 hPa 0,0 mm 6,6 km/h (2 Bft) N-NW 327 ° 1 min 0,000 mm 7,8 UV-I 923 W/m² 12,8 °C 22,0 °C 12,9 km/h (3 Bft)
04.07.2017 12:38 22,1 °C 22,1 °C 59 % 1019,4 hPa 0,0 mm 5,7 km/h (1 Bft) N 360 ° 1 min 0,000 mm 7,2 UV-I 939 W/m² 13,7 °C 22,1 °C 9,7 km/h (2 Bft)
04.07.2017 12:39 22,1 °C 22,1 °C 57 % 1019,3 hPa 0,0 mm 6,6 km/h (2 Bft) W-NW 294 ° 1 min 0,000 mm 7,7 UV-I 923 W/m² 13,2 °C 22,1 °C 14,5 km/h (3 Bft)
04.07.2017 12:40 22,1 °C 22,1 °C 55 % 1019,3 hPa 0,0 mm 6,6 km/h (2 Bft) NW 324 ° 1 min 0,000 mm 7,8 UV-I 925 W/m² 12,6 °C 22,1 °C 11,3 km/h (2 Bft)
04.07.2017 12:41 22,1 °C 22,1 °C 54 % 1019,3 hPa 0,0 mm 6,2 km/h (2 Bft) W-NW 302 ° 1 min 0,000 mm 7,8 UV-I 925 W/m² 12,3 °C 22,1 °C 11,3 km/h (2 Bft)
04.07.2017 12:42 22,2 °C 22,2 °C 57 % 1019,3 hPa 0,0 mm 5,0 km/h (1 Bft) W-NW 287 ° 1 min 0,000 mm 7,7 UV-I 921 W/m² 13,3 °C 22,2 °C 11,3 km/h (2 Bft)
04.07.2017 12:43 22,3 °C 22,3 °C 55 % 1019,3 hPa 0,0 mm 8,0 km/h (2 Bft) W-NW 299 ° 1 min 0,000 mm 7,9 UV-I 933 W/m² 12,8 °C 22,3 °C 11,3 km/h (2 Bft)
04.07.2017 12:44 22,2 °C 22,3 °C 53 % 1019,3 hPa 0,0 mm 5,5 km/h (1 Bft) NW 324 ° 1 min 0,000 mm 7,9 UV-I 942 W/m² 12,2 °C 22,2 °C 6,4 km/h (2 Bft)
04.07.2017 12:45 22,1 °C 22,2 °C 54 % 1019,3 hPa 0,0 mm 3,4 km/h (1 Bft) NW 310 ° 1 min 0,000 mm 7,9 UV-I 942 W/m² 12,3 °C 22,1 °C 6,4 km/h (2 Bft)
04.07.2017 12:46 21,9 °C 22,1 °C 52 % 1019,3 hPa 0,0 mm 2,3 km/h (1 Bft) N 5 ° 1 min 0,000 mm 7,8 UV-I 937 W/m² 11,6 °C 21,9 °C 6,4 km/h (2 Bft)
04.07.2017 12:47 21,9 °C 21,9 °C 56 % 1019,3 hPa 0,0 mm 6,1 km/h (2 Bft) N 5 ° 1 min 0,000 mm 8,0 UV-I 942 W/m² 12,7 °C 21,9 °C 12,9 km/h (3 Bft)
04.07.2017 12:48 21,9 °C 21,9 °C 54 % 1019,2 hPa 0,0 mm 10,7 km/h (2 Bft) N 355 ° 1 min 0,000 mm 7,9 UV-I 942 W/m² 12,2 °C 21,9 °C 12,9 km/h (3 Bft)
04.07.2017 12:49 22,0 °C 22,0 °C 55 % 1019,2 hPa 0,0 mm 6,8 km/h (2 Bft) N-NO 25 ° 1 min 0,000 mm 7,9 UV-I 949 W/m² 12,5 °C 22,0 °C 9,7 km/h (2 Bft)
04.07.2017 12:50 22,2 °C 22,2 °C 55 % 1019,3 hPa 0,0 mm 9,3 km/h (2 Bft) NW 321 ° 1 min 0,000 mm 8,0 UV-I 976 W/m² 12,7 °C 22,2 °C 12,9 km/h (3 Bft)
04.07.2017 12:51 22,3 °C 22,3 °C 56 % 1019,3 hPa 0,0 mm 6,5 km/h (2 Bft) NW 325 ° 1 min 0,000 mm 8,0 UV-I 983 W/m² 13,1 °C 22,3 °C 12,9 km/h (3 Bft)
04.07.2017 12:52 22,4 °C 22,4 °C 54 % 1019,3 hPa 0,0 mm 5,2 km/h (1 Bft) W-NW 284 ° 1 min 0,000 mm 8,0 UV-I 977 W/m² 12,6 °C 22,4 °C 9,7 km/h (2 Bft)
04.07.2017 12:53 22,3 °C 22,4 °C 53 % 1019,3 hPa 0,0 mm 8,1 km/h (2 Bft) W 274 ° 1 min 0,000 mm 6,5 UV-I 977 W/m² 12,2 °C 22,3 °C 12,9 km/h (3 Bft)
04.07.2017 12:54 22,3 °C 22,3 °C 52 % 1019,4 hPa 0,0 mm 8,3 km/h (2 Bft) NW 315 ° 1 min 0,000 mm 8,0 UV-I 977 W/m² 12,0 °C 22,3 °C 16,1 km/h (3 Bft)
04.07.2017 12:55 22,2 °C 22,3 °C 56 % 1019,3 hPa 0,0 mm 10,0 km/h (2 Bft) W-NW 302 ° 1 min 0,000 mm 8,1 UV-I 976 W/m² 13,0 °C 22,2 °C 16,1 km/h (3 Bft)
04.07.2017 12:56 22,2 °C 22,2 °C 54 % 1019,4 hPa 0,0 mm 4,4 km/h (1 Bft) NW 318 ° 1 min 0,000 mm 8,1 UV-I 967 W/m² 12,4 °C 22,2 °C 6,4 km/h (2 Bft)
04.07.2017 12:57 22,1 °C 22,2 °C 51 % 1019,3 hPa 0,0 mm 5,2 km/h (1 Bft) W-NW 297 ° 1 min 0,000 mm 8,0 UV-I 963 W/m² 11,5 °C 22,1 °C 8,0 km/h (2 Bft)
04.07.2017 12:58 22,2 °C 22,2 °C 55 % 1019,2 hPa 0,0 mm 9,1 km/h (2 Bft) W-SW 255 ° 1 min 0,000 mm 8,1 UV-I 963 W/m² 12,7 °C 22,2 °C 12,9 km/h (3 Bft)
04.07.2017 12:59 22,3 °C 22,3 °C 59 % 1019,3 hPa 0,0 mm 13,2 km/h (3 Bft) W 269 ° 1 min 0,000 mm 8,1 UV-I 965 W/m² 13,9 °C 22,3 °C 16,1 km/h (3 Bft)
04.07.2017 13:00 22,3 °C 22,3 °C 58 % 1019,3 hPa 0,0 mm 10,5 km/h (2 Bft) N-NW 328 ° 1 min 0,000 mm 8,0 UV-I 969 W/m² 13,6 °C 22,3 °C 14,5 km/h (3 Bft)
04.07.2017 13:01 22,4 °C 22,4 °C 60 % 1019,3 hPa 0,0 mm 8,3 km/h (2 Bft) W-NW 288 ° 1 min 0,584 mm 8,0 UV-I 963 W/m² 14,2 °C 22,4 °C 14,5 km/h (3 Bft)
04.07.2017 13:02 22,6 °C 22,6 °C 54 % 1019,3 hPa 0,0 mm 9,3 km/h (2 Bft) W-NW 292 ° 1 min 0,000 mm 8,0 UV-I 967 W/m² 12,8 °C 22,6 °C 14,5 km/h (3 Bft)
04.07.2017 13:03 22,6 °C 22,6 °C 52 % 1019,2 hPa 0,0 mm 7,2 km/h (2 Bft) W 267 ° 1 min 0,000 mm 8,0 UV-I 974 W/m² 12,2 °C 22,6 °C 14,5 km/h (3 Bft)
04.07.2017 13:04 22,4 °C 22,6 °C 51 % 1019,2 hPa 0,0 mm 4,0 km/h (1 Bft) W 270 ° 1 min 0,000 mm 8,0 UV-I 977 W/m² 11,8 °C 22,4 °C 6,4 km/h (2 Bft)
04.07.2017 13:05 22,3 °C 22,4 °C 55 % 1019,2 hPa 0,0 mm 7,4 km/h (2 Bft) NW 307 ° 1 min 0,000 mm 6,4 UV-I 932 W/m² 12,8 °C 22,3 °C 11,3 km/h (2 Bft)
04.07.2017 13:06 22,3 °C 22,3 °C 53 % 1019,2 hPa 0,0 mm 4,4 km/h (1 Bft) N-NW 332 ° 1 min 0,000 mm 7,9 UV-I 965 W/m² 12,2 °C 22,3 °C 8,0 km/h (2 Bft)
04.07.2017 13:07 22,4 °C 22,4 °C 54 % 1019,1 hPa 0,0 mm 8,0 km/h (2 Bft) NW 312 ° 1 min 0,000 mm 8,0 UV-I 965 W/m² 12,6 °C 22,4 °C 16,1 km/h (3 Bft)
04.07.2017 13:08 22,4 °C 22,4 °C 53 % 1019,2 hPa 0,0 mm 6,7 km/h (2 Bft) W-SW 253 ° 1 min 0,000 mm 8,0 UV-I 960 W/m² 12,3 °C 22,4 °C 12,9 km/h (3 Bft)
04.07.2017 13:09 22,3 °C 22,4 °C 51 % 1019,2 hPa 0,0 mm 8,8 km/h (2 Bft) W-NW 290 ° 1 min 0,000 mm 7,7 UV-I 960 W/m² 11,7 °C 22,3 °C 12,9 km/h (3 Bft)
04.07.2017 13:10 22,2 °C 22,3 °C 52 % 1019,2 hPa 0,0 mm 8,6 km/h (2 Bft) W-NW 282 ° 1 min 0,000 mm 8,3 UV-I 1002 W/m² 11,9 °C 22,2 °C 12,9 km/h (3 Bft)
04.07.2017 13:11 22,1 °C 22,2 °C 52 % 1019,1 hPa 0,0 mm 8,0 km/h (2 Bft) N 355 ° 1 min 0,000 mm 8,2 UV-I 1000 W/m² 11,8 °C 22,1 °C 12,9 km/h (3 Bft)
04.07.2017 13:12 22,1 °C 22,1 °C 57 % 1019,1 hPa 0,0 mm 3,2 km/h (1 Bft) N-NW 344 ° 1 min 0,000 mm 8,2 UV-I 1000 W/m² 13,2 °C 22,1 °C 4,8 km/h (1 Bft)
04.07.2017 13:13 22,2 °C 22,2 °C 54 % 1019,1 hPa 0,0 mm 5,8 km/h (2 Bft) N-NW 346 ° 1 min 0,000 mm 8,1 UV-I 998 W/m² 12,4 °C 22,2 °C 11,3 km/h (2 Bft)
04.07.2017 13:14 22,3 °C 22,3 °C 55 % 1019,1 hPa 0,0 mm 6,8 km/h (2 Bft) NW 311 ° 1 min 0,000 mm 8,4 UV-I 1044 W/m² 12,8 °C 22,3 °C 8,0 km/h (2 Bft)
04.07.2017 13:15 22,3 °C 22,3 °C 54 % 1019,1 hPa 0,0 mm 10,6 km/h (2 Bft) NW 325 ° 1 min 0,000 mm 8,3 UV-I 1044 W/m² 12,5 °C 22,3 °C 16,1 km/h (3 Bft)
04.07.2017 13:16 22,4 °C 22,4 °C 57 % 1019,1 hPa 0,0 mm 8,4 km/h (2 Bft) N-NW 327 ° 1 min 0,000 mm 4,6 UV-I 1044 W/m² 13,5 °C 22,4 °C 12,9 km/h (3 Bft)
04.07.2017 13:17 22,3 °C 22,4 °C 52 % 1019,1 hPa 0,0 mm 5,8 km/h (2 Bft) W-NW 297 ° 1 min 0,000 mm 4,2 UV-I 299 W/m² 12,0 °C 22,3 °C 9,7 km/h (2 Bft)
04.07.2017 13:18 22,1 °C 22,3 °C 51 % 1019,1 hPa 0,0 mm 6,2 km/h (2 Bft) W-NW 298 ° 0 min 0,000 mm 3,8 UV-I 246 W/m² 11,5 °C 22,1 °C 9,7 km/h (2 Bft)
04.07.2017 13:19 21,8 °C 22,1 °C 51 % 1019,1 hPa 0,0 mm 5,3 km/h (1 Bft) W-NW 303 ° 0 min 0,000 mm 3,8 UV-I 250 W/m² 11,2 °C 21,8 °C 8,0 km/h (2 Bft)
04.07.2017 13:20 21,7 °C 21,8 °C 50 % 1019,1 hPa 0,0 mm 3,2 km/h (1 Bft) W-NW 296 ° 1 min 0,000 mm 7,6 UV-I 1053 W/m² 10,8 °C 21,7 °C 4,8 km/h (1 Bft)
04.07.2017 13:21 21,7 °C 21,7 °C 54 % 1019,1 hPa 0,0 mm 3,9 km/h (1 Bft) W-NW 297 ° 1 min 0,000 mm 7,9 UV-I 1037 W/m² 12,0 °C 21,7 °C 4,8 km/h (1 Bft)
04.07.2017 13:22 21,7 °C 21,7 °C 53 % 1019,0 hPa 0,0 mm 2,4 km/h (1 Bft) W-NW 295 ° 1 min 0,000 mm 8,0 UV-I 1058 W/m² 11,7 °C 21,7 °C 4,8 km/h (1 Bft)
04.07.2017 13:23 21,7 °C 21,8 °C 55 % 1019,0 hPa 0,0 mm 3,3 km/h (1 Bft) NW 318 ° 1 min 0,000 mm 7,8 UV-I 1058 W/m² 12,3 °C 21,7 °C 4,8 km/h (1 Bft)
04.07.2017 13:24 21,7 °C 21,7 °C 55 % 1019,0 hPa 0,0 mm 8,6 km/h (2 Bft) N 355 ° 1 min 0,000 mm 4,0 UV-I 1058 W/m² 12,3 °C 21,7 °C 14,5 km/h (3 Bft)
04.07.2017 13:25 21,7 °C 21,7 °C 54 % 1019,0 hPa 0,0 mm 7,3 km/h (2 Bft) NW 324 ° 0 min 0,000 mm 4,5 UV-I 272 W/m² 12,0 °C 21,7 °C 9,7 km/h (2 Bft)
04.07.2017 13:26 21,8 °C 21,8 °C 56 % 1019,0 hPa 0,0 mm 6,4 km/h (2 Bft) N 5 ° 1 min 0,000 mm 8,4 UV-I 1086 W/m² 12,6 °C 21,8 °C 12,9 km/h (3 Bft)
04.07.2017 13:27 22,1 °C 22,1 °C 57 % 1019,0 hPa 0,0 mm 9,5 km/h (2 Bft) N-NW 327 ° 1 min 0,000 mm 8,5 UV-I 1102 W/m² 13,2 °C 22,1 °C 12,9 km/h (3 Bft)
04.07.2017 13:28 22,3 °C 22,3 °C 53 % 1019,0 hPa 0,0 mm 6,2 km/h (2 Bft) NW 313 ° 1 min 0,000 mm 8,4 UV-I 1102 W/m² 12,2 °C 22,3 °C 9,7 km/h (2 Bft)
04.07.2017 13:29 22,3 °C 22,3 °C 55 % 1019,0 hPa 0,0 mm 6,0 km/h (2 Bft) NW 323 ° 1 min 0,000 mm 8,0 UV-I 1102 W/m² 12,8 °C 22,3 °C 9,7 km/h (2 Bft)
04.07.2017 13:30 22,3 °C 22,4 °C 51 % 1019,0 hPa 0,0 mm 4,9 km/h (1 Bft) NW 323 ° 1 min 0,000 mm 5,1 UV-I 1102 W/m² 11,7 °C 22,3 °C 9,7 km/h (2 Bft)
04.07.2017 13:31 22,3 °C 22,3 °C 52 % 1019,0 hPa 0,0 mm 6,5 km/h (2 Bft) N-NO 18 ° 1 min 0,000 mm 8,2 UV-I 1102 W/m² 12,0 °C 22,3 °C 12,9 km/h (3 Bft)
04.07.2017 13:32 22,3 °C 22,3 °C 51 % 1019,0 hPa 0,0 mm 6,1 km/h (2 Bft) N-NO 28 ° 1 min 0,000 mm 8,0 UV-I 1027 W/m² 11,7 °C 22,3 °C 11,3 km/h (2 Bft)
04.07.2017 13:33 22,3 °C 22,3 °C 54 % 1018,9 hPa 0,0 mm 5,2 km/h (1 Bft) N-NO 20 ° 1 min 0,000 mm 8,3 UV-I 1034 W/m² 12,5 °C 22,3 °C 8,0 km/h (2 Bft)
04.07.2017 13:34 22,4 °C 22,4 °C 54 % 1018,9 hPa 0,0 mm 3,8 km/h (1 Bft) O-NO 74 ° 1 min 0,000 mm 8,3 UV-I 1041 W/m² 12,6 °C 22,4 °C 6,4 km/h (2 Bft)
04.07.2017 13:35 22,4 °C 22,4 °C 55 % 1018,9 hPa 0,0 mm 3,2 km/h (1 Bft) N 360 ° 1 min 0,000 mm 8,3 UV-I 1042 W/m² 12,9 °C 22,4 °C 4,8 km/h (1 Bft)
04.07.2017 13:36 22,4 °C 22,4 °C 54 % 1018,9 hPa 0,0 mm 4,1 km/h (1 Bft) N 355 ° 1 min 0,000 mm 8,2 UV-I 1042 W/m² 12,6 °C 22,4 °C 12,9 km/h (3 Bft)
04.07.2017 13:37 22,5 °C 22,5 °C 52 % 1018,9 hPa 0,0 mm 4,0 km/h (1 Bft) N-NO 22 ° 1 min 0,000 mm 8,3 UV-I 1041 W/m² 12,1 °C 22,5 °C 9,7 km/h (2 Bft)
04.07.2017 13:38 22,6 °C 22,6 °C 53 % 1018,9 hPa 0,0 mm 8,9 km/h (2 Bft) N 5 ° 1 min 0,000 mm 7,8 UV-I 1046 W/m² 12,5 °C 22,6 °C 12,9 km/h (3 Bft)
04.07.2017 13:39 22,6 °C 22,6 °C 53 % 1018,9 hPa 0,0 mm 9,7 km/h (2 Bft) N 5 ° 1 min 0,000 mm 8,3 UV-I 1035 W/m² 12,5 °C 22,6 °C 12,9 km/h (3 Bft)
04.07.2017 13:40 22,5 °C 22,6 °C 47 % 1018,9 hPa 0,0 mm 4,4 km/h (1 Bft) N 355 ° 1 min 0,000 mm 8,2 UV-I 1020 W/m² 10,6 °C 22,5 °C 8,0 km/h (2 Bft)
04.07.2017 13:41 22,6 °C 22,6 °C 50 % 1018,9 hPa 0,0 mm 3,3 km/h (1 Bft) N 5 ° 1 min 0,000 mm 8,1 UV-I 998 W/m² 11,6 °C 22,6 °C 4,8 km/h (1 Bft)
04.07.2017 13:42 22,7 °C 22,7 °C 56 % 1018,9 hPa 0,0 mm 6,2 km/h (2 Bft) N-NW 342 ° 1 min 0,000 mm 8,1 UV-I 986 W/m² 13,5 °C 22,7 °C 9,7 km/h (2 Bft)
04.07.2017 13:43 22,9 °C 22,9 °C 56 % 1018,9 hPa 0,0 mm 9,5 km/h (2 Bft) NW 322 ° 1 min 0,000 mm 8,1 UV-I 974 W/m² 13,6 °C 22,9 °C 16,1 km/h (3 Bft)
04.07.2017 13:44 23,1 °C 23,1 °C 57 % 1018,9 hPa 0,0 mm 8,0 km/h (2 Bft) W 278 ° 1 min 0,000 mm 8,1 UV-I 972 W/m² 14,1 °C 23,1 °C 14,5 km/h (3 Bft)
04.07.2017 13:45 23,2 °C 23,2 °C 52 % 1018,9 hPa 0,0 mm 6,7 km/h (2 Bft) NW 316 ° 1 min 0,000 mm 8,1 UV-I 974 W/m² 12,8 °C 23,2 °C 11,3 km/h (2 Bft)
04.07.2017 13:46 23,1 °C 23,2 °C 53 % 1018,9 hPa 0,0 mm 10,3 km/h (2 Bft) W-NW 285 ° 1 min 0,000 mm 8,0 UV-I 970 W/m² 13,0 °C 23,1 °C 12,9 km/h (3 Bft)
04.07.2017 13:47 23,0 °C 23,1 °C 53 % 1018,9 hPa 0,0 mm 6,4 km/h (2 Bft) W-SW 256 ° 1 min 0,000 mm 8,0 UV-I 963 W/m² 12,9 °C 23,0 °C 11,3 km/h (2 Bft)
04.07.2017 13:48 22,8 °C 23,0 °C 52 % 1018,9 hPa 0,0 mm 6,0 km/h (2 Bft) W 275 ° 1 min 0,000 mm 8,0 UV-I 963 W/m² 12,4 °C 22,8 °C 11,3 km/h (2 Bft)
04.07.2017 13:49 22,7 °C 22,8 °C 53 % 1018,9 hPa 0,0 mm 7,8 km/h (2 Bft) W-NW 299 ° 1 min 0,000 mm 8,0 UV-I 972 W/m² 12,6 °C 22,7 °C 11,3 km/h (2 Bft)
04.07.2017 13:50 22,7 °C 22,8 °C 55 % 1018,9 hPa 0,0 mm 7,1 km/h (2 Bft) N-NW 340 ° 1 min 0,000 mm 8,0 UV-I 984 W/m² 13,2 °C 22,7 °C 11,3 km/h (2 Bft)
04.07.2017 13:51 22,7 °C 22,8 °C 49 % 1018,9 hPa 0,0 mm 7,1 km/h (2 Bft) N-NO 15 ° 1 min 0,000 mm 8,1 UV-I 1004 W/m² 11,4 °C 22,7 °C 14,5 km/h (3 Bft)
04.07.2017 13:52 22,8 °C 22,8 °C 49 % 1018,9 hPa 0,0 mm 9,1 km/h (2 Bft) N-NW 341 ° 1 min 0,000 mm 8,0 UV-I 1025 W/m² 11,5 °C 22,8 °C 17,7 km/h (3 Bft)
04.07.2017 13:53 22,8 °C 22,8 °C 49 % 1018,9 hPa 0,0 mm 10,5 km/h (2 Bft) NW 313 ° 1 min 0,000 mm 8,2 UV-I 983 W/m² 11,5 °C 22,8 °C 16,1 km/h (3 Bft)
04.07.2017 13:54 22,9 °C 22,9 °C 49 % 1018,9 hPa 0,0 mm 5,9 km/h (2 Bft) NW 323 ° 1 min 0,000 mm 8,2 UV-I 983 W/m² 11,6 °C 22,9 °C 8,0 km/h (2 Bft)
04.07.2017 13:55 22,8 °C 22,9 °C 51 % 1018,9 hPa 0,0 mm 6,2 km/h (2 Bft) W-NW 302 ° 1 min 0,000 mm 4,2 UV-I 983 W/m² 12,1 °C 22,8 °C 11,3 km/h (2 Bft)
04.07.2017 13:56 22,7 °C 22,8 °C 53 % 1018,9 hPa 0,0 mm 6,9 km/h (2 Bft) NW 310 ° 1 min 0,000 mm 8,2 UV-I 1020 W/m² 12,6 °C 22,7 °C 11,3 km/h (2 Bft)
04.07.2017 13:57 22,7 °C 22,8 °C 52 % 1018,9 hPa 0,0 mm 9,8 km/h (2 Bft) N 360 ° 1 min 0,000 mm 6,1 UV-I 1020 W/m² 12,3 °C 22,7 °C 17,7 km/h (3 Bft)
04.07.2017 13:58 22,6 °C 22,7 °C 51 % 1019,0 hPa 0,0 mm 5,2 km/h (1 Bft) NW 316 ° 1 min 0,000 mm 7,9 UV-I 1020 W/m² 11,9 °C 22,6 °C 8,0 km/h (2 Bft)
04.07.2017 13:59 22,6 °C 22,6 °C 53 % 1018,9 hPa 0,0 mm 6,2 km/h (2 Bft) NW 315 ° 1 min 0,000 mm 7,9 UV-I 977 W/m² 12,5 °C 22,6 °C 11,3 km/h (2 Bft)
04.07.2017 14:00 22,6 °C 22,6 °C 55 % 1019,0 hPa 0,0 mm 4,1 km/h (1 Bft) NW 304 ° 1 min 0,585 mm 7,9 UV-I 974 W/m² 13,1 °C 22,6 °C 6,4 km/h (2 Bft)
04.07.2017 14:01 22,6 °C 22,6 °C 49 % 1018,9 hPa 0,0 mm 3,3 km/h (1 Bft) S-SW 206 ° 1 min 0,000 mm 7,9 UV-I 967 W/m² 11,3 °C 22,6 °C 4,8 km/h (1 Bft)
04.07.2017 14:02 22,3 °C 22,6 °C 48 % 1018,9 hPa 0,0 mm 2,1 km/h (1 Bft) NW 311 ° 1 min 0,000 mm 7,9 UV-I 967 W/m² 10,8 °C 22,3 °C 4,8 km/h (1 Bft)
04.07.2017 14:03 22,3 °C 22,3 °C 55 % 1018,9 hPa 0,0 mm 4,1 km/h (1 Bft) N-NW 329 ° 1 min 0,000 mm 7,9 UV-I 963 W/m² 12,8 °C 22,3 °C 6,4 km/h (2 Bft)
04.07.2017 14:04 22,3 °C 22,3 °C 54 % 1018,9 hPa 0,0 mm 0,7 km/h (0 Bft) N-NW 329 ° 1 min 0,000 mm 7,9 UV-I 965 W/m² 12,5 °C 22,3 °C 3,2 km/h (1 Bft)
04.07.2017 14:05 22,4 °C 22,4 °C 51 % 1018,9 hPa 0,0 mm 2,0 km/h (1 Bft) W-NW 290 ° 1 min 0,000 mm 8,0 UV-I 976 W/m² 11,8 °C 22,4 °C 6,4 km/h (2 Bft)
04.07.2017 14:06 22,4 °C 22,4 °C 49 % 1018,9 hPa 0,0 mm 3,7 km/h (1 Bft) W-NW 294 ° 1 min 0,000 mm 8,0 UV-I 976 W/m² 11,2 °C 22,4 °C 6,4 km/h (2 Bft)
04.07.2017 14:07 22,4 °C 22,5 °C 51 % 1018,9 hPa 0,0 mm 2,4 km/h (1 Bft) W-NW 294 ° 1 min 0,000 mm 8,0 UV-I 970 W/m² 11,8 °C 22,4 °C 3,2 km/h (1 Bft)
04.07.2017 14:08 22,5 °C 22,5 °C 53 % 1018,9 hPa 0,0 mm 3,1 km/h (1 Bft) W-NW 294 ° 1 min 0,000 mm 7,9 UV-I 960 W/m² 12,4 °C 22,5 °C 4,8 km/h (1 Bft)
04.07.2017 14:09 22,5 °C 22,6 °C 50 % 1018,8 hPa 0,0 mm 3,6 km/h (1 Bft) W-NW 303 ° 1 min 0,000 mm 7,9 UV-I 962 W/m² 11,5 °C 22,5 °C 6,4 km/h (2 Bft)
04.07.2017 14:10 22,6 °C 22,6 °C 54 % 1018,9 hPa 0,0 mm 8,5 km/h (2 Bft) NW 323 ° 1 min 0,000 mm 7,9 UV-I 969 W/m² 12,8 °C 22,6 °C 12,9 km/h (3 Bft)
04.07.2017 14:11 22,6 °C 22,6 °C 53 % 1018,9 hPa 0,0 mm 6,7 km/h (2 Bft) N-NO 22 ° 1 min 0,000 mm 8,0 UV-I 976 W/m² 12,5 °C 22,6 °C 11,3 km/h (2 Bft)
04.07.2017 14:12 22,7 °C 22,7 °C 54 % 1018,9 hPa 0,0 mm 7,4 km/h (2 Bft) N 5 ° 1 min 0,000 mm 7,9 UV-I 986 W/m² 12,9 °C 22,7 °C 12,9 km/h (3 Bft)
04.07.2017 14:13 22,9 °C 22,9 °C 55 % 1018,9 hPa 0,0 mm 8,0 km/h (2 Bft) NW 323 ° 1 min 0,000 mm 5,7 UV-I 1013 W/m² 13,4 °C 22,9 °C 14,5 km/h (3 Bft)
04.07.2017 14:14 22,9 °C 22,9 °C 54 % 1018,9 hPa 0,0 mm 6,4 km/h (2 Bft) W-NW 284 ° 1 min 0,000 mm 8,0 UV-I 1005 W/m² 13,1 °C 22,9 °C 8,0 km/h (2 Bft)
04.07.2017 14:15 22,8 °C 22,9 °C 52 % 1018,9 hPa 0,0 mm 5,3 km/h (1 Bft) N-NW 332 ° 1 min 0,000 mm 8,0 UV-I 997 W/m² 12,4 °C 22,8 °C 8,0 km/h (2 Bft)
04.07.2017 14:16 22,8 °C 22,8 °C 50 % 1018,9 hPa 0,0 mm 6,0 km/h (2 Bft) NO 42 ° 1 min 0,000 mm 8,1 UV-I 1027 W/m² 11,8 °C 22,8 °C 8,0 km/h (2 Bft)
04.07.2017 14:17 22,8 °C 22,8 °C 52 % 1018,9 hPa 0,0 mm 4,9 km/h (1 Bft) N-NW 345 ° 1 min 0,000 mm 8,1 UV-I 1028 W/m² 12,4 °C 22,8 °C 8,0 km/h (2 Bft)
04.07.2017 14:18 22,9 °C 22,9 °C 51 % 1018,9 hPa 0,0 mm 4,1 km/h (1 Bft) N-NW 329 ° 1 min 0,000 mm 8,1 UV-I 1023 W/m² 12,2 °C 22,9 °C 6,4 km/h (2 Bft)
04.07.2017 14:19 22,9 °C 22,9 °C 55 % 1018,9 hPa 0,0 mm 5,2 km/h (1 Bft) NW 317 ° 1 min 0,000 mm 8,0 UV-I 1011 W/m² 13,4 °C 22,9 °C 9,7 km/h (2 Bft)
04.07.2017 14:20 22,9 °C 22,9 °C 50 % 1018,8 hPa 0,0 mm 2,3 km/h (1 Bft) N-NO 15 ° 1 min 0,000 mm 7,9 UV-I 1007 W/m² 11,9 °C 22,9 °C 6,4 km/h (2 Bft)
04.07.2017 14:21 22,9 °C 22,9 °C 59 % 1018,8 hPa 0,0 mm 5,1 km/h (1 Bft) N-NO 29 ° 1 min 0,000 mm 7,9 UV-I 997 W/m² 14,5 °C 22,9 °C 6,4 km/h (2 Bft)
04.07.2017 14:22 22,9 °C 22,9 °C 50 % 1018,8 hPa 0,0 mm 7,7 km/h (2 Bft) N 5 ° 1 min 0,000 mm 7,8 UV-I 984 W/m² 11,9 °C 22,9 °C 12,9 km/h (3 Bft)
04.07.2017 14:23 23,0 °C 23,0 °C 48 % 1018,8 hPa 0,0 mm 4,4 km/h (1 Bft) N-NW 341 ° 1 min 0,000 mm 7,7 UV-I 970 W/m² 11,4 °C 23,0 °C 8,0 km/h (2 Bft)
04.07.2017 14:24 23,0 °C 23,0 °C 52 % 1018,8 hPa 0,0 mm 8,4 km/h (2 Bft) N 11 ° 1 min 0,000 mm 7,6 UV-I 967 W/m² 12,6 °C 23,0 °C 14,5 km/h (3 Bft)
04.07.2017 14:25 23,1 °C 23,1 °C 49 % 1018,8 hPa 0,0 mm 6,5 km/h (2 Bft) N-NW 343 ° 1 min 0,000 mm 7,7 UV-I 970 W/m² 11,8 °C 23,1 °C 12,9 km/h (3 Bft)
04.07.2017 14:26 23,2 °C 23,2 °C 53 % 1018,8 hPa 0,0 mm 5,6 km/h (1 Bft) N 360 ° 1 min 0,000 mm 7,7 UV-I 986 W/m² 13,1 °C 23,2 °C 9,7 km/h (2 Bft)
04.07.2017 14:27 23,3 °C 23,3 °C 55 % 1018,8 hPa 0,0 mm 5,4 km/h (1 Bft) NW 319 ° 1 min 0,000 mm 7,7 UV-I 983 W/m² 13,7 °C 23,3 °C 9,7 km/h (2 Bft)
04.07.2017 14:28 23,2 °C 23,3 °C 51 % 1018,8 hPa 0,0 mm 6,6 km/h (2 Bft) NW 325 ° 1 min 0,000 mm 7,7 UV-I 979 W/m² 12,5 °C 23,2 °C 9,7 km/h (2 Bft)
04.07.2017 14:29 23,1 °C 23,2 °C 49 % 1018,8 hPa 0,0 mm 4,8 km/h (1 Bft) NW 304 ° 1 min 0,000 mm 7,6 UV-I 972 W/m² 11,8 °C 23,1 °C 8,0 km/h (2 Bft)
04.07.2017 14:30 22,9 °C 23,1 °C 49 % 1018,8 hPa 0,0 mm 7,7 km/h (2 Bft) N-NW 328 ° 1 min 0,000 mm 7,6 UV-I 972 W/m² 11,6 °C 22,9 °C 12,9 km/h (3 Bft)
04.07.2017 14:31 22,8 °C 22,9 °C 51 % 1018,9 hPa 0,0 mm 0,5 km/h (0 Bft) N-NW 328 ° 1 min 0,000 mm 7,4 UV-I 942 W/m² 12,1 °C 22,8 °C 1,6 km/h (1 Bft)
04.07.2017 14:32 22,8 °C 22,8 °C 52 % 1018,8 hPa 0,0 mm 1,3 km/h (1 Bft) S 191 ° 1 min 0,000 mm 7,5 UV-I 942 W/m² 12,4 °C 22,8 °C 4,8 km/h (1 Bft)
04.07.2017 14:33 22,8 °C 22,8 °C 50 % 1018,8 hPa 0,0 mm 2,0 km/h (1 Bft) S 188 ° 1 min 0,000 mm 7,5 UV-I 944 W/m² 11,8 °C 22,8 °C 6,4 km/h (2 Bft)
04.07.2017 14:34 22,7 °C 22,8 °C 51 % 1018,8 hPa 0,0 mm 3,8 km/h (1 Bft) NW 315 ° 1 min 0,000 mm 7,5 UV-I 949 W/m² 12,0 °C 22,7 °C 4,8 km/h (1 Bft)
04.07.2017 14:35 22,7 °C 22,7 °C 50 % 1018,8 hPa 0,0 mm 5,6 km/h (1 Bft) W-NW 290 ° 1 min 0,000 mm 7,5 UV-I 954 W/m² 11,7 °C 22,7 °C 9,7 km/h (2 Bft)
04.07.2017 14:36 22,7 °C 22,7 °C 56 % 1018,8 hPa 0,0 mm 4,5 km/h (1 Bft) W 262 ° 1 min 0,000 mm 7,6 UV-I 1014 W/m² 13,5 °C 22,7 °C 9,7 km/h (2 Bft)
04.07.2017 14:37 22,8 °C 22,8 °C 55 % 1018,8 hPa 0,0 mm 4,7 km/h (1 Bft) W 269 ° 1 min 0,000 mm 7,6 UV-I 1014 W/m² 13,3 °C 22,8 °C 6,4 km/h (2 Bft)
04.07.2017 14:38 22,9 °C 22,9 °C 54 % 1018,8 hPa 0,0 mm 4,8 km/h (1 Bft) W 261 ° 1 min 0,000 mm 3,9 UV-I 1014 W/m² 13,1 °C 22,9 °C 6,4 km/h (2 Bft)
04.07.2017 14:39 22,8 °C 22,9 °C 53 % 1018,8 hPa 0,0 mm 2,6 km/h (1 Bft) W 261 ° 1 min 0,000 mm 3,6 UV-I 1014 W/m² 12,7 °C 22,8 °C 4,8 km/h (1 Bft)
04.07.2017 14:40 22,6 °C 22,8 °C 52 % 1018,8 hPa 0,0 mm 0,6 km/h (0 Bft) W 261 ° 0 min 0,000 mm 3,6 UV-I 262 W/m² 12,2 °C 22,6 °C 1,6 km/h (1 Bft)
04.07.2017 14:41 22,4 °C 22,6 °C 53 % 1018,8 hPa 0,0 mm 1,0 km/h (0 Bft) W 261 ° 0 min 0,000 mm 3,5 UV-I 262 W/m² 12,3 °C 22,4 °C 3,2 km/h (1 Bft)
04.07.2017 14:42 22,3 °C 22,4 °C 57 % 1018,8 hPa 0,0 mm 1,7 km/h (1 Bft) W 261 ° 0 min 0,000 mm 3,5 UV-I 232 W/m² 13,4 °C 22,3 °C 3,2 km/h (1 Bft)
04.07.2017 14:43 22,2 °C 22,3 °C 55 % 1018,8 hPa 0,0 mm 3,8 km/h (1 Bft) W-NW 288 ° 0 min 0,000 mm 3,7 UV-I 158 W/m² 12,7 °C 22,2 °C 6,4 km/h (2 Bft)
04.07.2017 14:44 22,1 °C 22,2 °C 56 % 1018,8 hPa 0,0 mm 3,2 km/h (1 Bft) NW 314 ° 0 min 0,000 mm 3,7 UV-I 158 W/m² 12,9 °C 22,1 °C 4,8 km/h (1 Bft)
04.07.2017 14:45 22,1 °C 22,1 °C 59 % 1018,8 hPa 0,0 mm 4,2 km/h (1 Bft) NW 325 ° 1 min 0,000 mm 4,4 UV-I 573 W/m² 13,7 °C 22,1 °C 4,8 km/h (1 Bft)
04.07.2017 14:46 22,1 °C 22,2 °C 55 % 1018,8 hPa 0,0 mm 3,5 km/h (1 Bft) W-NW 296 ° 1 min 0,000 mm 6,2 UV-I 573 W/m² 12,6 °C 22,1 °C 6,4 km/h (2 Bft)
04.07.2017 14:47 22,2 °C 22,2 °C 57 % 1018,8 hPa 0,0 mm 8,0 km/h (2 Bft) W-NW 301 ° 1 min 0,000 mm 4,1 UV-I 573 W/m² 13,3 °C 22,2 °C 12,9 km/h (3 Bft)
04.07.2017 14:48 22,4 °C 22,4 °C 58 % 1018,8 hPa 0,0 mm 6,6 km/h (2 Bft) N-NO 12 ° 1 min 0,000 mm 7,7 UV-I 1041 W/m² 13,7 °C 22,4 °C 11,3 km/h (2 Bft)
04.07.2017 14:49 22,6 °C 22,6 °C 53 % 1018,8 hPa 0,0 mm 7,4 km/h (2 Bft) N-NO 15 ° 1 min 0,000 mm 7,2 UV-I 1041 W/m² 12,5 °C 22,6 °C 12,9 km/h (3 Bft)
04.07.2017 14:50 22,7 °C 22,8 °C 53 % 1018,8 hPa 0,0 mm 8,5 km/h (2 Bft) N-NO 15 ° 1 min 0,000 mm 7,6 UV-I 1041 W/m² 12,6 °C 22,7 °C 12,9 km/h (3 Bft)
04.07.2017 14:51 22,8 °C 22,8 °C 52 % 1018,7 hPa 0,0 mm 10,9 km/h (2 Bft) N-NO 22 ° 1 min 0,000 mm 7,6 UV-I 1042 W/m² 12,4 °C 22,8 °C 16,1 km/h (3 Bft)
04.07.2017 14:52 22,9 °C 22,9 °C 56 % 1018,8 hPa 0,0 mm 7,9 km/h (2 Bft) W-NW 301 ° 1 min 0,000 mm 7,6 UV-I 991 W/m² 13,6 °C 22,9 °C 12,9 km/h (3 Bft)
04.07.2017 14:53 23,2 °C 23,2 °C 53 % 1018,8 hPa 0,0 mm 10,6 km/h (2 Bft) W-NW 288 ° 1 min 0,000 mm 7,6 UV-I 1049 W/m² 13,1 °C 23,2 °C 14,5 km/h (3 Bft)
04.07.2017 14:54 23,3 °C 23,3 °C 52 % 1018,8 hPa 0,0 mm 5,6 km/h (1 Bft) NW 309 ° 1 min 0,000 mm 5,7 UV-I 1049 W/m² 12,9 °C 23,3 °C 9,7 km/h (2 Bft)
04.07.2017 14:55 23,3 °C 23,3 °C 55 % 1018,7 hPa 0,0 mm 4,9 km/h (1 Bft) W-SW 253 ° 1 min 0,000 mm 7,4 UV-I 997 W/m² 13,7 °C 23,3 °C 6,4 km/h (2 Bft)
04.07.2017 14:56 23,2 °C 23,3 °C 51 % 1018,7 hPa 0,0 mm 6,7 km/h (2 Bft) W 262 ° 1 min 0,000 mm 7,4 UV-I 1002 W/m² 12,5 °C 23,2 °C 8,0 km/h (2 Bft)
04.07.2017 14:57 23,0 °C 23,2 °C 52 % 1018,7 hPa 0,0 mm 1,5 km/h (1 Bft) W-SW 252 ° 1 min 0,000 mm 7,4 UV-I 993 W/m² 12,6 °C 23,0 °C 3,2 km/h (1 Bft)
04.07.2017 14:58 22,9 °C 23,0 °C 54 % 1018,7 hPa 0,0 mm 0,7 km/h (0 Bft) W 269 ° 1 min 0,000 mm 7,4 UV-I 986 W/m² 13,1 °C 22,9 °C 3,2 km/h (1 Bft)
04.07.2017 14:59 22,9 °C 22,9 °C 52 % 1018,6 hPa 0,0 mm 1,5 km/h (1 Bft) W 277 ° 1 min 0,000 mm 7,4 UV-I 988 W/m² 12,5 °C 22,9 °C 3,2 km/h (1 Bft)
04.07.2017 15:00 23,1 °C 23,1 °C 56 % 1018,7 hPa 0,0 mm 2,0 km/h (1 Bft) N-NW 342 ° 1 min 0,584 mm 6,8 UV-I 1009 W/m² 13,8 °C 23,1 °C 3,2 km/h (1 Bft)
04.07.2017 15:01 23,2 °C 23,2 °C 55 % 1018,6 hPa 0,0 mm 3,7 km/h (1 Bft) W-NW 288 ° 1 min 0,000 mm 7,1 UV-I 911 W/m² 13,6 °C 23,2 °C 6,4 km/h (2 Bft)
04.07.2017 15:02 23,2 °C 23,2 °C 54 % 1018,6 hPa 0,0 mm 3,4 km/h (1 Bft) N-NW 330 ° 1 min 0,000 mm 5,4 UV-I 967 W/m² 13,4 °C 23,2 °C 4,8 km/h (1 Bft)
04.07.2017 15:03 23,3 °C 23,3 °C 56 % 1018,6 hPa 0,0 mm 4,0 km/h (1 Bft) N-NW 329 ° 1 min 0,000 mm 4,0 UV-I 967 W/m² 14,0 °C 23,3 °C 9,7 km/h (2 Bft)
04.07.2017 15:04 23,3 °C 23,3 °C 52 % 1018,6 hPa 0,0 mm 6,0 km/h (2 Bft) N-NO 30 ° 1 min 0,000 mm 3,9 UV-I 967 W/m² 12,9 °C 23,3 °C 8,0 km/h (2 Bft)
04.07.2017 15:05 23,1 °C 23,3 °C 51 % 1018,7 hPa 0,0 mm 4,0 km/h (1 Bft) NW 323 ° 1 min 0,000 mm 5,4 UV-I 967 W/m² 12,4 °C 23,1 °C 6,4 km/h (2 Bft)
04.07.2017 15:06 23,1 °C 23,1 °C 55 % 1018,7 hPa 0,0 mm 2,7 km/h (1 Bft) N-NW 333 ° 1 min 0,000 mm 7,4 UV-I 1044 W/m² 13,6 °C 23,1 °C 4,8 km/h (1 Bft)
04.07.2017 15:07 23,2 °C 23,2 °C 50 % 1018,7 hPa 0,0 mm 0,5 km/h (0 Bft) W-NW 283 ° 1 min 0,000 mm 7,3 UV-I 1027 W/m² 12,2 °C 23,2 °C 1,6 km/h (1 Bft)
04.07.2017 15:08 23,2 °C 23,2 °C 52 % 1018,7 hPa 0,0 mm 6,5 km/h (2 Bft) W-NW 296 ° 1 min 0,000 mm 7,3 UV-I 1023 W/m² 12,8 °C 23,2 °C 11,3 km/h (2 Bft)
04.07.2017 15:09 23,2 °C 23,2 °C 53 % 1018,7 hPa 0,0 mm 8,0 km/h (2 Bft) W 261 ° 1 min 0,000 mm 7,3 UV-I 1030 W/m² 13,1 °C 23,2 °C 9,7 km/h (2 Bft)
04.07.2017 15:10 23,1 °C 23,2 °C 49 % 1018,7 hPa 0,0 mm 3,9 km/h (1 Bft) W 281 ° 1 min 0,000 mm 7,2 UV-I 1042 W/m² 11,8 °C 23,1 °C 6,4 km/h (2 Bft)
04.07.2017 15:11 23,1 °C 23,1 °C 53 % 1018,6 hPa 0,0 mm 3,4 km/h (1 Bft) N-NW 329 ° 1 min 0,000 mm 6,9 UV-I 962 W/m² 13,0 °C 23,1 °C 6,4 km/h (2 Bft)
04.07.2017 15:12 23,3 °C 23,3 °C 55 % 1018,6 hPa 0,0 mm 5,3 km/h (1 Bft) NW 312 ° 1 min 0,000 mm 6,0 UV-I 962 W/m² 13,7 °C 23,3 °C 12,9 km/h (3 Bft)
04.07.2017 15:13 23,4 °C 23,4 °C 53 % 1018,6 hPa 0,0 mm 4,0 km/h (1 Bft) NW 314 ° 1 min 0,000 mm 7,1 UV-I 962 W/m² 13,3 °C 23,4 °C 8,0 km/h (2 Bft)
04.07.2017 15:14 23,4 °C 23,4 °C 49 % 1018,6 hPa 0,0 mm 6,4 km/h (2 Bft) N-NW 336 ° 1 min 0,000 mm 7,1 UV-I 1007 W/m² 12,1 °C 23,4 °C 9,7 km/h (2 Bft)
04.07.2017 15:15 23,6 °C 23,6 °C 53 % 1018,6 hPa 0,0 mm 4,9 km/h (1 Bft) W-NW 298 ° 1 min 0,000 mm 7,2 UV-I 1041 W/m² 13,4 °C 23,6 °C 8,0 km/h (2 Bft)
04.07.2017 15:16 23,7 °C 23,7 °C 53 % 1018,6 hPa 0,0 mm 4,8 km/h (1 Bft) W-NW 290 ° 1 min 0,000 mm 7,2 UV-I 1046 W/m² 13,5 °C 23,7 °C 8,0 km/h (2 Bft)
04.07.2017 15:17 23,8 °C 23,8 °C 56 % 1018,6 hPa 0,0 mm 11,4 km/h (2 Bft) W-NW 282 ° 1 min 0,000 mm 6,2 UV-I 1020 W/m² 14,5 °C 23,8 °C 16,1 km/h (3 Bft)
04.07.2017 15:18 23,7 °C 23,8 °C 52 % 1018,6 hPa 0,0 mm 9,8 km/h (2 Bft) N-NW 333 ° 1 min 0,000 mm 3,6 UV-I 294 W/m² 13,2 °C 23,7 °C 16,1 km/h (3 Bft)
04.07.2017 15:19 23,4 °C 23,7 °C 51 % 1018,6 hPa 0,0 mm 7,4 km/h (2 Bft) W 274 ° 1 min 0,000 mm 4,0 UV-I 357 W/m² 12,7 °C 23,4 °C 12,9 km/h (3 Bft)
04.07.2017 15:20 23,2 °C 23,4 °C 53 % 1018,6 hPa 0,0 mm 8,8 km/h (2 Bft) W-NW 288 ° 1 min 0,000 mm 6,8 UV-I 357 W/m² 13,1 °C 23,2 °C 12,9 km/h (3 Bft)
04.07.2017 15:21 22,9 °C 23,2 °C 49 % 1018,6 hPa 0,0 mm 4,8 km/h (1 Bft) W 273 ° 1 min 0,000 mm 6,7 UV-I 1025 W/m² 11,6 °C 22,9 °C 8,0 km/h (2 Bft)
04.07.2017 15:22 22,8 °C 22,9 °C 56 % 1018,5 hPa 0,0 mm 2,7 km/h (1 Bft) NW 311 ° 1 min 0,000 mm 6,7 UV-I 988 W/m² 13,6 °C 22,8 °C 4,8 km/h (1 Bft)
04.07.2017 15:23 22,8 °C 22,8 °C 54 % 1018,5 hPa 0,0 mm 2,2 km/h (1 Bft) NW 309 ° 1 min 0,000 mm 6,7 UV-I 914 W/m² 13,0 °C 22,8 °C 4,8 km/h (1 Bft)
04.07.2017 15:24 22,8 °C 22,8 °C 51 % 1018,5 hPa 0,0 mm 3,4 km/h (1 Bft) N-NW 330 ° 1 min 0,000 mm 6,3 UV-I 914 W/m² 12,1 °C 22,8 °C 4,8 km/h (1 Bft)
04.07.2017 15:25 22,9 °C 22,9 °C 55 % 1018,6 hPa 0,0 mm 6,9 km/h (2 Bft) NW 324 ° 1 min 0,000 mm 4,5 UV-I 914 W/m² 13,4 °C 22,9 °C 12,9 km/h (3 Bft)
04.07.2017 15:26 23,0 °C 23,0 °C 56 % 1018,5 hPa 0,0 mm 6,2 km/h (2 Bft) NW 313 ° 1 min 0,000 mm 6,3 UV-I 914 W/m² 13,7 °C 23,0 °C 11,3 km/h (2 Bft)
04.07.2017 15:27 23,0 °C 23,0 °C 52 % 1018,6 hPa 0,0 mm 5,4 km/h (1 Bft) N-NW 342 ° 1 min 0,000 mm 6,6 UV-I 914 W/m² 12,6 °C 23,0 °C 9,7 km/h (2 Bft)
04.07.2017 15:28 23,1 °C 23,1 °C 51 % 1018,6 hPa 0,0 mm 5,0 km/h (1 Bft) N-NW 348 ° 1 min 0,000 mm 6,6 UV-I 983 W/m² 12,4 °C 23,1 °C 6,4 km/h (2 Bft)
04.07.2017 15:29 23,2 °C 23,2 °C 54 % 1018,6 hPa 0,0 mm 7,9 km/h (2 Bft) N 5 ° 1 min 0,000 mm 6,7 UV-I 974 W/m² 13,4 °C 23,2 °C 12,9 km/h (3 Bft)
04.07.2017 15:30 23,2 °C 23,2 °C 50 % 1018,5 hPa 0,0 mm 8,4 km/h (2 Bft) N-NW 334 ° 1 min 0,000 mm 6,7 UV-I 974 W/m² 12,2 °C 23,2 °C 12,9 km/h (3 Bft)
04.07.2017 15:31 23,3 °C 23,3 °C 53 % 1018,5 hPa 0,0 mm 5,0 km/h (1 Bft) NW 317 ° 1 min 0,000 mm 6,6 UV-I 967 W/m² 13,2 °C 23,3 °C 6,4 km/h (2 Bft)
04.07.2017 15:32 23,5 °C 23,5 °C 57 % 1018,5 hPa 0,0 mm 4,2 km/h (1 Bft) W-NW 296 ° 1 min 0,000 mm 6,7 UV-I 967 W/m² 14,5 °C 23,5 °C 6,4 km/h (2 Bft)
04.07.2017 15:33 23,5 °C 23,6 °C 52 % 1018,5 hPa 0,0 mm 4,1 km/h (1 Bft) W-NW 298 ° 1 min 0,000 mm 6,6 UV-I 960 W/m² 13,1 °C 23,5 °C 6,4 km/h (2 Bft)
04.07.2017 15:34 23,5 °C 23,5 °C 53 % 1018,5 hPa 0,0 mm 5,5 km/h (1 Bft) W-SW 257 ° 1 min 0,000 mm 6,6 UV-I 960 W/m² 13,4 °C 23,5 °C 12,9 km/h (3 Bft)
04.07.2017 15:35 23,4 °C 23,5 °C 52 % 1018,5 hPa 0,0 mm 6,9 km/h (2 Bft) N-NW 328 ° 1 min 0,000 mm 6,5 UV-I 958 W/m² 13,0 °C 23,4 °C 11,3 km/h (2 Bft)
04.07.2017 15:36 23,3 °C 23,4 °C 53 % 1018,5 hPa 0,0 mm 4,4 km/h (1 Bft) N-NW 346 ° 1 min 0,000 mm 6,5 UV-I 954 W/m² 13,2 °C 23,3 °C 6,4 km/h (2 Bft)
04.07.2017 15:37 23,4 °C 23,4 °C 52 % 1018,5 hPa 0,0 mm 3,2 km/h (1 Bft) N 360 ° 1 min 0,000 mm 6,4 UV-I 951 W/m² 13,0 °C 23,4 °C 6,4 km/h (2 Bft)
04.07.2017 15:38 23,3 °C 23,4 °C 52 % 1018,5 hPa 0,0 mm 4,3 km/h (1 Bft) N-NW 329 ° 1 min 0,000 mm 6,5 UV-I 942 W/m² 12,9 °C 23,3 °C 9,7 km/h (2 Bft)
04.07.2017 15:39 23,4 °C 23,4 °C 53 % 1018,5 hPa 0,0 mm 6,9 km/h (2 Bft) W-NW 288 ° 1 min 0,000 mm 6,4 UV-I 933 W/m² 13,3 °C 23,4 °C 9,7 km/h (2 Bft)
04.07.2017 15:40 23,4 °C 23,4 °C 53 % 1018,5 hPa 0,0 mm 5,9 km/h (2 Bft) W-NW 288 ° 1 min 0,000 mm 6,4 UV-I 940 W/m² 13,3 °C 23,4 °C 8,0 km/h (2 Bft)
04.07.2017 15:41 23,6 °C 23,6 °C 53 % 1018,5 hPa 0,0 mm 5,1 km/h (1 Bft) NW 309 ° 1 min 0,000 mm 6,6 UV-I 963 W/m² 13,4 °C 23,6 °C 6,4 km/h (2 Bft)
04.07.2017 15:42 23,6 °C 23,6 °C 50 % 1018,5 hPa 0,0 mm 8,1 km/h (2 Bft) NW 318 ° 1 min 0,000 mm 6,6 UV-I 983 W/m² 12,6 °C 23,6 °C 9,7 km/h (2 Bft)
04.07.2017 15:43 23,6 °C 23,6 °C 53 % 1018,5 hPa 0,0 mm 5,9 km/h (2 Bft) N-NW 341 ° 1 min 0,000 mm 4,6 UV-I 932 W/m² 13,4 °C 23,6 °C 11,3 km/h (2 Bft)
04.07.2017 15:44 23,5 °C 23,6 °C 51 % 1018,5 hPa 0,0 mm 2,5 km/h (1 Bft) N 350 ° 1 min 0,000 mm 4,3 UV-I 932 W/m² 12,8 °C 23,5 °C 4,8 km/h (1 Bft)
04.07.2017 15:45 23,4 °C 23,5 °C 50 % 1018,5 hPa 0,0 mm 4,3 km/h (1 Bft) NW 308 ° 1 min 0,000 mm 5,4 UV-I 480 W/m² 12,4 °C 23,4 °C 6,4 km/h (2 Bft)
04.07.2017 15:46 23,4 °C 23,4 °C 52 % 1018,5 hPa 0,0 mm 6,5 km/h (2 Bft) N-NO 15 ° 1 min 0,000 mm 3,7 UV-I 480 W/m² 13,0 °C 23,4 °C 11,3 km/h (2 Bft)
04.07.2017 15:47 23,3 °C 23,4 °C 50 % 1018,5 hPa 0,0 mm 9,3 km/h (2 Bft) N-NW 348 ° 1 min 0,000 mm 3,6 UV-I 323 W/m² 12,3 °C 23,3 °C 12,9 km/h (3 Bft)
04.07.2017 15:48 23,2 °C 23,3 °C 49 % 1018,5 hPa 0,0 mm 3,6 km/h (1 Bft) NO 45 ° 1 min 0,000 mm 6,1 UV-I 323 W/m² 11,9 °C 23,2 °C 6,4 km/h (2 Bft)
04.07.2017 15:49 23,1 °C 23,2 °C 49 % 1018,5 hPa 0,0 mm 3,1 km/h (1 Bft) O-NO 59 ° 1 min 0,000 mm 5,8 UV-I 979 W/m² 11,8 °C 23,1 °C 9,7 km/h (2 Bft)
04.07.2017 15:50 23,0 °C 23,1 °C 52 % 1018,4 hPa 0,0 mm 7,1 km/h (2 Bft) O-NO 69 ° 1 min 0,000 mm 5,5 UV-I 979 W/m² 12,6 °C 23,0 °C 9,7 km/h (2 Bft)
04.07.2017 15:51 22,9 °C 23,0 °C 49 % 1018,5 hPa 0,0 mm 4,5 km/h (1 Bft) O-NO 62 ° 1 min 0,000 mm 6,3 UV-I 979 W/m² 11,6 °C 22,9 °C 6,4 km/h (2 Bft)
04.07.2017 15:52 22,9 °C 22,9 °C 50 % 1018,4 hPa 0,0 mm 5,0 km/h (1 Bft) NO 46 ° 1 min 0,000 mm 6,3 UV-I 969 W/m² 11,9 °C 22,9 °C 8,0 km/h (2 Bft)
04.07.2017 15:53 23,2 °C 23,2 °C 56 % 1018,3 hPa 0,0 mm 4,6 km/h (1 Bft) NO 49 ° 1 min 0,000 mm 6,4 UV-I 979 W/m² 13,9 °C 23,2 °C 6,4 km/h (2 Bft)
04.07.2017 15:54 23,2 °C 23,2 °C 51 % 1018,4 hPa 0,0 mm 4,8 km/h (1 Bft) N 349 ° 1 min 0,000 mm 6,2 UV-I 962 W/m² 12,5 °C 23,2 °C 6,4 km/h (2 Bft)
04.07.2017 15:55 23,3 °C 23,3 °C 50 % 1018,4 hPa 0,0 mm 8,3 km/h (2 Bft) N-NW 340 ° 1 min 0,000 mm 6,0 UV-I 932 W/m² 12,3 °C 23,3 °C 12,9 km/h (3 Bft)
04.07.2017 15:56 23,4 °C 23,4 °C 53 % 1018,4 hPa 0,0 mm 7,2 km/h (2 Bft) NW 318 ° 1 min 0,000 mm 6,2 UV-I 935 W/m² 13,3 °C 23,4 °C 9,7 km/h (2 Bft)
04.07.2017 15:57 23,7 °C 23,7 °C 51 % 1018,4 hPa 0,0 mm 4,8 km/h (1 Bft) N-NW 336 ° 1 min 0,000 mm 6,2 UV-I 942 W/m² 13,0 °C 23,7 °C 6,4 km/h (2 Bft)
04.07.2017 15:58 23,7 °C 23,7 °C 51 % 1018,4 hPa 0,0 mm 2,0 km/h (1 Bft) N 355 ° 1 min 0,000 mm 3,4 UV-I 942 W/m² 13,0 °C 23,7 °C 3,2 km/h (1 Bft)
04.07.2017 15:59 23,6 °C 23,7 °C 51 % 1018,4 hPa 0,0 mm 2,5 km/h (1 Bft) W-NW 285 ° 0 min 0,000 mm 2,9 UV-I 236 W/m² 12,9 °C 23,6 °C 9,7 km/h (2 Bft)
04.07.2017 16:00 23,4 °C 23,6 °C 53 % 1018,4 hPa 0,0 mm 7,8 km/h (2 Bft) W-NW 292 ° 0 min 0,000 mm 3,7 UV-I 236 W/m² 13,3 °C 23,4 °C 11,3 km/h (2 Bft)
04.07.2017 16:01 23,2 °C 23,4 °C 48 % 1018,4 hPa 0,0 mm 5,6 km/h (1 Bft) W-NW 296 ° 0 min 0,533 mm 5,6 UV-I 236 W/m² 11,6 °C 23,2 °C 6,4 km/h (2 Bft)
04.07.2017 16:02 23,1 °C 23,2 °C 52 % 1018,4 hPa 0,0 mm 5,1 km/h (1 Bft) NW 323 ° 0 min 0,000 mm 5,8 UV-I 236 W/m² 12,7 °C 23,1 °C 6,4 km/h (2 Bft)
04.07.2017 16:03 23,1 °C 23,1 °C 52 % 1018,4 hPa 0,0 mm 3,2 km/h (1 Bft) N-NW 347 ° 0 min 0,000 mm 5,1 UV-I 236 W/m² 12,7 °C 23,1 °C 4,8 km/h (1 Bft)
04.07.2017 16:04 23,1 °C 23,1 °C 54 % 1018,4 hPa 0,0 mm 4,6 km/h (1 Bft) N 360 ° 0 min 0,000 mm 3,1 UV-I 285 W/m² 13,3 °C 23,1 °C 8,0 km/h (2 Bft)
04.07.2017 16:05 23,0 °C 23,1 °C 53 % 1018,4 hPa 0,0 mm 6,0 km/h (2 Bft) NW 319 ° 0 min 0,000 mm 2,9 UV-I 279 W/m² 12,9 °C 23,0 °C 8,0 km/h (2 Bft)
04.07.2017 16:06 22,9 °C 23,0 °C 53 % 1018,4 hPa 0,0 mm 6,5 km/h (2 Bft) NW 320 ° 0 min 0,000 mm 2,9 UV-I 278 W/m² 12,8 °C 22,9 °C 11,3 km/h (2 Bft)
04.07.2017 16:07 22,8 °C 22,9 °C 52 % 1018,4 hPa 0,0 mm 5,2 km/h (1 Bft) W 274 ° 0 min 0,000 mm 2,9 UV-I 276 W/m² 12,4 °C 22,8 °C 8,0 km/h (2 Bft)
04.07.2017 16:08 22,7 °C 22,8 °C 51 % 1018,4 hPa 0,0 mm 3,8 km/h (1 Bft) NW 318 ° 0 min 0,000 mm 2,9 UV-I 265 W/m² 12,0 °C 22,7 °C 6,4 km/h (2 Bft)
04.07.2017 16:09 22,6 °C 22,7 °C 52 % 1018,4 hPa 0,0 mm 2,8 km/h (1 Bft) N-NW 333 ° 0 min 0,000 mm 2,8 UV-I 265 W/m² 12,2 °C 22,6 °C 9,7 km/h (2 Bft)
04.07.2017 16:10 22,4 °C 22,6 °C 55 % 1018,4 hPa 0,0 mm 5,0 km/h (1 Bft) NW 315 ° 0 min 0,000 mm 2,9 UV-I 267 W/m² 12,9 °C 22,4 °C 9,7 km/h (2 Bft)
04.07.2017 16:11 22,4 °C 22,4 °C 52 % 1018,4 hPa 0,0 mm 4,5 km/h (1 Bft) NW 321 ° 0 min 0,000 mm 5,5 UV-I 267 W/m² 12,1 °C 22,4 °C 6,4 km/h (2 Bft)
04.07.2017 16:12 22,5 °C 22,5 °C 52 % 1018,4 hPa 0,0 mm 1,8 km/h (1 Bft) NW 321 ° 0 min 0,000 mm 5,1 UV-I 267 W/m² 12,1 °C 22,5 °C 3,2 km/h (1 Bft)
04.07.2017 16:13 22,5 °C 22,5 °C 50 % 1018,3 hPa 0,0 mm 1,4 km/h (1 Bft) NW 321 ° 0 min 0,000 mm 3,2 UV-I 267 W/m² 11,5 °C 22,5 °C 3,2 km/h (1 Bft)
04.07.2017 16:14 22,5 °C 22,5 °C 51 % 1018,3 hPa 0,0 mm 1,4 km/h (1 Bft) NW 321 ° 0 min 0,000 mm 2,8 UV-I 267 W/m² 11,8 °C 22,5 °C 3,2 km/h (1 Bft)
04.07.2017 16:15 22,5 °C 22,5 °C 55 % 1018,3 hPa 0,0 mm 3,9 km/h (1 Bft) N 355 ° 0 min 0,000 mm 2,6 UV-I 218 W/m² 13,0 °C 22,5 °C 6,4 km/h (2 Bft)
04.07.2017 16:16 22,5 °C 22,6 °C 51 % 1018,4 hPa 0,0 mm 5,0 km/h (1 Bft) NO 37 ° 0 min 0,000 mm 2,8 UV-I 227 W/m² 11,8 °C 22,5 °C 8,0 km/h (2 Bft)
04.07.2017 16:17 22,6 °C 22,6 °C 51 % 1018,4 hPa 0,0 mm 4,0 km/h (1 Bft) NO 49 ° 0 min 0,000 mm 2,5 UV-I 225 W/m² 11,9 °C 22,6 °C 6,4 km/h (2 Bft)
04.07.2017 16:18 22,7 °C 22,7 °C 55 % 1018,3 hPa 0,0 mm 2,9 km/h (1 Bft) O-NO 58 ° 0 min 0,000 mm 2,5 UV-I 230 W/m² 13,2 °C 22,7 °C 6,4 km/h (2 Bft)
04.07.2017 16:19 22,7 °C 22,7 °C 49 % 1018,3 hPa 0,0 mm 0,2 km/h (0 Bft) O-NO 58 ° 0 min 0,000 mm 2,6 UV-I 237 W/m² 11,4 °C 22,7 °C 1,6 km/h (1 Bft)
04.07.2017 16:20 22,7 °C 22,7 °C 49 % 1018,3 hPa 0,0 mm 2,7 km/h (1 Bft) O-NO 67 ° 0 min 0,000 mm 2,8 UV-I 251 W/m² 11,4 °C 22,7 °C 4,8 km/h (1 Bft)
04.07.2017 16:21 22,7 °C 22,7 °C 52 % 1018,3 hPa 0,0 mm 2,0 km/h (1 Bft) O-NO 67 ° 0 min 0,000 mm 2,9 UV-I 260 W/m² 12,3 °C 22,7 °C 3,2 km/h (1 Bft)
04.07.2017 16:22 22,8 °C 22,8 °C 53 % 1018,3 hPa 0,0 mm 5,2 km/h (1 Bft) O 82 ° 0 min 0,000 mm 2,9 UV-I 248 W/m² 12,7 °C 22,8 °C 6,4 km/h (2 Bft)
04.07.2017 16:23 22,8 °C 22,9 °C 50 % 1018,2 hPa 0,0 mm 1,8 km/h (1 Bft) O 82 ° 0 min 0,000 mm 2,8 UV-I 234 W/m² 11,8 °C 22,8 °C 3,2 km/h (1 Bft)
04.07.2017 16:24 22,8 °C 22,8 °C 50 % 1018,2 hPa 0,0 mm 1,3 km/h (1 Bft) O 82 ° 0 min 0,000 mm 2,8 UV-I 223 W/m² 11,8 °C 22,8 °C 3,2 km/h (1 Bft)
04.07.2017 16:25 22,8 °C 22,8 °C 53 % 1018,2 hPa 0,0 mm 0,9 km/h (0 Bft) O 82 ° 0 min 0,000 mm 2,8 UV-I 214 W/m² 12,7 °C 22,8 °C 3,2 km/h (1 Bft)
04.07.2017 16:26 22,8 °C 22,8 °C 52 % 1018,2 hPa 0,0 mm 3,8 km/h (1 Bft) NO 36 ° 0 min 0,000 mm 2,7 UV-I 202 W/m² 12,4 °C 22,8 °C 6,4 km/h (2 Bft)
04.07.2017 16:27 22,9 °C 22,9 °C 53 % 1018,3 hPa 0,0 mm 5,6 km/h (1 Bft) O 89 ° 0 min 0,000 mm 2,7 UV-I 195 W/m² 12,8 °C 22,9 °C 8,0 km/h (2 Bft)
04.07.2017 16:28 22,9 °C 22,9 °C 49 % 1018,3 hPa 0,0 mm 3,7 km/h (1 Bft) O-NO 57 ° 0 min 0,000 mm 2,7 UV-I 192 W/m² 11,6 °C 22,9 °C 4,8 km/h (1 Bft)
04.07.2017 16:29 22,8 °C 22,9 °C 50 % 1018,3 hPa 0,0 mm 4,8 km/h (1 Bft) NO 49 ° 0 min 0,000 mm 2,7 UV-I 188 W/m² 11,8 °C 22,8 °C 6,4 km/h (2 Bft)
04.07.2017 16:30 22,9 °C 22,9 °C 51 % 1018,2 hPa 0,0 mm 5,7 km/h (1 Bft) NO 44 ° 0 min 0,000 mm 2,7 UV-I 192 W/m² 12,2 °C 22,9 °C 8,0 km/h (2 Bft)
04.07.2017 16:31 23,2 °C 23,2 °C 50 % 1018,3 hPa 0,0 mm 8,9 km/h (2 Bft) N-NO 17 ° 0 min 0,000 mm 2,7 UV-I 193 W/m² 12,2 °C 23,2 °C 14,5 km/h (3 Bft)
04.07.2017 16:32 23,2 °C 23,2 °C 49 % 1018,3 hPa 0,0 mm 5,2 km/h (1 Bft) NO 50 ° 0 min 0,000 mm 2,6 UV-I 183 W/m² 11,9 °C 23,2 °C 9,7 km/h (2 Bft)
04.07.2017 16:33 23,1 °C 23,2 °C 52 % 1018,2 hPa 0,0 mm 4,5 km/h (1 Bft) N-NO 17 ° 0 min 0,000 mm 2,6 UV-I 167 W/m² 12,7 °C 23,1 °C 8,0 km/h (2 Bft)
04.07.2017 16:34 23,1 °C 23,1 °C 50 % 1018,2 hPa 0,0 mm 8,1 km/h (2 Bft) N-NO 19 ° 0 min 0,000 mm 2,5 UV-I 153 W/m² 12,1 °C 23,1 °C 16,1 km/h (3 Bft)
04.07.2017 16:35 23,2 °C 23,2 °C 51 % 1018,2 hPa 0,0 mm 12,2 km/h (2 Bft) N-NW 340 ° 0 min 0,000 mm 2,5 UV-I 155 W/m² 12,5 °C 23,2 °C 17,7 km/h (3 Bft)
04.07.2017 16:36 23,1 °C 23,2 °C 49 % 1018,3 hPa 0,0 mm 4,4 km/h (1 Bft) N 355 ° 0 min 0,000 mm 2,5 UV-I 151 W/m² 11,8 °C 23,1 °C 6,4 km/h (2 Bft)
04.07.2017 16:37 23,0 °C 23,1 °C 48 % 1018,2 hPa 0,0 mm 8,1 km/h (2 Bft) W-NW 293 ° 0 min 0,000 mm 2,5 UV-I 176 W/m² 11,4 °C 23,0 °C 11,3 km/h (2 Bft)
04.07.2017 16:38 22,8 °C 23,0 °C 49 % 1018,2 hPa 0,0 mm 4,8 km/h (1 Bft) N-NW 329 ° 0 min 0,000 mm 2,5 UV-I 169 W/m² 11,5 °C 22,8 °C 6,4 km/h (2 Bft)
04.07.2017 16:39 22,8 °C 22,8 °C 53 % 1018,2 hPa 0,0 mm 5,7 km/h (1 Bft) N-NW 327 ° 0 min 0,000 mm 2,6 UV-I 176 W/m² 12,7 °C 22,8 °C 8,0 km/h (2 Bft)
04.07.2017 16:40 22,8 °C 22,8 °C 51 % 1018,2 hPa 0,0 mm 4,5 km/h (1 Bft) NW 316 ° 0 min 0,000 mm 2,6 UV-I 178 W/m² 12,1 °C 22,8 °C 6,4 km/h (2 Bft)
04.07.2017 16:41 22,8 °C 22,8 °C 50 % 1018,1 hPa 0,0 mm 4,5 km/h (1 Bft) O-NO 65 ° 0 min 0,000 mm 2,4 UV-I 151 W/m² 11,8 °C 22,8 °C 6,4 km/h (2 Bft)
04.07.2017 16:42 22,8 °C 22,8 °C 54 % 1018,1 hPa 0,0 mm 6,3 km/h (2 Bft) N 355 ° 0 min 0,000 mm 2,3 UV-I 125 W/m² 13,0 °C 22,8 °C 9,7 km/h (2 Bft)
04.07.2017 16:43 22,9 °C 22,9 °C 53 % 1018,1 hPa 0,0 mm 8,8 km/h (2 Bft) O 87 ° 0 min 0,000 mm 2,3 UV-I 125 W/m² 12,8 °C 22,9 °C 14,5 km/h (3 Bft)
04.07.2017 16:44 22,8 °C 22,9 °C 54 % 1018,1 hPa 0,0 mm 4,0 km/h (1 Bft) O-NO 76 ° 0 min 0,000 mm 2,3 UV-I 113 W/m² 13,0 °C 22,8 °C 8,0 km/h (2 Bft)
04.07.2017 16:45 22,9 °C 22,9 °C 53 % 1018,1 hPa 0,0 mm 5,7 km/h (1 Bft) N-NO 30 ° 0 min 0,000 mm 2,2 UV-I 109 W/m² 12,8 °C 22,9 °C 9,7 km/h (2 Bft)
04.07.2017 16:46 22,9 °C 22,9 °C 54 % 1018,1 hPa 0,0 mm 6,3 km/h (2 Bft) NO 45 ° 0 min 0,000 mm 2,2 UV-I 121 W/m² 13,1 °C 22,9 °C 11,3 km/h (2 Bft)
04.07.2017 16:47 22,7 °C 22,9 °C 52 % 1018,1 hPa 0,0 mm 4,2 km/h (1 Bft) O-NO 71 ° 0 min 0,000 mm 2,3 UV-I 121 W/m² 12,3 °C 22,7 °C 8,0 km/h (2 Bft)
04.07.2017 16:48 22,6 °C 22,7 °C 52 % 1018,1 hPa 0,0 mm 5,1 km/h (1 Bft) O 81 ° 0 min 0,000 mm 2,3 UV-I 153 W/m² 12,2 °C 22,6 °C 11,3 km/h (2 Bft)
04.07.2017 16:49 22,4 °C 22,6 °C 52 % 1018,1 hPa 0,0 mm 3,8 km/h (1 Bft) O 101 ° 0 min 0,000 mm 2,3 UV-I 163 W/m² 12,1 °C 22,4 °C 4,8 km/h (1 Bft)
04.07.2017 16:50 22,3 °C 22,4 °C 54 % 1018,1 hPa 0,0 mm 3,0 km/h (1 Bft) O-NO 76 ° 0 min 0,000 mm 2,3 UV-I 171 W/m² 12,5 °C 22,3 °C 6,4 km/h (2 Bft)
04.07.2017 16:51 22,3 °C 22,3 °C 53 % 1018,1 hPa 0,0 mm 5,0 km/h (1 Bft) O 91 ° 0 min 0,000 mm 2,3 UV-I 179 W/m² 12,2 °C 22,3 °C 8,0 km/h (2 Bft)
04.07.2017 16:52 22,2 °C 22,3 °C 54 % 1018,1 hPa 0,0 mm 5,0 km/h (1 Bft) O-NO 71 ° 0 min 0,000 mm 2,2 UV-I 176 W/m² 12,4 °C 22,2 °C 6,4 km/h (2 Bft)
04.07.2017 16:53 22,2 °C 22,2 °C 54 % 1018,2 hPa 0,0 mm 3,6 km/h (1 Bft) O-NO 69 ° 0 min 0,000 mm 2,2 UV-I 172 W/m² 12,4 °C 22,2 °C 6,4 km/h (2 Bft)
04.07.2017 16:54 22,2 °C 22,2 °C 53 % 1018,1 hPa 0,0 mm 1,2 km/h (1 Bft) O-NO 69 ° 0 min 0,000 mm 2,2 UV-I 167 W/m² 12,2 °C 22,2 °C 3,2 km/h (1 Bft)
04.07.2017 16:55 22,2 °C 22,2 °C 55 % 1018,1 hPa 0,0 mm 2,2 km/h (1 Bft) O 80 ° 0 min 0,000 mm 2,2 UV-I 171 W/m² 12,7 °C 22,2 °C 4,8 km/h (1 Bft)
04.07.2017 16:56 22,2 °C 22,2 °C 61 % 1018,0 hPa 0,0 mm 2,7 km/h (1 Bft) O-NO 65 ° 0 min 0,000 mm 2,2 UV-I 176 W/m² 14,3 °C 22,2 °C 3,2 km/h (1 Bft)
04.07.2017 16:57 22,2 °C 22,2 °C 55 % 1018,1 hPa 0,0 mm 4,2 km/h (1 Bft) O-NO 69 ° 0 min 0,000 mm 2,3 UV-I 188 W/m² 12,7 °C 22,2 °C 6,4 km/h (2 Bft)
04.07.2017 16:58 22,3 °C 22,3 °C 53 % 1018,0 hPa 0,0 mm 4,3 km/h (1 Bft) O-NO 64 ° 0 min 0,000 mm 2,3 UV-I 179 W/m² 12,2 °C 22,3 °C 6,4 km/h (2 Bft)
04.07.2017 16:59 22,3 °C 22,3 °C 52 % 1018,1 hPa 0,0 mm 2,7 km/h (1 Bft) S-SO 148 ° 0 min 0,000 mm 2,2 UV-I 169 W/m² 12,0 °C 22,3 °C 6,4 km/h (2 Bft)
04.07.2017 17:00 22,4 °C 22,4 °C 57 % 1018,0 hPa 0,0 mm 3,1 km/h (1 Bft) SO 133 ° 0 min 0,000 mm 2,2 UV-I 179 W/m² 13,5 °C 22,4 °C 6,4 km/h (2 Bft)
04.07.2017 17:01 22,4 °C 22,4 °C 56 % 1018,0 hPa 0,0 mm 4,8 km/h (1 Bft) SO 133 ° 0 min 0,178 mm 2,2 UV-I 160 W/m² 13,2 °C 22,4 °C 6,4 km/h (2 Bft)
04.07.2017 17:02 22,4 °C 22,4 °C 54 % 1018,0 hPa 0,0 mm 5,4 km/h (1 Bft) O-NO 67 ° 0 min 0,000 mm 2,2 UV-I 153 W/m² 12,6 °C 22,4 °C 9,7 km/h (2 Bft)
04.07.2017 17:03 22,4 °C 22,4 °C 61 % 1018,0 hPa 0,0 mm 4,8 km/h (1 Bft) O 81 ° 0 min 0,000 mm 2,2 UV-I 144 W/m² 14,5 °C 22,4 °C 8,0 km/h (2 Bft)
04.07.2017 17:04 22,5 °C 22,5 °C 53 % 1018,0 hPa 0,0 mm 2,0 km/h (1 Bft) S-SO 163 ° 0 min 0,000 mm 2,1 UV-I 135 W/m² 12,4 °C 22,5 °C 6,4 km/h (2 Bft)
04.07.2017 17:05 22,5 °C 22,6 °C 52 % 1018,0 hPa 0,0 mm 1,3 km/h (1 Bft) NO 47 ° 0 min 0,000 mm 2,1 UV-I 132 W/m² 12,1 °C 22,5 °C 3,2 km/h (1 Bft)
04.07.2017 17:06 22,5 °C 22,5 °C 54 % 1018,0 hPa 0,0 mm 4,5 km/h (1 Bft) N-NO 23 ° 0 min 0,000 mm 2,1 UV-I 134 W/m² 12,7 °C 22,5 °C 11,3 km/h (2 Bft)
04.07.2017 17:07 22,7 °C 22,7 °C 54 % 1017,9 hPa 0,0 mm 4,8 km/h (1 Bft) N-NO 26 ° 0 min 0,000 mm 2,1 UV-I 137 W/m² 12,9 °C 22,7 °C 6,4 km/h (2 Bft)
04.07.2017 17:08 22,8 °C 22,8 °C 54 % 1018,0 hPa 0,0 mm 6,0 km/h (2 Bft) O 94 ° 0 min 0,000 mm 2,1 UV-I 144 W/m² 13,0 °C 22,8 °C 9,7 km/h (2 Bft)
04.07.2017 17:09 22,9 °C 22,9 °C 53 % 1018,0 hPa 0,0 mm 5,8 km/h (2 Bft) O-NO 72 ° 0 min 0,000 mm 2,2 UV-I 155 W/m² 12,8 °C 22,9 °C 9,7 km/h (2 Bft)
04.07.2017 17:10 22,8 °C 22,9 °C 53 % 1018,0 hPa 0,0 mm 5,5 km/h (1 Bft) O-NO 73 ° 0 min 0,000 mm 2,2 UV-I 165 W/m² 12,7 °C 22,8 °C 8,0 km/h (2 Bft)
04.07.2017 17:11 22,8 °C 22,8 °C 52 % 1018,0 hPa 0,0 mm 5,2 km/h (1 Bft) O 96 ° 0 min 0,000 mm 2,2 UV-I 171 W/m² 12,4 °C 22,8 °C 9,7 km/h (2 Bft)
04.07.2017 17:12 22,8 °C 22,8 °C 53 % 1018,0 hPa 0,0 mm 4,7 km/h (1 Bft) O 84 ° 0 min 0,000 mm 2,2 UV-I 171 W/m² 12,7 °C 22,8 °C 6,4 km/h (2 Bft)
04.07.2017 17:13 22,8 °C 22,8 °C 55 % 1018,0 hPa 0,0 mm 2,8 km/h (1 Bft) O-SO 120 ° 0 min 0,000 mm 2,2 UV-I 169 W/m² 13,3 °C 22,8 °C 4,8 km/h (1 Bft)
04.07.2017 17:14 22,7 °C 22,8 °C 50 % 1018,0 hPa 0,0 mm 2,9 km/h (1 Bft) O-SO 120 ° 0 min 0,000 mm 2,2 UV-I 156 W/m² 11,7 °C 22,7 °C 3,2 km/h (1 Bft)
04.07.2017 17:15 22,7 °C 22,7 °C 54 % 1018,0 hPa 0,0 mm 1,8 km/h (1 Bft) N-NO 26 ° 0 min 0,000 mm 2,1 UV-I 156 W/m² 12,9 °C 22,7 °C 4,8 km/h (1 Bft)
04.07.2017 17:16 22,7 °C 22,8 °C 51 % 1018,0 hPa 0,0 mm 3,2 km/h (1 Bft) N-NO 24 ° 0 min 0,000 mm 2,2 UV-I 162 W/m² 12,0 °C 22,7 °C 4,8 km/h (1 Bft)
04.07.2017 17:17 22,8 °C 22,8 °C 51 % 1018,0 hPa 0,0 mm 2,7 km/h (1 Bft) N-NO 24 ° 0 min 0,000 mm 2,2 UV-I 165 W/m² 12,1 °C 22,8 °C 3,2 km/h (1 Bft)
04.07.2017 17:18 23,0 °C 23,0 °C 52 % 1017,9 hPa 0,0 mm 3,4 km/h (1 Bft) W-NW 301 ° 0 min 0,000 mm 2,1 UV-I 165 W/m² 12,6 °C 23,0 °C 6,4 km/h (2 Bft)
04.07.2017 17:19 23,0 °C 23,0 °C 51 % 1018,0 hPa 0,0 mm 1,1 km/h (1 Bft) W-NW 301 ° 0 min 0,000 mm 2,1 UV-I 160 W/m² 12,3 °C 23,0 °C 3,2 km/h (1 Bft)
04.07.2017 17:20 22,9 °C 23,0 °C 50 % 1018,0 hPa 0,0 mm 1,0 km/h (0 Bft) W 276 ° 0 min 0,000 mm 2,1 UV-I 144 W/m² 11,9 °C 22,9 °C 4,8 km/h (1 Bft)
04.07.2017 17:21 22,9 °C 22,9 °C 51 % 1018,0 hPa 0,0 mm 4,5 km/h (1 Bft) W-SW 250 ° 0 min 0,000 mm 2,0 UV-I 141 W/m² 12,2 °C 22,9 °C 6,4 km/h (2 Bft)
04.07.2017 17:22 22,9 °C 22,9 °C 51 % 1018,0 hPa 0,0 mm 4,3 km/h (1 Bft) NW 309 ° 0 min 0,000 mm 2,0 UV-I 134 W/m² 12,2 °C 22,9 °C 6,4 km/h (2 Bft)
04.07.2017 17:23 22,9 °C 22,9 °C 52 % 1017,9 hPa 0,0 mm 4,4 km/h (1 Bft) NW 309 ° 0 min 0,000 mm 1,9 UV-I 127 W/m² 12,5 °C 22,9 °C 6,4 km/h (2 Bft)
04.07.2017 17:24 23,0 °C 23,0 °C 53 % 1018,0 hPa 0,0 mm 3,4 km/h (1 Bft) SW 228 ° 0 min 0,000 mm 1,9 UV-I 128 W/m² 12,9 °C 23,0 °C 6,4 km/h (2 Bft)
04.07.2017 17:25 23,0 °C 23,1 °C 52 % 1017,9 hPa 0,0 mm 6,4 km/h (2 Bft) W-SW 256 ° 0 min 0,000 mm 1,9 UV-I 134 W/m² 12,6 °C 23,0 °C 11,3 km/h (2 Bft)
04.07.2017 17:26 23,1 °C 23,1 °C 54 % 1017,9 hPa 0,0 mm 9,3 km/h (2 Bft) W 262 ° 0 min 0,000 mm 1,9 UV-I 113 W/m² 13,3 °C 23,1 °C 12,9 km/h (3 Bft)
04.07.2017 17:27 23,0 °C 23,1 °C 53 % 1017,8 hPa 0,0 mm 13,3 km/h (3 Bft) N-NW 336 ° 0 min 0,000 mm 1,9 UV-I 105 W/m² 12,9 °C 23,0 °C 17,7 km/h (3 Bft)
04.07.2017 17:28 23,1 °C 23,1 °C 54 % 1017,9 hPa 0,0 mm 6,9 km/h (2 Bft) N 5 ° 0 min 0,000 mm 1,8 UV-I 104 W/m² 13,3 °C 23,1 °C 14,5 km/h (3 Bft)
04.07.2017 17:29 23,1 °C 23,1 °C 57 % 1017,9 hPa 0,0 mm 4,5 km/h (1 Bft) N 355 ° 0 min 0,000 mm 1,8 UV-I 104 W/m² 14,1 °C 23,1 °C 4,8 km/h (1 Bft)
04.07.2017 17:30 23,2 °C 23,2 °C 55 % 1017,9 hPa 0,0 mm 4,7 km/h (1 Bft) NO 45 ° 0 min 0,000 mm 1,9 UV-I 98 W/m² 13,6 °C 23,2 °C 4,8 km/h (1 Bft)
04.07.2017 17:31 23,2 °C 23,3 °C 52 % 1017,9 hPa 0,0 mm 5,0 km/h (1 Bft) O-NO 67 ° 0 min 0,000 mm 1,8 UV-I 97 W/m² 12,8 °C 23,2 °C 11,3 km/h (2 Bft)
04.07.2017 17:32 23,2 °C 23,2 °C 52 % 1017,9 hPa 0,0 mm 6,0 km/h (2 Bft) N 355 ° 0 min 0,000 mm 1,8 UV-I 93 W/m² 12,8 °C 23,2 °C 8,0 km/h (2 Bft)
04.07.2017 17:33 23,3 °C 23,3 °C 52 % 1017,9 hPa 0,0 mm 4,5 km/h (1 Bft) N-NW 335 ° 0 min 0,000 mm 1,8 UV-I 93 W/m² 12,9 °C 23,3 °C 6,4 km/h (2 Bft)
04.07.2017 17:34 23,4 °C 23,4 °C 52 % 1017,9 hPa 0,0 mm 6,4 km/h (2 Bft) W-NW 303 ° 0 min 0,000 mm 1,8 UV-I 97 W/m² 13,0 °C 23,4 °C 8,0 km/h (2 Bft)
04.07.2017 17:35 23,4 °C 23,4 °C 53 % 1017,9 hPa 0,0 mm 3,9 km/h (1 Bft) N 360 ° 0 min 0,000 mm 1,8 UV-I 98 W/m² 13,3 °C 23,4 °C 6,4 km/h (2 Bft)
04.07.2017 17:36 23,4 °C 23,5 °C 53 % 1017,9 hPa 0,0 mm 7,1 km/h (2 Bft) N-NO 18 ° 0 min 0,000 mm 1,8 UV-I 98 W/m² 13,3 °C 23,4 °C 9,7 km/h (2 Bft)
04.07.2017 17:37 23,4 °C 23,4 °C 51 % 1018,0 hPa 0,0 mm 3,2 km/h (1 Bft) N-NO 28 ° 0 min 0,000 mm 1,7 UV-I 95 W/m² 12,7 °C 23,4 °C 4,8 km/h (1 Bft)
04.07.2017 17:38 23,3 °C 23,4 °C 51 % 1017,9 hPa 0,0 mm 2,6 km/h (1 Bft) N-NO 21 ° 0 min 0,000 mm 1,7 UV-I 90 W/m² 12,6 °C 23,3 °C 4,8 km/h (1 Bft)
04.07.2017 17:39 23,3 °C 23,3 °C 52 % 1017,9 hPa 0,0 mm 3,4 km/h (1 Bft) N-NO 21 ° 0 min 0,000 mm 1,7 UV-I 88 W/m² 12,9 °C 23,3 °C 8,0 km/h (2 Bft)
04.07.2017 17:40 23,1 °C 23,3 °C 51 % 1017,9 hPa 0,0 mm 5,9 km/h (2 Bft) N-NO 31 ° 0 min 0,000 mm 1,7 UV-I 86 W/m² 12,4 °C 23,1 °C 9,7 km/h (2 Bft)
04.07.2017 17:41 23,0 °C 23,1 °C 51 % 1017,9 hPa 0,0 mm 4,5 km/h (1 Bft) O 80 ° 0 min 0,000 mm 1,7 UV-I 84 W/m² 12,3 °C 23,0 °C 6,4 km/h (2 Bft)
04.07.2017 17:42 22,9 °C 23,0 °C 51 % 1017,9 hPa 0,0 mm 5,1 km/h (1 Bft) O 91 ° 0 min 0,000 mm 1,7 UV-I 84 W/m² 12,2 °C 22,9 °C 9,7 km/h (2 Bft)
04.07.2017 17:43 22,8 °C 22,9 °C 50 % 1017,8 hPa 0,0 mm 2,9 km/h (1 Bft) O 91 ° 0 min 0,000 mm 1,7 UV-I 86 W/m² 11,8 °C 22,8 °C 6,4 km/h (2 Bft)
04.07.2017 17:44 22,6 °C 22,8 °C 51 % 1017,8 hPa 0,0 mm 2,2 km/h (1 Bft) O 86 ° 0 min 0,000 mm 1,7 UV-I 90 W/m² 11,9 °C 22,6 °C 4,8 km/h (1 Bft)
04.07.2017 17:45 22,6 °C 22,6 °C 54 % 1017,9 hPa 0,0 mm 4,3 km/h (1 Bft) O-NO 76 ° 0 min 0,000 mm 1,7 UV-I 88 W/m² 12,8 °C 22,6 °C 8,0 km/h (2 Bft)
04.07.2017 17:46 22,5 °C 22,6 °C 51 % 1017,8 hPa 0,0 mm 5,0 km/h (1 Bft) O-SO 105 ° 0 min 0,000 mm 1,6 UV-I 86 W/m² 11,8 °C 22,5 °C 12,9 km/h (3 Bft)
04.07.2017 17:47 22,4 °C 22,5 °C 52 % 1017,8 hPa 0,0 mm 4,4 km/h (1 Bft) O-SO 113 ° 0 min 0,000 mm 1,7 UV-I 84 W/m² 12,1 °C 22,4 °C 6,4 km/h (2 Bft)
04.07.2017 17:48 22,3 °C 22,4 °C 52 % 1017,8 hPa 0,0 mm 5,4 km/h (1 Bft) O-SO 116 ° 0 min 0,000 mm 1,6 UV-I 88 W/m² 12,0 °C 22,3 °C 6,4 km/h (2 Bft)
04.07.2017 17:49 22,3 °C 22,3 °C 52 % 1017,8 hPa 0,0 mm 3,0 km/h (1 Bft) O-SO 116 ° 0 min 0,000 mm 1,6 UV-I 84 W/m² 12,0 °C 22,3 °C 6,4 km/h (2 Bft)
04.07.2017 17:50 22,2 °C 22,3 °C 52 % 1017,8 hPa 0,0 mm 6,4 km/h (2 Bft) NO 55 ° 0 min 0,000 mm 1,6 UV-I 77 W/m² 11,9 °C 22,2 °C 12,9 km/h (3 Bft)
04.07.2017 17:51 22,3 °C 22,3 °C 53 % 1017,7 hPa 0,0 mm 4,0 km/h (1 Bft) O-NO 60 ° 0 min 0,000 mm 1,6 UV-I 77 W/m² 12,2 °C 22,3 °C 8,0 km/h (2 Bft)
04.07.2017 17:52 22,3 °C 22,3 °C 53 % 1017,7 hPa 0,0 mm 3,8 km/h (1 Bft) O-NO 65 ° 0 min 0,000 mm 1,6 UV-I 76 W/m² 12,2 °C 22,3 °C 6,4 km/h (2 Bft)
04.07.2017 17:53 22,4 °C 22,4 °C 53 % 1017,7 hPa 0,0 mm 3,8 km/h (1 Bft) O-NO 65 ° 0 min 0,000 mm 1,6 UV-I 72 W/m² 12,3 °C 22,4 °C 8,0 km/h (2 Bft)
04.07.2017 17:54 22,4 °C 22,4 °C 52 % 1017,8 hPa 0,0 mm 3,3 km/h (1 Bft) NO 53 ° 0 min 0,000 mm 1,5 UV-I 69 W/m² 12,1 °C 22,4 °C 8,0 km/h (2 Bft)
04.07.2017 17:55 22,5 °C 22,5 °C 53 % 1017,7 hPa 0,0 mm 3,6 km/h (1 Bft) NO 38 ° 0 min 0,000 mm 1,5 UV-I 67 W/m² 12,4 °C 22,5 °C 4,8 km/h (1 Bft)
04.07.2017 17:56 22,6 °C 22,6 °C 53 % 1017,7 hPa 0,0 mm 6,5 km/h (2 Bft) O-NO 75 ° 0 min 0,000 mm 1,5 UV-I 63 W/m² 12,5 °C 22,6 °C 11,3 km/h (2 Bft)
04.07.2017 17:57 22,7 °C 22,7 °C 55 % 1017,7 hPa 0,0 mm 8,3 km/h (2 Bft) O-NO 71 ° 0 min 0,000 mm 1,5 UV-I 65 W/m² 13,2 °C 22,7 °C 12,9 km/h (3 Bft)
04.07.2017 17:58 22,7 °C 22,7 °C 54 % 1017,7 hPa 0,0 mm 6,6 km/h (2 Bft) O-NO 72 ° 0 min 0,000 mm 1,5 UV-I 65 W/m² 12,9 °C 22,7 °C 11,3 km/h (2 Bft)
04.07.2017 17:59 22,7 °C 22,7 °C 51 % 1017,7 hPa 0,0 mm 5,7 km/h (1 Bft) O 92 ° 0 min 0,000 mm 1,5 UV-I 70 W/m² 12,0 °C 22,7 °C 9,7 km/h (2 Bft)
04.07.2017 18:00 22,6 °C 22,7 °C 52 % 1017,6 hPa 0,0 mm 4,4 km/h (1 Bft) NO 38 ° 0 min 0,000 mm 1,5 UV-I 72 W/m² 12,2 °C 22,6 °C 8,0 km/h (2 Bft)
04.07.2017 18:01 22,7 °C 22,7 °C 54 % 1017,6 hPa 0,0 mm 7,8 km/h (2 Bft) O-NO 67 ° 0 min 0,102 mm 1,5 UV-I 84 W/m² 12,9 °C 22,7 °C 14,5 km/h (3 Bft)
04.07.2017 18:02 22,8 °C 22,8 °C 54 % 1017,7 hPa 0,0 mm 7,2 km/h (2 Bft) NO 39 ° 0 min 0,000 mm 1,5 UV-I 90 W/m² 13,0 °C 22,8 °C 9,7 km/h (2 Bft)
04.07.2017 18:03 22,8 °C 22,8 °C 53 % 1017,7 hPa 0,0 mm 6,6 km/h (2 Bft) O-NO 76 ° 0 min 0,000 mm 1,5 UV-I 97 W/m² 12,7 °C 22,8 °C 12,9 km/h (3 Bft)
04.07.2017 18:04 22,7 °C 22,8 °C 53 % 1017,7 hPa 0,0 mm 5,0 km/h (1 Bft) O 94 ° 0 min 0,000 mm 1,5 UV-I 102 W/m² 12,6 °C 22,7 °C 9,7 km/h (2 Bft)
04.07.2017 18:05 22,7 °C 22,7 °C 53 % 1017,7 hPa 0,0 mm 7,3 km/h (2 Bft) O-NO 69 ° 0 min 0,000 mm 1,5 UV-I 105 W/m² 12,6 °C 22,7 °C 12,9 km/h (3 Bft)
04.07.2017 18:06 22,7 °C 22,7 °C 53 % 1017,7 hPa 0,0 mm 6,0 km/h (2 Bft) O-NO 69 ° 0 min 0,000 mm 1,5 UV-I 123 W/m² 12,6 °C 22,7 °C 9,7 km/h (2 Bft)
04.07.2017 18:07 22,7 °C 22,7 °C 52 % 1017,7 hPa 0,0 mm 3,6 km/h (1 Bft) NO 51 ° 0 min 0,000 mm 1,5 UV-I 109 W/m² 12,3 °C 22,7 °C 8,0 km/h (2 Bft)
04.07.2017 18:08 22,7 °C 22,7 °C 52 % 1017,6 hPa 0,0 mm 3,8 km/h (1 Bft) O-NO 62 ° 0 min 0,000 mm 1,5 UV-I 107 W/m² 12,3 °C 22,7 °C 6,4 km/h (2 Bft)
04.07.2017 18:09 22,7 °C 22,7 °C 53 % 1017,7 hPa 0,0 mm 5,3 km/h (1 Bft) O 86 ° 0 min 0,000 mm 1,5 UV-I 98 W/m² 12,6 °C 22,7 °C 6,4 km/h (2 Bft)
04.07.2017 18:10 22,7 °C 22,7 °C 52 % 1017,7 hPa 0,0 mm 7,3 km/h (2 Bft) O-NO 67 ° 0 min 0,000 mm 1,5 UV-I 93 W/m² 12,3 °C 22,7 °C 9,7 km/h (2 Bft)
04.07.2017 18:11 22,7 °C 22,7 °C 55 % 1017,7 hPa 0,0 mm 5,2 km/h (1 Bft) O 84 ° 0 min 0,000 mm 1,4 UV-I 84 W/m² 13,2 °C 22,7 °C 14,5 km/h (3 Bft)
04.07.2017 18:12 22,7 °C 22,7 °C 52 % 1017,7 hPa 0,0 mm 3,4 km/h (1 Bft) N-NO 19 ° 0 min 0,000 mm 1,4 UV-I 76 W/m² 12,3 °C 22,7 °C 4,8 km/h (1 Bft)
04.07.2017 18:13 22,7 °C 22,7 °C 53 % 1017,6 hPa 0,0 mm 6,3 km/h (2 Bft) NO 46 ° 0 min 0,000 mm 1,4 UV-I 65 W/m² 12,6 °C 22,7 °C 8,0 km/h (2 Bft)
04.07.2017 18:14 22,7 °C 22,7 °C 52 % 1017,6 hPa 0,0 mm 8,0 km/h (2 Bft) O 79 ° 0 min 0,000 mm 1,3 UV-I 58 W/m² 12,3 °C 22,7 °C 11,3 km/h (2 Bft)
04.07.2017 18:15 22,7 °C 22,8 °C 53 % 1017,7 hPa 0,0 mm 3,5 km/h (1 Bft) O 86 ° 0 min 0,000 mm 0,0 UV-I 53 W/m² 12,6 °C 22,7 °C 6,4 km/h (2 Bft)
04.07.2017 18:16 22,7 °C 22,7 °C 53 % 1017,7 hPa 0,0 mm 0,8 km/h (0 Bft) O 86 ° 0 min 0,000 mm 0,0 UV-I 53 W/m² 12,6 °C 22,7 °C 1,6 km/h (1 Bft)
04.07.2017 18:17 22,6 °C 22,7 °C 54 % 1017,7 hPa 0,0 mm 1,2 km/h (1 Bft) O-NO 65 ° 0 min 0,000 mm 0,0 UV-I 49 W/m² 12,8 °C 22,6 °C 3,2 km/h (1 Bft)
04.07.2017 18:18 22,4 °C 22,6 °C 54 % 1017,6 hPa 0,0 mm 4,3 km/h (1 Bft) O-NO 63 ° 0 min 0,000 mm 0,0 UV-I 49 W/m² 12,6 °C 22,4 °C 8,0 km/h (2 Bft)
04.07.2017 18:19 22,4 °C 22,4 °C 56 % 1017,7 hPa 0,0 mm 5,2 km/h (1 Bft) O-SO 107 ° 0 min 0,000 mm 0,0 UV-I 47 W/m² 13,2 °C 22,4 °C 8,0 km/h (2 Bft)
04.07.2017 18:20 22,4 °C 22,4 °C 56 % 1017,7 hPa 0,0 mm 2,1 km/h (1 Bft) O-NO 68 ° 0 min 0,000 mm 0,0 UV-I 47 W/m² 13,2 °C 22,4 °C 6,4 km/h (2 Bft)
04.07.2017 18:21 22,4 °C 22,4 °C 53 % 1017,7 hPa 0,0 mm 5,0 km/h (1 Bft) O 98 ° 0 min 0,000 mm 0,0 UV-I 47 W/m² 12,3 °C 22,4 °C 6,4 km/h (2 Bft)
04.07.2017 18:22 22,4 °C 22,4 °C 53 % 1017,7 hPa 0,0 mm 5,3 km/h (1 Bft) O-NO 59 ° 0 min 0,000 mm 0,0 UV-I 49 W/m² 12,3 °C 22,4 °C 8,0 km/h (2 Bft)
04.07.2017 18:23 22,4 °C 22,4 °C 54 % 1017,7 hPa 0,0 mm 5,2 km/h (1 Bft) O-NO 63 ° 0 min 0,000 mm 0,0 UV-I 47 W/m² 12,6 °C 22,4 °C 11,3 km/h (2 Bft)
04.07.2017 18:24 22,4 °C 22,4 °C 53 % 1017,6 hPa 0,0 mm 6,2 km/h (2 Bft) O-SO 108 ° 0 min 0,000 mm 0,0 UV-I 47 W/m² 12,3 °C 22,4 °C 9,7 km/h (2 Bft)
04.07.2017 18:25 22,4 °C 22,4 °C 56 % 1017,6 hPa 0,0 mm 3,4 km/h (1 Bft) O-NO 64 ° 0 min 0,000 mm 0,0 UV-I 49 W/m² 13,2 °C 22,4 °C 6,4 km/h (2 Bft)
04.07.2017 18:26 22,5 °C 22,5 °C 57 % 1017,6 hPa 0,0 mm 3,6 km/h (1 Bft) O-NO 65 ° 0 min 0,000 mm 0,0 UV-I 49 W/m² 13,5 °C 22,5 °C 6,4 km/h (2 Bft)
04.07.2017 18:27 22,5 °C 22,5 °C 55 % 1017,7 hPa 0,0 mm 3,1 km/h (1 Bft) O-NO 71 ° 0 min 0,000 mm 0,0 UV-I 51 W/m² 13,0 °C 22,5 °C 4,8 km/h (1 Bft)
04.07.2017 18:28 22,4 °C 22,5 °C 58 % 1017,7 hPa 0,0 mm 4,5 km/h (1 Bft) O-NO 71 ° 0 min 0,000 mm 0,0 UV-I 54 W/m² 13,7 °C 22,4 °C 8,0 km/h (2 Bft)
04.07.2017 18:29 22,4 °C 22,4 °C 54 % 1017,6 hPa 0,0 mm 1,1 km/h (1 Bft) O-NO 71 ° 0 min 0,000 mm 0,0 UV-I 51 W/m² 12,6 °C 22,4 °C 3,2 km/h (1 Bft)
04.07.2017 18:30 22,3 °C 22,4 °C 55 % 1017,6 hPa 0,0 mm 5,2 km/h (1 Bft) O 83 ° 0 min 0,000 mm 1,2 UV-I 69 W/m² 12,8 °C 22,3 °C 9,7 km/h (2 Bft)
04.07.2017 18:31 22,3 °C 22,3 °C 53 % 1017,6 hPa 0,0 mm 2,5 km/h (1 Bft) NO 49 ° 0 min 0,000 mm 1,3 UV-I 105 W/m² 12,2 °C 22,3 °C 4,8 km/h (1 Bft)
04.07.2017 18:32 22,3 °C 22,4 °C 52 % 1017,7 hPa 0,0 mm 1,5 km/h (1 Bft) O-NO 63 ° 0 min 0,000 mm 1,4 UV-I 132 W/m² 12,0 °C 22,3 °C 3,2 km/h (1 Bft)
04.07.2017 18:33 22,4 °C 22,4 °C 54 % 1017,6 hPa 0,0 mm 4,0 km/h (1 Bft) O-NO 66 ° 0 min 0,000 mm 1,3 UV-I 135 W/m² 12,6 °C 22,4 °C 6,4 km/h (2 Bft)
04.07.2017 18:34 22,4 °C 22,4 °C 54 % 1017,7 hPa 0,0 mm 6,0 km/h (2 Bft) O-NO 70 ° 0 min 0,000 mm 1,3 UV-I 107 W/m² 12,6 °C 22,4 °C 8,0 km/h (2 Bft)
04.07.2017 18:35 22,5 °C 22,5 °C 56 % 1017,7 hPa 0,0 mm 4,9 km/h (1 Bft) NO 48 ° 0 min 0,000 mm 1,3 UV-I 69 W/m² 13,3 °C 22,5 °C 8,0 km/h (2 Bft)
04.07.2017 18:36 22,5 °C 22,5 °C 54 % 1017,7 hPa 0,0 mm 4,4 km/h (1 Bft) O 101 ° 0 min 0,000 mm 1,2 UV-I 116 W/m² 12,7 °C 22,5 °C 6,4 km/h (2 Bft)
04.07.2017 18:37 22,5 °C 22,6 °C 54 % 1017,7 hPa 0,0 mm 2,8 km/h (1 Bft) O 99 ° 0 min 0,000 mm 1,4 UV-I 125 W/m² 12,7 °C 22,5 °C 4,8 km/h (1 Bft)
04.07.2017 18:38 22,5 °C 22,6 °C 53 % 1017,7 hPa 0,0 mm 2,7 km/h (1 Bft) N-NO 32 ° 0 min 0,000 mm 1,3 UV-I 88 W/m² 12,4 °C 22,5 °C 6,4 km/h (2 Bft)
04.07.2017 18:39 22,6 °C 22,6 °C 53 % 1017,6 hPa 0,0 mm 2,3 km/h (1 Bft) O-NO 63 ° 0 min 0,000 mm 1,3 UV-I 88 W/m² 12,5 °C 22,6 °C 4,8 km/h (1 Bft)
04.07.2017 18:40 22,5 °C 22,6 °C 53 % 1017,6 hPa 0,0 mm 2,9 km/h (1 Bft) O-NO 63 ° 0 min 0,000 mm 1,3 UV-I 118 W/m² 12,4 °C 22,5 °C 6,4 km/h (2 Bft)
04.07.2017 18:41 22,5 °C 22,5 °C 53 % 1017,7 hPa 0,0 mm 3,6 km/h (1 Bft) O-NO 59 ° 0 min 0,000 mm 1,4 UV-I 114 W/m² 12,4 °C 22,5 °C 6,4 km/h (2 Bft)
04.07.2017 18:42 22,6 °C 22,6 °C 53 % 1017,6 hPa 0,0 mm 1,1 km/h (1 Bft) O-NO 59 ° 0 min 0,000 mm 1,5 UV-I 199 W/m² 12,5 °C 22,6 °C 3,2 km/h (1 Bft)
04.07.2017 18:43 22,6 °C 22,6 °C 55 % 1017,7 hPa 0,0 mm 4,8 km/h (1 Bft) O-NO 74 ° 0 min 0,000 mm 1,5 UV-I 151 W/m² 13,1 °C 22,6 °C 8,0 km/h (2 Bft)
04.07.2017 18:44 22,6 °C 22,6 °C 52 % 1017,7 hPa 0,0 mm 5,9 km/h (2 Bft) O-NO 59 ° 0 min 0,000 mm 1,5 UV-I 188 W/m² 12,2 °C 22,6 °C 8,0 km/h (2 Bft)
04.07.2017 18:45 22,5 °C 22,6 °C 53 % 1017,7 hPa 0,0 mm 5,3 km/h (1 Bft) O 94 ° 0 min 0,000 mm 1,5 UV-I 227 W/m² 12,4 °C 22,5 °C 6,4 km/h (2 Bft)
04.07.2017 18:46 22,5 °C 22,6 °C 54 % 1017,6 hPa 0,0 mm 2,6 km/h (1 Bft) SO 134 ° 0 min 0,000 mm 1,5 UV-I 220 W/m² 12,7 °C 22,5 °C 6,4 km/h (2 Bft)
04.07.2017 18:47 22,4 °C 22,5 °C 54 % 1017,7 hPa 0,0 mm 5,7 km/h (1 Bft) O-SO 113 ° 0 min 0,000 mm 1,5 UV-I 241 W/m² 12,6 °C 22,4 °C 9,7 km/h (2 Bft)
04.07.2017 18:48 22,3 °C 22,4 °C 54 % 1017,6 hPa 0,0 mm 1,7 km/h (1 Bft) SO 131 ° 0 min 0,000 mm 1,5 UV-I 279 W/m² 12,5 °C 22,3 °C 6,4 km/h (2 Bft)
04.07.2017 18:49 22,3 °C 22,4 °C 54 % 1017,7 hPa 0,0 mm 3,4 km/h (1 Bft) O-SO 102 ° 0 min 0,000 mm 1,4 UV-I 237 W/m² 12,5 °C 22,3 °C 6,4 km/h (2 Bft)
04.07.2017 18:50 22,3 °C 22,3 °C 55 % 1017,6 hPa 0,0 mm 3,8 km/h (1 Bft) NO 35 ° 0 min 0,000 mm 1,4 UV-I 199 W/m² 12,8 °C 22,3 °C 6,4 km/h (2 Bft)
04.07.2017 18:51 22,4 °C 22,4 °C 57 % 1017,6 hPa 0,0 mm 3,6 km/h (1 Bft) NO 49 ° 0 min 0,000 mm 1,4 UV-I 214 W/m² 13,5 °C 22,4 °C 4,8 km/h (1 Bft)
04.07.2017 18:52 22,4 °C 22,4 °C 54 % 1017,6 hPa 0,0 mm 3,6 km/h (1 Bft) NO 46 ° 0 min 0,000 mm 1,4 UV-I 255 W/m² 12,6 °C 22,4 °C 6,4 km/h (2 Bft)
04.07.2017 18:53 22,5 °C 22,6 °C 57 % 1017,6 hPa 0,0 mm 4,3 km/h (1 Bft) O-NO 76 ° 0 min 0,000 mm 1,4 UV-I 265 W/m² 13,5 °C 22,5 °C 6,4 km/h (2 Bft)
04.07.2017 18:54 22,5 °C 22,5 °C 54 % 1017,6 hPa 0,0 mm 3,2 km/h (1 Bft) O 83 ° 0 min 0,000 mm 1,4 UV-I 288 W/m² 12,7 °C 22,5 °C 4,8 km/h (1 Bft)
04.07.2017 18:55 22,4 °C 22,5 °C 54 % 1017,6 hPa 0,0 mm 5,3 km/h (1 Bft) NO 56 ° 0 min 0,000 mm 1,4 UV-I 278 W/m² 12,6 °C 22,4 °C 8,0 km/h (2 Bft)
04.07.2017 18:56 22,4 °C 22,4 °C 54 % 1017,6 hPa 0,0 mm 2,9 km/h (1 Bft) NO 56 ° 0 min 0,000 mm 1,3 UV-I 236 W/m² 12,6 °C 22,4 °C 6,4 km/h (2 Bft)
04.07.2017 18:57 22,4 °C 22,5 °C 54 % 1017,6 hPa 0,0 mm 0,0 km/h (0 Bft) NO 56 ° 0 min 0,000 mm 1,3 UV-I 244 W/m² 12,6 °C 22,4 °C 0,0 km/h (0 Bft)
04.07.2017 18:58 22,5 °C 22,5 °C 56 % 1017,6 hPa 0,0 mm 3,6 km/h (1 Bft) O-SO 105 ° 0 min 0,000 mm 1,3 UV-I 278 W/m² 13,3 °C 22,5 °C 6,4 km/h (2 Bft)
04.07.2017 18:59 22,4 °C 22,5 °C 53 % 1017,6 hPa 0,0 mm 3,1 km/h (1 Bft) O 101 ° 0 min 0,000 mm 1,3 UV-I 283 W/m² 12,3 °C 22,4 °C 4,8 km/h (1 Bft)
04.07.2017 19:00 22,3 °C 22,4 °C 53 % 1017,6 hPa 0,0 mm 3,4 km/h (1 Bft) O-NO 61 ° 0 min 0,000 mm 1,3 UV-I 281 W/m² 12,2 °C 22,3 °C 6,4 km/h (2 Bft)
04.07.2017 19:01 22,4 °C 22,4 °C 54 % 1017,6 hPa 0,0 mm 3,5 km/h (1 Bft) O-NO 67 ° 0 min 0,127 mm 1,3 UV-I 278 W/m² 12,6 °C 22,4 °C 4,8 km/h (1 Bft)
04.07.2017 19:02 22,4 °C 22,4 °C 56 % 1017,7 hPa 0,0 mm 3,9 km/h (1 Bft) NO 56 ° 0 min 0,000 mm 1,2 UV-I 276 W/m² 13,2 °C 22,4 °C 6,4 km/h (2 Bft)
04.07.2017 19:03 22,3 °C 22,4 °C 53 % 1017,7 hPa 0,0 mm 2,2 km/h (1 Bft) O-NO 68 ° 0 min 0,000 mm 1,2 UV-I 274 W/m² 12,2 °C 22,3 °C 4,8 km/h (1 Bft)
04.07.2017 19:04 22,4 °C 22,4 °C 53 % 1017,6 hPa 0,0 mm 4,9 km/h (1 Bft) O-NO 66 ° 0 min 0,000 mm 1,2 UV-I 269 W/m² 12,3 °C 22,4 °C 6,4 km/h (2 Bft)
04.07.2017 19:05 22,4 °C 22,4 °C 58 % 1017,7 hPa 0,0 mm 3,4 km/h (1 Bft) W-SW 242 ° 0 min 0,000 mm 1,1 UV-I 197 W/m² 13,7 °C 22,4 °C 4,8 km/h (1 Bft)
04.07.2017 19:06 22,3 °C 22,4 °C 54 % 1017,7 hPa 0,0 mm 5,2 km/h (1 Bft) O 82 ° 0 min 0,000 mm 1,1 UV-I 197 W/m² 12,5 °C 22,3 °C 8,0 km/h (2 Bft)
04.07.2017 19:07 22,3 °C 22,3 °C 56 % 1017,6 hPa 0,0 mm 2,6 km/h (1 Bft) O 82 ° 0 min 0,000 mm 0,0 UV-I 49 W/m² 13,1 °C 22,3 °C 4,8 km/h (1 Bft)
04.07.2017 19:08 22,2 °C 22,3 °C 56 % 1017,6 hPa 0,0 mm 0,7 km/h (0 Bft) O 82 ° 0 min 0,000 mm 1,0 UV-I 139 W/m² 13,0 °C 22,2 °C 3,2 km/h (1 Bft)
04.07.2017 19:09 22,1 °C 22,2 °C 54 % 1017,6 hPa 0,0 mm 1,8 km/h (1 Bft) O 83 ° 0 min 0,000 mm 1,1 UV-I 202 W/m² 12,3 °C 22,1 °C 3,2 km/h (1 Bft)
04.07.2017 19:10 22,1 °C 22,2 °C 57 % 1017,7 hPa 0,0 mm 0,8 km/h (0 Bft) O 83 ° 0 min 0,000 mm 1,0 UV-I 174 W/m² 13,2 °C 22,1 °C 3,2 km/h (1 Bft)
04.07.2017 19:11 22,1 °C 22,1 °C 56 % 1017,6 hPa 0,0 mm 2,5 km/h (1 Bft) NO 53 ° 0 min 0,000 mm 1,0 UV-I 200 W/m² 12,9 °C 22,1 °C 8,0 km/h (2 Bft)
04.07.2017 19:12 22,1 °C 22,1 °C 56 % 1017,6 hPa 0,0 mm 5,9 km/h (2 Bft) O-NO 59 ° 0 min 0,000 mm 1,0 UV-I 195 W/m² 12,9 °C 22,1 °C 8,0 km/h (2 Bft)
04.07.2017 19:13 22,1 °C 22,1 °C 54 % 1017,6 hPa 0,0 mm 2,0 km/h (1 Bft) O-NO 57 ° 0 min 0,000 mm 1,0 UV-I 149 W/m² 12,3 °C 22,1 °C 4,8 km/h (1 Bft)
04.07.2017 19:14 22,1 °C 22,1 °C 57 % 1017,6 hPa 0,0 mm 2,3 km/h (1 Bft) SO 131 ° 0 min 0,000 mm 1,0 UV-I 149 W/m² 13,2 °C 22,1 °C 4,8 km/h (1 Bft)
04.07.2017 19:15 22,1 °C 22,1 °C 55 % 1017,6 hPa 0,0 mm 0,1 km/h (0 Bft) SO 131 ° 0 min 0,000 mm 1,0 UV-I 137 W/m² 12,6 °C 22,1 °C 1,6 km/h (1 Bft)
04.07.2017 19:16 22,1 °C 22,1 °C 54 % 1017,7 hPa 0,0 mm 0,0 km/h (0 Bft) SO 128 ° 0 min 0,000 mm 1,0 UV-I 98 W/m² 12,3 °C 22,1 °C 0,0 km/h (0 Bft)
04.07.2017 19:17 22,1 °C 22,1 °C 56 % 1017,6 hPa 0,0 mm 2,3 km/h (1 Bft) O-SO 103 ° 0 min 0,000 mm 1,0 UV-I 188 W/m² 12,9 °C 22,1 °C 4,8 km/h (1 Bft)
04.07.2017 19:18 22,1 °C 22,1 °C 59 % 1017,7 hPa 0,0 mm 4,4 km/h (1 Bft) O 79 ° 0 min 0,000 mm 0,9 UV-I 214 W/m² 13,7 °C 22,1 °C 6,4 km/h (2 Bft)
04.07.2017 19:19 22,0 °C 22,1 °C 56 % 1017,7 hPa 0,0 mm 4,6 km/h (1 Bft) O-NO 57 ° 0 min 0,000 mm 0,9 UV-I 225 W/m² 12,8 °C 22,0 °C 8,0 km/h (2 Bft)
04.07.2017 19:20 22,0 °C 22,0 °C 56 % 1017,7 hPa 0,0 mm 8,4 km/h (2 Bft) NO 55 ° 0 min 0,000 mm 0,9 UV-I 227 W/m² 12,8 °C 22,0 °C 14,5 km/h (3 Bft)
04.07.2017 19:21 22,1 °C 22,1 °C 54 % 1017,7 hPa 0,0 mm 7,8 km/h (2 Bft) O-NO 61 ° 0 min 0,000 mm 0,9 UV-I 225 W/m² 12,3 °C 22,1 °C 11,3 km/h (2 Bft)
04.07.2017 19:22 22,2 °C 22,2 °C 55 % 1017,6 hPa 0,0 mm 4,4 km/h (1 Bft) O-NO 64 ° 0 min 0,000 mm 0,9 UV-I 221 W/m² 12,7 °C 22,2 °C 4,8 km/h (1 Bft)
04.07.2017 19:23 22,2 °C 22,2 °C 60 % 1017,6 hPa 0,0 mm 4,6 km/h (1 Bft) NO 49 ° 0 min 0,000 mm 0,9 UV-I 218 W/m² 14,1 °C 22,2 °C 8,0 km/h (2 Bft)
04.07.2017 19:24 22,3 °C 22,3 °C 54 % 1017,6 hPa 0,0 mm 5,2 km/h (1 Bft) O-NO 60 ° 0 min 0,000 mm 0,9 UV-I 214 W/m² 12,5 °C 22,3 °C 8,0 km/h (2 Bft)
04.07.2017 19:25 22,3 °C 22,3 °C 59 % 1017,6 hPa 0,0 mm 2,0 km/h (1 Bft) O-NO 60 ° 0 min 0,000 mm 0,8 UV-I 214 W/m² 13,9 °C 22,3 °C 4,8 km/h (1 Bft)
04.07.2017 19:26 22,2 °C 22,3 °C 57 % 1017,6 hPa 0,0 mm 2,3 km/h (1 Bft) O-NO 78 ° 0 min 0,000 mm 0,8 UV-I 209 W/m² 13,3 °C 22,2 °C 4,8 km/h (1 Bft)
04.07.2017 19:27 22,2 °C 22,2 °C 55 % 1017,6 hPa 0,0 mm 2,9 km/h (1 Bft) O-NO 69 ° 0 min 0,000 mm 0,8 UV-I 206 W/m² 12,7 °C 22,2 °C 4,8 km/h (1 Bft)
04.07.2017 19:28 22,2 °C 22,2 °C 56 % 1017,6 hPa 0,0 mm 3,4 km/h (1 Bft) O-NO 65 ° 0 min 0,000 mm 0,8 UV-I 204 W/m² 13,0 °C 22,2 °C 6,4 km/h (2 Bft)
04.07.2017 19:29 22,1 °C 22,2 °C 58 % 1017,6 hPa 0,0 mm 1,5 km/h (1 Bft) O-NO 65 ° 0 min 0,000 mm 0,8 UV-I 202 W/m² 13,4 °C 22,1 °C 3,2 km/h (1 Bft)
04.07.2017 19:30 22,1 °C 22,1 °C 57 % 1017,6 hPa 0,0 mm 0,9 km/h (0 Bft) O-NO 65 ° 0 min 0,000 mm 0,8 UV-I 197 W/m² 13,2 °C 22,1 °C 3,2 km/h (1 Bft)
04.07.2017 19:31 22,1 °C 22,1 °C 57 % 1017,6 hPa 0,0 mm 2,1 km/h (1 Bft) O-NO 72 ° 0 min 0,000 mm 0,8 UV-I 193 W/m² 13,2 °C 22,1 °C 4,8 km/h (1 Bft)
04.07.2017 19:32 22,0 °C 22,1 °C 58 % 1017,6 hPa 0,0 mm 2,9 km/h (1 Bft) O-NO 71 ° 0 min 0,000 mm 0,8 UV-I 192 W/m² 13,3 °C 22,0 °C 6,4 km/h (2 Bft)
04.07.2017 19:33 21,9 °C 22,1 °C 57 % 1017,6 hPa 0,0 mm 0,0 km/h (0 Bft) O-NO 71 ° 0 min 0,000 mm 0,8 UV-I 188 W/m² 13,0 °C 21,9 °C 0,0 km/h (0 Bft)
04.07.2017 19:34 22,0 °C 22,0 °C 56 % 1017,6 hPa 0,0 mm 2,0 km/h (1 Bft) O-NO 71 ° 0 min 0,000 mm 0,8 UV-I 186 W/m² 12,8 °C 22,0 °C 4,8 km/h (1 Bft)
04.07.2017 19:35 22,0 °C 22,0 °C 56 % 1017,6 hPa 0,0 mm 3,6 km/h (1 Bft) O-NO 61 ° 0 min 0,000 mm 0,7 UV-I 179 W/m² 12,8 °C 22,0 °C 6,4 km/h (2 Bft)
04.07.2017 19:36 21,9 °C 22,0 °C 58 % 1017,6 hPa 0,0 mm 1,7 km/h (1 Bft) O-NO 61 ° 0 min 0,000 mm 0,7 UV-I 178 W/m² 13,3 °C 21,9 °C 3,2 km/h (1 Bft)
04.07.2017 19:37 21,8 °C 21,9 °C 57 % 1017,6 hPa 0,0 mm 0,8 km/h (0 Bft) O-NO 61 ° 0 min 0,000 mm 0,7 UV-I 174 W/m² 12,9 °C 21,8 °C 1,6 km/h (1 Bft)
04.07.2017 19:38 21,8 °C 21,8 °C 57 % 1017,6 hPa 0,0 mm 1,5 km/h (1 Bft) O 92 ° 0 min 0,000 mm 0,7 UV-I 172 W/m² 12,9 °C 21,8 °C 3,2 km/h (1 Bft)
04.07.2017 19:39 21,8 °C 21,8 °C 57 % 1017,6 hPa 0,0 mm 1,8 km/h (1 Bft) O 94 ° 0 min 0,000 mm 0,7 UV-I 171 W/m² 12,9 °C 21,8 °C 4,8 km/h (1 Bft)
04.07.2017 19:40 21,8 °C 21,8 °C 59 % 1017,6 hPa 0,0 mm 1,2 km/h (1 Bft) O 94 ° 0 min 0,000 mm 0,7 UV-I 167 W/m² 13,4 °C 21,8 °C 3,2 km/h (1 Bft)
04.07.2017 19:41 21,8 °C 21,8 °C 59 % 1017,6 hPa 0,0 mm 0,0 km/h (0 Bft) O 94 ° 0 min 0,000 mm 0,7 UV-I 162 W/m² 13,4 °C 21,8 °C 0,0 km/h (0 Bft)
04.07.2017 19:42 21,8 °C 21,8 °C 56 % 1017,6 hPa 0,0 mm 0,9 km/h (0 Bft) O 93 ° 0 min 0,000 mm 0,6 UV-I 158 W/m² 12,6 °C 21,8 °C 3,2 km/h (1 Bft)
04.07.2017 19:43 21,8 °C 21,8 °C 58 % 1017,6 hPa 0,0 mm 3,1 km/h (1 Bft) O-NO 69 ° 0 min 0,000 mm 0,6 UV-I 155 W/m² 13,2 °C 21,8 °C 4,8 km/h (1 Bft)
04.07.2017 19:44 21,8 °C 21,8 °C 57 % 1017,6 hPa 0,0 mm 2,7 km/h (1 Bft) O-NO 57 ° 0 min 0,000 mm 0,6 UV-I 153 W/m² 12,9 °C 21,8 °C 6,4 km/h (2 Bft)
04.07.2017 19:45 21,8 °C 21,8 °C 56 % 1017,6 hPa 0,0 mm 1,0 km/h (0 Bft) O-NO 66 ° 0 min 0,000 mm 0,6 UV-I 151 W/m² 12,6 °C 21,8 °C 3,2 km/h (1 Bft)
04.07.2017 19:46 21,7 °C 21,8 °C 57 % 1017,6 hPa 0,0 mm 1,4 km/h (1 Bft) O-NO 65 ° 0 min 0,000 mm 0,6 UV-I 144 W/m² 12,8 °C 21,7 °C 3,2 km/h (1 Bft)
04.07.2017 19:47 21,7 °C 21,7 °C 56 % 1017,6 hPa 0,0 mm 1,8 km/h (1 Bft) O 90 ° 0 min 0,000 mm 0,6 UV-I 142 W/m² 12,5 °C 21,7 °C 3,2 km/h (1 Bft)
04.07.2017 19:48 21,7 °C 21,8 °C 61 % 1017,7 hPa 0,0 mm 3,9 km/h (1 Bft) O 98 ° 0 min 0,000 mm 0,6 UV-I 142 W/m² 13,8 °C 21,7 °C 4,8 km/h (1 Bft)
04.07.2017 19:49 21,7 °C 21,7 °C 58 % 1017,6 hPa 0,0 mm 0,4 km/h (0 Bft) O 98 ° 0 min 0,000 mm 0,6 UV-I 139 W/m² 13,1 °C 21,7 °C 3,2 km/h (1 Bft)
04.07.2017 19:50 21,7 °C 21,7 °C 56 % 1017,6 hPa 0,0 mm 0,0 km/h (0 Bft) O 98 ° 0 min 0,000 mm 0,6 UV-I 135 W/m² 12,5 °C 21,7 °C 0,0 km/h (0 Bft)
04.07.2017 19:51 21,7 °C 21,7 °C 59 % 1017,6 hPa 0,0 mm 0,0 km/h (0 Bft) O 98 ° 0 min 0,000 mm 0,5 UV-I 134 W/m² 13,3 °C 21,7 °C 0,0 km/h (0 Bft)
04.07.2017 19:52 21,7 °C 21,7 °C 57 % 1017,6 hPa 0,0 mm 0,1 km/h (0 Bft) O 98 ° 0 min 0,000 mm 0,5 UV-I 132 W/m² 12,8 °C 21,7 °C 1,6 km/h (1 Bft)
04.07.2017 19:53 21,7 °C 21,7 °C 59 % 1017,6 hPa 0,0 mm 2,1 km/h (1 Bft) O 88 ° 0 min 0,000 mm 0,5 UV-I 127 W/m² 13,3 °C 21,7 °C 3,2 km/h (1 Bft)
04.07.2017 19:54 21,6 °C 21,7 °C 58 % 1017,7 hPa 0,0 mm 1,4 km/h (1 Bft) O 88 ° 0 min 0,000 mm 0,5 UV-I 123 W/m² 13,0 °C 21,6 °C 3,2 km/h (1 Bft)
04.07.2017 19:55 21,6 °C 21,6 °C 57 % 1017,7 hPa 0,0 mm 0,0 km/h (0 Bft) O 88 ° 0 min 0,000 mm 0,5 UV-I 121 W/m² 12,7 °C 21,6 °C 0,0 km/h (0 Bft)
04.07.2017 19:56 21,6 °C 21,6 °C 58 % 1017,6 hPa 0,0 mm 0,6 km/h (0 Bft) O 88 ° 0 min 0,000 mm 0,5 UV-I 120 W/m² 13,0 °C 21,6 °C 1,6 km/h (1 Bft)
04.07.2017 19:57 21,7 °C 21,7 °C 57 % 1017,6 hPa 0,0 mm 0,6 km/h (0 Bft) O 88 ° 0 min 0,000 mm 0,5 UV-I 118 W/m² 12,8 °C 21,7 °C 3,2 km/h (1 Bft)
04.07.2017 19:58 21,7 °C 21,7 °C 57 % 1017,7 hPa 0,0 mm 0,5 km/h (0 Bft) O 88 ° 0 min 0,000 mm 0,5 UV-I 113 W/m² 12,8 °C 21,7 °C 3,2 km/h (1 Bft)
04.07.2017 19:59 21,7 °C 21,8 °C 59 % 1017,7 hPa 0,0 mm 0,0 km/h (0 Bft) O 88 ° 0 min 0,000 mm 0,5 UV-I 111 W/m² 13,3 °C 21,7 °C 0,0 km/h (0 Bft)
04.07.2017 20:00 21,7 °C 21,7 °C 58 % 1017,6 hPa 0,0 mm 0,8 km/h (0 Bft) O 88 ° 0 min 0,000 mm 0,5 UV-I 109 W/m² 13,1 °C 21,7 °C 3,2 km/h (1 Bft)
04.07.2017 20:01 21,6 °C 21,7 °C 57 % 1017,6 hPa 0,0 mm 1,8 km/h (1 Bft) O-NO 59 ° 0 min 0,127 mm 0,5 UV-I 105 W/m² 12,7 °C 21,6 °C 4,8 km/h (1 Bft)
04.07.2017 20:02 21,5 °C 21,6 °C 59 % 1017,6 hPa 0,0 mm 1,2 km/h (1 Bft) O-NO 59 ° 0 min 0,000 mm 0,0 UV-I 104 W/m² 13,1 °C 21,5 °C 3,2 km/h (1 Bft)
04.07.2017 20:03 21,4 °C 21,5 °C 59 % 1017,6 hPa 0,0 mm 1,0 km/h (0 Bft) O-NO 59 ° 0 min 0,000 mm 0,0 UV-I 102 W/m² 13,0 °C 21,4 °C 3,2 km/h (1 Bft)
04.07.2017 20:04 21,4 °C 21,4 °C 58 % 1017,6 hPa 0,0 mm 2,8 km/h (1 Bft) O-NO 76 ° 0 min 0,000 mm 0,0 UV-I 98 W/m² 12,8 °C 21,4 °C 4,8 km/h (1 Bft)
04.07.2017 20:05 21,4 °C 21,4 °C 58 % 1017,6 hPa 0,0 mm 2,0 km/h (1 Bft) O 84 ° 0 min 0,000 mm 0,0 UV-I 97 W/m² 12,8 °C 21,4 °C 3,2 km/h (1 Bft)
04.07.2017 20:06 21,3 °C 21,4 °C 60 % 1017,6 hPa 0,0 mm 1,3 km/h (1 Bft) O 84 ° 0 min 0,000 mm 0,0 UV-I 93 W/m² 13,2 °C 21,3 °C 3,2 km/h (1 Bft)
04.07.2017 20:07 21,3 °C 21,3 °C 60 % 1017,6 hPa 0,0 mm 1,7 km/h (1 Bft) O 84 ° 0 min 0,000 mm 0,0 UV-I 91 W/m² 13,2 °C 21,3 °C 3,2 km/h (1 Bft)
04.07.2017 20:08 21,3 °C 21,3 °C 61 % 1017,6 hPa 0,0 mm 3,6 km/h (1 Bft) O 92 ° 0 min 0,000 mm 0,0 UV-I 90 W/m² 13,5 °C 21,3 °C 4,8 km/h (1 Bft)
04.07.2017 20:09 21,3 °C 21,3 °C 58 % 1017,6 hPa 0,0 mm 3,6 km/h (1 Bft) O 83 ° 0 min 0,000 mm 0,0 UV-I 88 W/m² 12,7 °C 21,3 °C 4,8 km/h (1 Bft)
04.07.2017 20:10 21,3 °C 21,3 °C 58 % 1017,6 hPa 0,0 mm 1,9 km/h (1 Bft) O 84 ° 0 min 0,000 mm 0,0 UV-I 86 W/m² 12,7 °C 21,3 °C 3,2 km/h (1 Bft)
04.07.2017 20:11 21,3 °C 21,3 °C 57 % 1017,6 hPa 0,0 mm 3,0 km/h (1 Bft) O 83 ° 0 min 0,000 mm 0,0 UV-I 81 W/m² 12,4 °C 21,3 °C 3,2 km/h (1 Bft)
04.07.2017 20:12 21,4 °C 21,4 °C 57 % 1017,6 hPa 0,0 mm 0,8 km/h (0 Bft) O 83 ° 0 min 0,000 mm 0,0 UV-I 79 W/m² 12,5 °C 21,4 °C 3,2 km/h (1 Bft)
04.07.2017 20:13 21,3 °C 21,4 °C 59 % 1017,6 hPa 0,0 mm 1,0 km/h (0 Bft) O 83 ° 0 min 0,000 mm 0,0 UV-I 77 W/m² 13,0 °C 21,3 °C 1,6 km/h (1 Bft)
04.07.2017 20:14 21,3 °C 21,3 °C 57 % 1017,6 hPa 0,0 mm 0,0 km/h (0 Bft) O 83 ° 0 min 0,000 mm 0,0 UV-I 76 W/m² 12,4 °C 21,3 °C 0,0 km/h (0 Bft)
04.07.2017 20:15 21,3 °C 21,4 °C 58 % 1017,6 hPa 0,0 mm 0,0 km/h (0 Bft) O 83 ° 0 min 0,000 mm 0,0 UV-I 74 W/m² 12,7 °C 21,3 °C 0,0 km/h (0 Bft)
04.07.2017 20:16 21,3 °C 21,3 °C 58 % 1017,6 hPa 0,0 mm 0,0 km/h (0 Bft) O 83 ° 0 min 0,000 mm 0,0 UV-I 70 W/m² 12,7 °C 21,3 °C 0,0 km/h (0 Bft)
04.07.2017 20:17 21,3 °C 21,3 °C 57 % 1017,6 hPa 0,0 mm 0,0 km/h (0 Bft) O 83 ° 0 min 0,000 mm 0,0 UV-I 69 W/m² 12,4 °C 21,3 °C 0,0 km/h (0 Bft)
04.07.2017 20:18 21,2 °C 21,3 °C 60 % 1017,6 hPa 0,0 mm 0,0 km/h (0 Bft) O 83 ° 0 min 0,000 mm 0,0 UV-I 67 W/m² 13,1 °C 21,2 °C 0,0 km/h (0 Bft)
04.07.2017 20:19 21,0 °C 21,2 °C 64 % 1017,6 hPa 0,0 mm 0,0 km/h (0 Bft) O 83 ° 0 min 0,000 mm 0,0 UV-I 65 W/m² 13,9 °C 21,0 °C 0,0 km/h (0 Bft)
04.07.2017 20:20 20,8 °C 21,0 °C 62 % 1017,6 hPa 0,0 mm 0,0 km/h (0 Bft) O 83 ° 0 min 0,000 mm 0,0 UV-I 62 W/m² 13,2 °C 20,8 °C 0,0 km/h (0 Bft)
04.07.2017 20:21 20,8 °C 20,8 °C 60 % 1017,6 hPa 0,0 mm 0,0 km/h (0 Bft) O 83 ° 0 min 0,000 mm 0,0 UV-I 62 W/m² 12,7 °C 20,8 °C 0,0 km/h (0 Bft)
04.07.2017 20:22 20,8 °C 20,8 °C 60 % 1017,6 hPa 0,0 mm 0,5 km/h (0 Bft) O 83 ° 0 min 0,000 mm 0,0 UV-I 58 W/m² 12,7 °C 20,8 °C 1,6 km/h (1 Bft)
04.07.2017 20:23 20,8 °C 20,8 °C 60 % 1017,6 hPa 0,0 mm 0,9 km/h (0 Bft) O 83 ° 0 min 0,000 mm 0,0 UV-I 56 W/m² 12,7 °C 20,8 °C 1,6 km/h (1 Bft)
04.07.2017 20:24 20,8 °C 20,8 °C 61 % 1017,6 hPa 0,0 mm 0,4 km/h (0 Bft) O 83 ° 0 min 0,000 mm 0,0 UV-I 54 W/m² 13,0 °C 20,8 °C 1,6 km/h (1 Bft)
04.07.2017 20:25 20,8 °C 20,8 °C 62 % 1017,6 hPa 0,0 mm 0,3 km/h (0 Bft) O 83 ° 0 min 0,000 mm 0,0 UV-I 53 W/m² 13,2 °C 20,8 °C 1,6 km/h (1 Bft)
04.07.2017 20:26 20,7 °C 20,8 °C 61 % 1017,6 hPa 0,0 mm 0,0 km/h (0 Bft) O 83 ° 0 min 0,000 mm 0,0 UV-I 51 W/m² 12,9 °C 20,7 °C 0,0 km/h (0 Bft)
04.07.2017 20:27 20,7 °C 20,7 °C 61 % 1017,7 hPa 0,0 mm 1,0 km/h (0 Bft) O 83 ° 0 min 0,000 mm 0,0 UV-I 49 W/m² 12,9 °C 20,7 °C 1,6 km/h (1 Bft)
04.07.2017 20:28 20,7 °C 20,7 °C 61 % 1017,6 hPa 0,0 mm 0,6 km/h (0 Bft) O 83 ° 0 min 0,000 mm 0,0 UV-I 47 W/m² 12,9 °C 20,7 °C 1,6 km/h (1 Bft)
04.07.2017 20:29 20,7 °C 20,7 °C 61 % 1017,6 hPa 0,0 mm 0,0 km/h (0 Bft) O 83 ° 0 min 0,000 mm 0,0 UV-I 46 W/m² 12,9 °C 20,7 °C 0,0 km/h (0 Bft)
04.07.2017